<?xml version="1.0" encoding="UTF-8" standalone="no" ?>
<gpx xmlns="http://www.topografix.com/GPX/1/1" xmlns:xsi="http://www.w3.org/2001/XMLSchema-instance" xsi:schemaLocation="http://www.topografix.com/GPX/1/1 http://www.topografix.com/GPX/1/1/gpx.xsd" version="1.1" creator="VisuGPX - https://www.visugpx.com">
  <metadata>
    <name>reprise 2018 40kms</name>
    <desc><![CDATA[reprise en douleurs sur 40 kms ,terrain gorgé d'eau ,pas de difficulté majeur si  ce n'est les nombreuses glissades.
]]></desc>
  </metadata>
  <wpt lat="46.10685" lon="3.48745">
    <ele>372.55</ele>
    <name><![CDATA[0000107]]></name>
  </wpt>
  <trk>
    <name><![CDATA[20180128181808-cbSVP]]></name>
    <trkseg>
      <trkpt lat="46.17625" lon="3.42879">
        <ele>325</ele>
        <time>2018-01-28T09:14:03Z</time>
      </trkpt>
      <trkpt lat="46.1761" lon="3.429">
        <ele>323</ele>
        <time>2018-01-28T09:14:13Z</time>
      </trkpt>
      <trkpt lat="46.17586" lon="3.42907">
        <ele>321</ele>
        <time>2018-01-28T09:14:18Z</time>
      </trkpt>
      <trkpt lat="46.17567" lon="3.42911">
        <ele>318</ele>
        <time>2018-01-28T09:14:20Z</time>
      </trkpt>
      <trkpt lat="46.17548" lon="3.429">
        <ele>317</ele>
        <time>2018-01-28T09:14:24Z</time>
      </trkpt>
      <trkpt lat="46.17534" lon="3.42872">
        <ele>317</ele>
        <time>2018-01-28T09:14:29Z</time>
      </trkpt>
      <trkpt lat="46.17531" lon="3.42844">
        <ele>317</ele>
        <time>2018-01-28T09:14:31Z</time>
      </trkpt>
      <trkpt lat="46.1752" lon="3.42823">
        <ele>317</ele>
        <time>2018-01-28T09:14:36Z</time>
      </trkpt>
      <trkpt lat="46.17505" lon="3.42806">
        <ele>317</ele>
        <time>2018-01-28T09:14:42Z</time>
      </trkpt>
      <trkpt lat="46.17487" lon="3.42791">
        <ele>313</ele>
        <time>2018-01-28T09:14:48Z</time>
      </trkpt>
      <trkpt lat="46.17471" lon="3.42778">
        <ele>313</ele>
        <time>2018-01-28T09:14:53Z</time>
      </trkpt>
      <trkpt lat="46.17454" lon="3.42761">
        <ele>313</ele>
        <time>2018-01-28T09:14:59Z</time>
      </trkpt>
      <trkpt lat="46.17438" lon="3.42743">
        <ele>314</ele>
        <time>2018-01-28T09:15:05Z</time>
      </trkpt>
      <trkpt lat="46.17422" lon="3.42728">
        <ele>313</ele>
        <time>2018-01-28T09:15:11Z</time>
      </trkpt>
      <trkpt lat="46.17405" lon="3.42716">
        <ele>310</ele>
        <time>2018-01-28T09:15:17Z</time>
      </trkpt>
      <trkpt lat="46.17389" lon="3.42701">
        <ele>309</ele>
        <time>2018-01-28T09:15:23Z</time>
      </trkpt>
      <trkpt lat="46.17371" lon="3.42688">
        <ele>309</ele>
        <time>2018-01-28T09:15:29Z</time>
      </trkpt>
      <trkpt lat="46.17355" lon="3.42673">
        <ele>308</ele>
        <time>2018-01-28T09:15:34Z</time>
      </trkpt>
      <trkpt lat="46.17338" lon="3.4266">
        <ele>308</ele>
        <time>2018-01-28T09:15:39Z</time>
      </trkpt>
      <trkpt lat="46.17321" lon="3.42647">
        <ele>305</ele>
        <time>2018-01-28T09:15:44Z</time>
      </trkpt>
      <trkpt lat="46.17306" lon="3.42632">
        <ele>305</ele>
        <time>2018-01-28T09:15:49Z</time>
      </trkpt>
      <trkpt lat="46.17289" lon="3.42615">
        <ele>304</ele>
        <time>2018-01-28T09:15:55Z</time>
      </trkpt>
      <trkpt lat="46.17273" lon="3.426">
        <ele>303</ele>
        <time>2018-01-28T09:16:01Z</time>
      </trkpt>
      <trkpt lat="46.17254" lon="3.42589">
        <ele>302</ele>
        <time>2018-01-28T09:16:07Z</time>
      </trkpt>
      <trkpt lat="46.17237" lon="3.42578">
        <ele>300</ele>
        <time>2018-01-28T09:16:13Z</time>
      </trkpt>
      <trkpt lat="46.1722" lon="3.42565">
        <ele>299</ele>
        <time>2018-01-28T09:16:19Z</time>
      </trkpt>
      <trkpt lat="46.17204" lon="3.42552">
        <ele>299</ele>
        <time>2018-01-28T09:16:25Z</time>
      </trkpt>
      <trkpt lat="46.17187" lon="3.4254">
        <ele>298</ele>
        <time>2018-01-28T09:16:31Z</time>
      </trkpt>
      <trkpt lat="46.1717" lon="3.42525">
        <ele>298</ele>
        <time>2018-01-28T09:16:37Z</time>
      </trkpt>
      <trkpt lat="46.17152" lon="3.4251">
        <ele>294</ele>
        <time>2018-01-28T09:16:42Z</time>
      </trkpt>
      <trkpt lat="46.17134" lon="3.42495">
        <ele>294</ele>
        <time>2018-01-28T09:16:48Z</time>
      </trkpt>
      <trkpt lat="46.17116" lon="3.4248">
        <ele>293</ele>
        <time>2018-01-28T09:16:54Z</time>
      </trkpt>
      <trkpt lat="46.171" lon="3.42462">
        <ele>293</ele>
        <time>2018-01-28T09:17:00Z</time>
      </trkpt>
      <trkpt lat="46.17083" lon="3.42445">
        <ele>289</ele>
        <time>2018-01-28T09:17:06Z</time>
      </trkpt>
      <trkpt lat="46.17067" lon="3.42428">
        <ele>289</ele>
        <time>2018-01-28T09:17:12Z</time>
      </trkpt>
      <trkpt lat="46.17051" lon="3.42411">
        <ele>289</ele>
        <time>2018-01-28T09:17:17Z</time>
      </trkpt>
      <trkpt lat="46.17034" lon="3.42398">
        <ele>288</ele>
        <time>2018-01-28T09:17:22Z</time>
      </trkpt>
      <trkpt lat="46.17018" lon="3.42385">
        <ele>287</ele>
        <time>2018-01-28T09:17:27Z</time>
      </trkpt>
      <trkpt lat="46.17001" lon="3.4237">
        <ele>286</ele>
        <time>2018-01-28T09:17:33Z</time>
      </trkpt>
      <trkpt lat="46.16986" lon="3.42355">
        <ele>281</ele>
        <time>2018-01-28T09:17:39Z</time>
      </trkpt>
      <trkpt lat="46.1697" lon="3.4234">
        <ele>281</ele>
        <time>2018-01-28T09:17:46Z</time>
      </trkpt>
      <trkpt lat="46.16955" lon="3.42325">
        <ele>279</ele>
        <time>2018-01-28T09:17:52Z</time>
      </trkpt>
      <trkpt lat="46.1694" lon="3.4231">
        <ele>278</ele>
        <time>2018-01-28T09:17:59Z</time>
      </trkpt>
      <trkpt lat="46.16925" lon="3.42291">
        <ele>277</ele>
        <time>2018-01-28T09:18:06Z</time>
      </trkpt>
      <trkpt lat="46.16911" lon="3.42274">
        <ele>272</ele>
        <time>2018-01-28T09:18:12Z</time>
      </trkpt>
      <trkpt lat="46.16897" lon="3.42256">
        <ele>271</ele>
        <time>2018-01-28T09:18:18Z</time>
      </trkpt>
      <trkpt lat="46.16882" lon="3.42235">
        <ele>268</ele>
        <time>2018-01-28T09:18:24Z</time>
      </trkpt>
      <trkpt lat="46.16868" lon="3.42211">
        <ele>267</ele>
        <time>2018-01-28T09:18:30Z</time>
      </trkpt>
      <trkpt lat="46.16854" lon="3.4219">
        <ele>265</ele>
        <time>2018-01-28T09:18:36Z</time>
      </trkpt>
      <trkpt lat="46.16839" lon="3.42175">
        <ele>263</ele>
        <time>2018-01-28T09:18:42Z</time>
      </trkpt>
      <trkpt lat="46.16821" lon="3.4216">
        <ele>259</ele>
        <time>2018-01-28T09:18:49Z</time>
      </trkpt>
      <trkpt lat="46.16801" lon="3.42149">
        <ele>258</ele>
        <time>2018-01-28T09:18:53Z</time>
      </trkpt>
      <trkpt lat="46.16805" lon="3.42119">
        <ele>257</ele>
        <time>2018-01-28T09:19:01Z</time>
      </trkpt>
      <trkpt lat="46.16821" lon="3.42104">
        <ele>256</ele>
        <time>2018-01-28T09:19:06Z</time>
      </trkpt>
      <trkpt lat="46.16836" lon="3.42087">
        <ele>256</ele>
        <time>2018-01-28T09:19:12Z</time>
      </trkpt>
      <trkpt lat="46.16851" lon="3.42068">
        <ele>256</ele>
        <time>2018-01-28T09:19:19Z</time>
      </trkpt>
      <trkpt lat="46.1686" lon="3.42042">
        <ele>256</ele>
        <time>2018-01-28T09:19:26Z</time>
      </trkpt>
      <trkpt lat="46.16871" lon="3.4202">
        <ele>255</ele>
        <time>2018-01-28T09:19:32Z</time>
      </trkpt>
      <trkpt lat="46.16883" lon="3.41999">
        <ele>253</ele>
        <time>2018-01-28T09:19:38Z</time>
      </trkpt>
      <trkpt lat="46.16896" lon="3.41977">
        <ele>253</ele>
        <time>2018-01-28T09:19:44Z</time>
      </trkpt>
      <trkpt lat="46.16911" lon="3.41956">
        <ele>252</ele>
        <time>2018-01-28T09:19:50Z</time>
      </trkpt>
      <trkpt lat="46.16925" lon="3.41939">
        <ele>254</ele>
        <time>2018-01-28T09:19:56Z</time>
      </trkpt>
      <trkpt lat="46.16938" lon="3.41919">
        <ele>254</ele>
        <time>2018-01-28T09:20:02Z</time>
      </trkpt>
      <trkpt lat="46.16951" lon="3.41896">
        <ele>251</ele>
        <time>2018-01-28T09:20:09Z</time>
      </trkpt>
      <trkpt lat="46.16965" lon="3.41877">
        <ele>251</ele>
        <time>2018-01-28T09:20:16Z</time>
      </trkpt>
      <trkpt lat="46.16979" lon="3.41857">
        <ele>251</ele>
        <time>2018-01-28T09:20:23Z</time>
      </trkpt>
      <trkpt lat="46.16986" lon="3.41829">
        <ele>249</ele>
        <time>2018-01-28T09:20:31Z</time>
      </trkpt>
      <trkpt lat="46.17001" lon="3.41814">
        <ele>250</ele>
        <time>2018-01-28T09:20:37Z</time>
      </trkpt>
      <trkpt lat="46.17016" lon="3.41797">
        <ele>250</ele>
        <time>2018-01-28T09:20:43Z</time>
      </trkpt>
      <trkpt lat="46.17032" lon="3.41784">
        <ele>250</ele>
        <time>2018-01-28T09:20:49Z</time>
      </trkpt>
      <trkpt lat="46.1705" lon="3.41771">
        <ele>250</ele>
        <time>2018-01-28T09:20:56Z</time>
      </trkpt>
      <trkpt lat="46.17067" lon="3.41756">
        <ele>250</ele>
        <time>2018-01-28T09:21:03Z</time>
      </trkpt>
      <trkpt lat="46.17084" lon="3.41741">
        <ele>249</ele>
        <time>2018-01-28T09:21:10Z</time>
      </trkpt>
      <trkpt lat="46.17101" lon="3.41729">
        <ele>249</ele>
        <time>2018-01-28T09:21:17Z</time>
      </trkpt>
      <trkpt lat="46.17118" lon="3.4172">
        <ele>249</ele>
        <time>2018-01-28T09:21:24Z</time>
      </trkpt>
      <trkpt lat="46.17134" lon="3.41701">
        <ele>248</ele>
        <time>2018-01-28T09:21:30Z</time>
      </trkpt>
      <trkpt lat="46.17149" lon="3.41683">
        <ele>248</ele>
        <time>2018-01-28T09:21:36Z</time>
      </trkpt>
      <trkpt lat="46.17169" lon="3.41673">
        <ele>248</ele>
        <time>2018-01-28T09:21:42Z</time>
      </trkpt>
      <trkpt lat="46.17188" lon="3.41662">
        <ele>248</ele>
        <time>2018-01-28T09:21:48Z</time>
      </trkpt>
      <trkpt lat="46.17206" lon="3.41653">
        <ele>248</ele>
        <time>2018-01-28T09:21:54Z</time>
      </trkpt>
      <trkpt lat="46.17223" lon="3.41641">
        <ele>248</ele>
        <time>2018-01-28T09:22:00Z</time>
      </trkpt>
      <trkpt lat="46.17239" lon="3.41628">
        <ele>248</ele>
        <time>2018-01-28T09:22:06Z</time>
      </trkpt>
      <trkpt lat="46.17258" lon="3.41619">
        <ele>250</ele>
        <time>2018-01-28T09:22:13Z</time>
      </trkpt>
      <trkpt lat="46.17275" lon="3.41606">
        <ele>250</ele>
        <time>2018-01-28T09:22:20Z</time>
      </trkpt>
      <trkpt lat="46.17291" lon="3.41591">
        <ele>250</ele>
        <time>2018-01-28T09:22:28Z</time>
      </trkpt>
      <trkpt lat="46.17309" lon="3.41583">
        <ele>248</ele>
        <time>2018-01-28T09:22:37Z</time>
      </trkpt>
      <trkpt lat="46.17327" lon="3.4157">
        <ele>248</ele>
        <time>2018-01-28T09:22:47Z</time>
      </trkpt>
      <trkpt lat="46.17343" lon="3.41555">
        <ele>250</ele>
        <time>2018-01-28T09:22:58Z</time>
      </trkpt>
      <trkpt lat="46.17361" lon="3.41546">
        <ele>250</ele>
        <time>2018-01-28T09:23:13Z</time>
      </trkpt>
      <trkpt lat="46.17379" lon="3.41548">
        <ele>251</ele>
        <time>2018-01-28T09:23:21Z</time>
      </trkpt>
      <trkpt lat="46.17398" lon="3.41548">
        <ele>251</ele>
        <time>2018-01-28T09:23:30Z</time>
      </trkpt>
      <trkpt lat="46.17416" lon="3.41544">
        <ele>251</ele>
        <time>2018-01-28T09:23:38Z</time>
      </trkpt>
      <trkpt lat="46.17435" lon="3.41538">
        <ele>255</ele>
        <time>2018-01-28T09:23:46Z</time>
      </trkpt>
      <trkpt lat="46.17452" lon="3.41523">
        <ele>255</ele>
        <time>2018-01-28T09:23:54Z</time>
      </trkpt>
      <trkpt lat="46.17468" lon="3.41505">
        <ele>254</ele>
        <time>2018-01-28T09:24:01Z</time>
      </trkpt>
      <trkpt lat="46.17485" lon="3.41495">
        <ele>251</ele>
        <time>2018-01-28T09:24:09Z</time>
      </trkpt>
      <trkpt lat="46.17503" lon="3.41484">
        <ele>253</ele>
        <time>2018-01-28T09:24:15Z</time>
      </trkpt>
      <trkpt lat="46.1752" lon="3.41473">
        <ele>252</ele>
        <time>2018-01-28T09:24:21Z</time>
      </trkpt>
      <trkpt lat="46.1754" lon="3.41465">
        <ele>252</ele>
        <time>2018-01-28T09:24:27Z</time>
      </trkpt>
      <trkpt lat="46.1756" lon="3.41458">
        <ele>252</ele>
        <time>2018-01-28T09:24:33Z</time>
      </trkpt>
      <trkpt lat="46.1758" lon="3.41454">
        <ele>252</ele>
        <time>2018-01-28T09:24:39Z</time>
      </trkpt>
      <trkpt lat="46.176" lon="3.41452">
        <ele>252</ele>
        <time>2018-01-28T09:24:45Z</time>
      </trkpt>
      <trkpt lat="46.1762" lon="3.41447">
        <ele>252</ele>
        <time>2018-01-28T09:24:51Z</time>
      </trkpt>
      <trkpt lat="46.17641" lon="3.41443">
        <ele>252</ele>
        <time>2018-01-28T09:24:57Z</time>
      </trkpt>
      <trkpt lat="46.17661" lon="3.41441">
        <ele>251</ele>
        <time>2018-01-28T09:25:03Z</time>
      </trkpt>
      <trkpt lat="46.17679" lon="3.41441">
        <ele>252</ele>
        <time>2018-01-28T09:25:09Z</time>
      </trkpt>
      <trkpt lat="46.17699" lon="3.41441">
        <ele>252</ele>
        <time>2018-01-28T09:25:15Z</time>
      </trkpt>
      <trkpt lat="46.17719" lon="3.41447">
        <ele>252</ele>
        <time>2018-01-28T09:25:22Z</time>
      </trkpt>
      <trkpt lat="46.17737" lon="3.41454">
        <ele>252</ele>
        <time>2018-01-28T09:25:28Z</time>
      </trkpt>
      <trkpt lat="46.17755" lon="3.41456">
        <ele>252</ele>
        <time>2018-01-28T09:25:35Z</time>
      </trkpt>
      <trkpt lat="46.1777" lon="3.41471">
        <ele>253</ele>
        <time>2018-01-28T09:26:31Z</time>
      </trkpt>
      <trkpt lat="46.17787" lon="3.41484">
        <ele>253</ele>
        <time>2018-01-28T09:27:04Z</time>
      </trkpt>
      <trkpt lat="46.17806" lon="3.41488">
        <ele>253</ele>
        <time>2018-01-28T09:27:11Z</time>
      </trkpt>
      <trkpt lat="46.17825" lon="3.41497">
        <ele>253</ele>
        <time>2018-01-28T09:27:18Z</time>
      </trkpt>
      <trkpt lat="46.17846" lon="3.41505">
        <ele>255</ele>
        <time>2018-01-28T09:27:25Z</time>
      </trkpt>
      <trkpt lat="46.17864" lon="3.41512">
        <ele>256</ele>
        <time>2018-01-28T09:27:31Z</time>
      </trkpt>
      <trkpt lat="46.17877" lon="3.41531">
        <ele>256</ele>
        <time>2018-01-28T09:27:40Z</time>
      </trkpt>
      <trkpt lat="46.17869" lon="3.41557">
        <ele>257</ele>
        <time>2018-01-28T09:27:50Z</time>
      </trkpt>
      <trkpt lat="46.17865" lon="3.41583">
        <ele>258</ele>
        <time>2018-01-28T09:27:58Z</time>
      </trkpt>
      <trkpt lat="46.17868" lon="3.41613">
        <ele>263</ele>
        <time>2018-01-28T09:28:06Z</time>
      </trkpt>
      <trkpt lat="46.17884" lon="3.41632">
        <ele>264</ele>
        <time>2018-01-28T09:28:12Z</time>
      </trkpt>
      <trkpt lat="46.17902" lon="3.41643">
        <ele>265</ele>
        <time>2018-01-28T09:28:17Z</time>
      </trkpt>
      <trkpt lat="46.17922" lon="3.41651">
        <ele>266</ele>
        <time>2018-01-28T09:28:23Z</time>
      </trkpt>
      <trkpt lat="46.17939" lon="3.4166">
        <ele>265</ele>
        <time>2018-01-28T09:28:29Z</time>
      </trkpt>
      <trkpt lat="46.17956" lon="3.41673">
        <ele>270</ele>
        <time>2018-01-28T09:28:36Z</time>
      </trkpt>
      <trkpt lat="46.17971" lon="3.41692">
        <ele>270</ele>
        <time>2018-01-28T09:28:43Z</time>
      </trkpt>
      <trkpt lat="46.17963" lon="3.41716">
        <ele>271</ele>
        <time>2018-01-28T09:28:53Z</time>
      </trkpt>
      <trkpt lat="46.17944" lon="3.41711">
        <ele>271</ele>
        <time>2018-01-28T09:29:01Z</time>
      </trkpt>
      <trkpt lat="46.17928" lon="3.41729">
        <ele>272</ele>
        <time>2018-01-28T09:29:10Z</time>
      </trkpt>
      <trkpt lat="46.17924" lon="3.41754">
        <ele>275</ele>
        <time>2018-01-28T09:29:18Z</time>
      </trkpt>
      <trkpt lat="46.17923" lon="3.41782">
        <ele>276</ele>
        <time>2018-01-28T09:29:26Z</time>
      </trkpt>
      <trkpt lat="46.17922" lon="3.41812">
        <ele>278</ele>
        <time>2018-01-28T09:29:35Z</time>
      </trkpt>
      <trkpt lat="46.17917" lon="3.41838">
        <ele>281</ele>
        <time>2018-01-28T09:29:43Z</time>
      </trkpt>
      <trkpt lat="46.17912" lon="3.41864">
        <ele>284</ele>
        <time>2018-01-28T09:29:50Z</time>
      </trkpt>
      <trkpt lat="46.1791" lon="3.41894">
        <ele>286</ele>
        <time>2018-01-28T09:29:57Z</time>
      </trkpt>
      <trkpt lat="46.17908" lon="3.41922">
        <ele>288</ele>
        <time>2018-01-28T09:30:04Z</time>
      </trkpt>
      <trkpt lat="46.17902" lon="3.41947">
        <ele>289</ele>
        <time>2018-01-28T09:30:11Z</time>
      </trkpt>
      <trkpt lat="46.17897" lon="3.41973">
        <ele>291</ele>
        <time>2018-01-28T09:30:18Z</time>
      </trkpt>
      <trkpt lat="46.17892" lon="3.42001">
        <ele>294</ele>
        <time>2018-01-28T09:30:25Z</time>
      </trkpt>
      <trkpt lat="46.17885" lon="3.42029">
        <ele>294</ele>
        <time>2018-01-28T09:30:33Z</time>
      </trkpt>
      <trkpt lat="46.1788" lon="3.42055">
        <ele>295</ele>
        <time>2018-01-28T09:30:40Z</time>
      </trkpt>
      <trkpt lat="46.17865" lon="3.42072">
        <ele>295</ele>
        <time>2018-01-28T09:30:48Z</time>
      </trkpt>
      <trkpt lat="46.17846" lon="3.42074">
        <ele>296</ele>
        <time>2018-01-28T09:30:56Z</time>
      </trkpt>
      <trkpt lat="46.17833" lon="3.42093">
        <ele>298</ele>
        <time>2018-01-28T09:31:03Z</time>
      </trkpt>
      <trkpt lat="46.1782" lon="3.42113">
        <ele>300</ele>
        <time>2018-01-28T09:31:10Z</time>
      </trkpt>
      <trkpt lat="46.17807" lon="3.42136">
        <ele>301</ele>
        <time>2018-01-28T09:31:18Z</time>
      </trkpt>
      <trkpt lat="46.17795" lon="3.42158">
        <ele>302</ele>
        <time>2018-01-28T09:31:25Z</time>
      </trkpt>
      <trkpt lat="46.17783" lon="3.42179">
        <ele>307</ele>
        <time>2018-01-28T09:31:32Z</time>
      </trkpt>
      <trkpt lat="46.17769" lon="3.42201">
        <ele>308</ele>
        <time>2018-01-28T09:31:40Z</time>
      </trkpt>
      <trkpt lat="46.17757" lon="3.4222">
        <ele>309</ele>
        <time>2018-01-28T09:31:47Z</time>
      </trkpt>
      <trkpt lat="46.17743" lon="3.42239">
        <ele>311</ele>
        <time>2018-01-28T09:31:55Z</time>
      </trkpt>
      <trkpt lat="46.1773" lon="3.42261">
        <ele>313</ele>
        <time>2018-01-28T09:32:03Z</time>
      </trkpt>
      <trkpt lat="46.17716" lon="3.42284">
        <ele>314</ele>
        <time>2018-01-28T09:32:11Z</time>
      </trkpt>
      <trkpt lat="46.17703" lon="3.42304">
        <ele>314</ele>
        <time>2018-01-28T09:32:18Z</time>
      </trkpt>
      <trkpt lat="46.17691" lon="3.42325">
        <ele>314</ele>
        <time>2018-01-28T09:32:25Z</time>
      </trkpt>
      <trkpt lat="46.17681" lon="3.42351">
        <ele>318</ele>
        <time>2018-01-28T09:32:32Z</time>
      </trkpt>
      <trkpt lat="46.17671" lon="3.42374">
        <ele>319</ele>
        <time>2018-01-28T09:32:39Z</time>
      </trkpt>
      <trkpt lat="46.17658" lon="3.42396">
        <ele>323</ele>
        <time>2018-01-28T09:32:46Z</time>
      </trkpt>
      <trkpt lat="46.17642" lon="3.42413">
        <ele>323</ele>
        <time>2018-01-28T09:32:54Z</time>
      </trkpt>
      <trkpt lat="46.17649" lon="3.42437">
        <ele>330</ele>
        <time>2018-01-28T09:33:06Z</time>
      </trkpt>
      <trkpt lat="46.17669" lon="3.42443">
        <ele>329</ele>
        <time>2018-01-28T09:33:15Z</time>
      </trkpt>
      <trkpt lat="46.17686" lon="3.42452">
        <ele>330</ele>
        <time>2018-01-28T09:33:36Z</time>
      </trkpt>
      <trkpt lat="46.17703" lon="3.4246">
        <ele>331</ele>
        <time>2018-01-28T09:33:48Z</time>
      </trkpt>
      <trkpt lat="46.17722" lon="3.42464">
        <ele>331</ele>
        <time>2018-01-28T09:33:55Z</time>
      </trkpt>
      <trkpt lat="46.17742" lon="3.42464">
        <ele>331</ele>
        <time>2018-01-28T09:34:03Z</time>
      </trkpt>
      <trkpt lat="46.1776" lon="3.42467">
        <ele>329</ele>
        <time>2018-01-28T09:34:11Z</time>
      </trkpt>
      <trkpt lat="46.17779" lon="3.42464">
        <ele>328</ele>
        <time>2018-01-28T09:34:18Z</time>
      </trkpt>
      <trkpt lat="46.17797" lon="3.42467">
        <ele>327</ele>
        <time>2018-01-28T09:34:23Z</time>
      </trkpt>
      <trkpt lat="46.17816" lon="3.42471">
        <ele>327</ele>
        <time>2018-01-28T09:34:28Z</time>
      </trkpt>
      <trkpt lat="46.17835" lon="3.42477">
        <ele>325</ele>
        <time>2018-01-28T09:34:34Z</time>
      </trkpt>
      <trkpt lat="46.17854" lon="3.42482">
        <ele>324</ele>
        <time>2018-01-28T09:34:40Z</time>
      </trkpt>
      <trkpt lat="46.17875" lon="3.42484">
        <ele>322</ele>
        <time>2018-01-28T09:34:47Z</time>
      </trkpt>
      <trkpt lat="46.17894" lon="3.42488">
        <ele>321</ele>
        <time>2018-01-28T09:34:53Z</time>
      </trkpt>
      <trkpt lat="46.17914" lon="3.42484">
        <ele>320</ele>
        <time>2018-01-28T09:34:59Z</time>
      </trkpt>
      <trkpt lat="46.17934" lon="3.42486">
        <ele>317</ele>
        <time>2018-01-28T09:35:04Z</time>
      </trkpt>
      <trkpt lat="46.17953" lon="3.42482">
        <ele>316</ele>
        <time>2018-01-28T09:35:10Z</time>
      </trkpt>
      <trkpt lat="46.17972" lon="3.42484">
        <ele>316</ele>
        <time>2018-01-28T09:35:16Z</time>
      </trkpt>
      <trkpt lat="46.17992" lon="3.42492">
        <ele>316</ele>
        <time>2018-01-28T09:35:22Z</time>
      </trkpt>
      <trkpt lat="46.1801" lon="3.42503">
        <ele>318</ele>
        <time>2018-01-28T09:35:28Z</time>
      </trkpt>
      <trkpt lat="46.18029" lon="3.42514">
        <ele>319</ele>
        <time>2018-01-28T09:35:34Z</time>
      </trkpt>
      <trkpt lat="46.18048" lon="3.42522">
        <ele>319</ele>
        <time>2018-01-28T09:35:40Z</time>
      </trkpt>
      <trkpt lat="46.18068" lon="3.42531">
        <ele>319</ele>
        <time>2018-01-28T09:35:47Z</time>
      </trkpt>
      <trkpt lat="46.18086" lon="3.42535">
        <ele>317</ele>
        <time>2018-01-28T09:35:55Z</time>
      </trkpt>
      <trkpt lat="46.18104" lon="3.42537">
        <ele>317</ele>
        <time>2018-01-28T09:36:02Z</time>
      </trkpt>
      <trkpt lat="46.18123" lon="3.42531">
        <ele>316</ele>
        <time>2018-01-28T09:36:09Z</time>
      </trkpt>
      <trkpt lat="46.18134" lon="3.4251">
        <ele>315</ele>
        <time>2018-01-28T09:36:15Z</time>
      </trkpt>
      <trkpt lat="46.18144" lon="3.42482">
        <ele>308</ele>
        <time>2018-01-28T09:36:22Z</time>
      </trkpt>
      <trkpt lat="46.18152" lon="3.42456">
        <ele>307</ele>
        <time>2018-01-28T09:36:28Z</time>
      </trkpt>
      <trkpt lat="46.18162" lon="3.42432">
        <ele>305</ele>
        <time>2018-01-28T09:36:33Z</time>
      </trkpt>
      <trkpt lat="46.18171" lon="3.42409">
        <ele>302</ele>
        <time>2018-01-28T09:36:38Z</time>
      </trkpt>
      <trkpt lat="46.1818" lon="3.42385">
        <ele>300</ele>
        <time>2018-01-28T09:36:43Z</time>
      </trkpt>
      <trkpt lat="46.18189" lon="3.42359">
        <ele>299</ele>
        <time>2018-01-28T09:36:48Z</time>
      </trkpt>
      <trkpt lat="46.18196" lon="3.42334">
        <ele>298</ele>
        <time>2018-01-28T09:36:53Z</time>
      </trkpt>
      <trkpt lat="46.18205" lon="3.4231">
        <ele>296</ele>
        <time>2018-01-28T09:36:58Z</time>
      </trkpt>
      <trkpt lat="46.18213" lon="3.42282">
        <ele>295</ele>
        <time>2018-01-28T09:37:04Z</time>
      </trkpt>
      <trkpt lat="46.18223" lon="3.42261">
        <ele>295</ele>
        <time>2018-01-28T09:37:11Z</time>
      </trkpt>
      <trkpt lat="46.18241" lon="3.42276">
        <ele>294</ele>
        <time>2018-01-28T09:37:18Z</time>
      </trkpt>
      <trkpt lat="46.18258" lon="3.42293">
        <ele>292</ele>
        <time>2018-01-28T09:37:24Z</time>
      </trkpt>
      <trkpt lat="46.18274" lon="3.42306">
        <ele>292</ele>
        <time>2018-01-28T09:37:30Z</time>
      </trkpt>
      <trkpt lat="46.18293" lon="3.42319">
        <ele>292</ele>
        <time>2018-01-28T09:37:37Z</time>
      </trkpt>
      <trkpt lat="46.18309" lon="3.42334">
        <ele>293</ele>
        <time>2018-01-28T09:37:43Z</time>
      </trkpt>
      <trkpt lat="46.18325" lon="3.42346">
        <ele>292</ele>
        <time>2018-01-28T09:37:49Z</time>
      </trkpt>
      <trkpt lat="46.18342" lon="3.42357">
        <ele>291</ele>
        <time>2018-01-28T09:37:55Z</time>
      </trkpt>
      <trkpt lat="46.18361" lon="3.42368">
        <ele>292</ele>
        <time>2018-01-28T09:38:01Z</time>
      </trkpt>
      <trkpt lat="46.18378" lon="3.42379">
        <ele>292</ele>
        <time>2018-01-28T09:38:07Z</time>
      </trkpt>
      <trkpt lat="46.18395" lon="3.42389">
        <ele>292</ele>
        <time>2018-01-28T09:38:13Z</time>
      </trkpt>
      <trkpt lat="46.18413" lon="3.42402">
        <ele>293</ele>
        <time>2018-01-28T09:38:20Z</time>
      </trkpt>
      <trkpt lat="46.1843" lon="3.42415">
        <ele>292</ele>
        <time>2018-01-28T09:38:27Z</time>
      </trkpt>
      <trkpt lat="46.18449" lon="3.42428">
        <ele>295</ele>
        <time>2018-01-28T09:38:35Z</time>
      </trkpt>
      <trkpt lat="46.18468" lon="3.42441">
        <ele>295</ele>
        <time>2018-01-28T09:38:43Z</time>
      </trkpt>
      <trkpt lat="46.18487" lon="3.42452">
        <ele>295</ele>
        <time>2018-01-28T09:38:50Z</time>
      </trkpt>
      <trkpt lat="46.18504" lon="3.42467">
        <ele>293</ele>
        <time>2018-01-28T09:38:56Z</time>
      </trkpt>
      <trkpt lat="46.18522" lon="3.42484">
        <ele>293</ele>
        <time>2018-01-28T09:39:02Z</time>
      </trkpt>
      <trkpt lat="46.18535" lon="3.42505">
        <ele>299</ele>
        <time>2018-01-28T09:39:08Z</time>
      </trkpt>
      <trkpt lat="46.18549" lon="3.42527">
        <ele>299</ele>
        <time>2018-01-28T09:39:14Z</time>
      </trkpt>
      <trkpt lat="46.1856" lon="3.42548">
        <ele>300</ele>
        <time>2018-01-28T09:39:19Z</time>
      </trkpt>
      <trkpt lat="46.1857" lon="3.42572">
        <ele>301</ele>
        <time>2018-01-28T09:39:25Z</time>
      </trkpt>
      <trkpt lat="46.18578" lon="3.426">
        <ele>305</ele>
        <time>2018-01-28T09:39:32Z</time>
      </trkpt>
      <trkpt lat="46.18585" lon="3.42625">
        <ele>301</ele>
        <time>2018-01-28T09:39:38Z</time>
      </trkpt>
      <trkpt lat="46.18592" lon="3.42651">
        <ele>304</ele>
        <time>2018-01-28T09:39:45Z</time>
      </trkpt>
      <trkpt lat="46.18601" lon="3.42679">
        <ele>306</ele>
        <time>2018-01-28T09:39:52Z</time>
      </trkpt>
      <trkpt lat="46.18611" lon="3.42703">
        <ele>306</ele>
        <time>2018-01-28T09:39:59Z</time>
      </trkpt>
      <trkpt lat="46.18621" lon="3.42728">
        <ele>306</ele>
        <time>2018-01-28T09:40:06Z</time>
      </trkpt>
      <trkpt lat="46.18633" lon="3.42754">
        <ele>309</ele>
        <time>2018-01-28T09:40:13Z</time>
      </trkpt>
      <trkpt lat="46.18641" lon="3.42782">
        <ele>309</ele>
        <time>2018-01-28T09:40:20Z</time>
      </trkpt>
      <trkpt lat="46.18643" lon="3.4281">
        <ele>310</ele>
        <time>2018-01-28T09:40:27Z</time>
      </trkpt>
      <trkpt lat="46.18637" lon="3.42836">
        <ele>312</ele>
        <time>2018-01-28T09:40:34Z</time>
      </trkpt>
      <trkpt lat="46.18632" lon="3.42864">
        <ele>313</ele>
        <time>2018-01-28T09:40:41Z</time>
      </trkpt>
      <trkpt lat="46.18626" lon="3.42889">
        <ele>314</ele>
        <time>2018-01-28T09:40:48Z</time>
      </trkpt>
      <trkpt lat="46.18619" lon="3.42917">
        <ele>315</ele>
        <time>2018-01-28T09:40:55Z</time>
      </trkpt>
      <trkpt lat="46.18613" lon="3.42945">
        <ele>316</ele>
        <time>2018-01-28T09:41:02Z</time>
      </trkpt>
      <trkpt lat="46.18608" lon="3.42973">
        <ele>317</ele>
        <time>2018-01-28T09:41:10Z</time>
      </trkpt>
      <trkpt lat="46.18604" lon="3.43001">
        <ele>320</ele>
        <time>2018-01-28T09:41:17Z</time>
      </trkpt>
      <trkpt lat="46.18606" lon="3.43029">
        <ele>319</ele>
        <time>2018-01-28T09:41:24Z</time>
      </trkpt>
      <trkpt lat="46.18615" lon="3.43055">
        <ele>319</ele>
        <time>2018-01-28T09:41:30Z</time>
      </trkpt>
      <trkpt lat="46.18627" lon="3.43076">
        <ele>319</ele>
        <time>2018-01-28T09:41:36Z</time>
      </trkpt>
      <trkpt lat="46.18644" lon="3.43091">
        <ele>321</ele>
        <time>2018-01-28T09:41:42Z</time>
      </trkpt>
      <trkpt lat="46.18664" lon="3.431">
        <ele>320</ele>
        <time>2018-01-28T09:41:49Z</time>
      </trkpt>
      <trkpt lat="46.18685" lon="3.43104">
        <ele>320</ele>
        <time>2018-01-28T09:41:56Z</time>
      </trkpt>
      <trkpt lat="46.18704" lon="3.43106">
        <ele>321</ele>
        <time>2018-01-28T09:42:02Z</time>
      </trkpt>
      <trkpt lat="46.18725" lon="3.4311">
        <ele>321</ele>
        <time>2018-01-28T09:42:08Z</time>
      </trkpt>
      <trkpt lat="46.18746" lon="3.43113">
        <ele>321</ele>
        <time>2018-01-28T09:42:15Z</time>
      </trkpt>
      <trkpt lat="46.18764" lon="3.43119">
        <ele>320</ele>
        <time>2018-01-28T09:42:22Z</time>
      </trkpt>
      <trkpt lat="46.18783" lon="3.43121">
        <ele>319</ele>
        <time>2018-01-28T09:42:28Z</time>
      </trkpt>
      <trkpt lat="46.18804" lon="3.43125">
        <ele>319</ele>
        <time>2018-01-28T09:42:35Z</time>
      </trkpt>
      <trkpt lat="46.18821" lon="3.43136">
        <ele>320</ele>
        <time>2018-01-28T09:42:41Z</time>
      </trkpt>
      <trkpt lat="46.18834" lon="3.43158">
        <ele>319</ele>
        <time>2018-01-28T09:42:48Z</time>
      </trkpt>
      <trkpt lat="46.18842" lon="3.43181">
        <ele>321</ele>
        <time>2018-01-28T09:42:55Z</time>
      </trkpt>
      <trkpt lat="46.18851" lon="3.43209">
        <ele>322</ele>
        <time>2018-01-28T09:43:03Z</time>
      </trkpt>
      <trkpt lat="46.18859" lon="3.43237">
        <ele>323</ele>
        <time>2018-01-28T09:43:11Z</time>
      </trkpt>
      <trkpt lat="46.18868" lon="3.43261">
        <ele>326</ele>
        <time>2018-01-28T09:43:18Z</time>
      </trkpt>
      <trkpt lat="46.18883" lon="3.43282">
        <ele>325</ele>
        <time>2018-01-28T09:43:24Z</time>
      </trkpt>
      <trkpt lat="46.18897" lon="3.43299">
        <ele>324</ele>
        <time>2018-01-28T09:43:29Z</time>
      </trkpt>
      <trkpt lat="46.1891" lon="3.43319">
        <ele>324</ele>
        <time>2018-01-28T09:43:34Z</time>
      </trkpt>
      <trkpt lat="46.18921" lon="3.43344">
        <ele>321</ele>
        <time>2018-01-28T09:43:40Z</time>
      </trkpt>
      <trkpt lat="46.18924" lon="3.4337">
        <ele>320</ele>
        <time>2018-01-28T09:43:45Z</time>
      </trkpt>
      <trkpt lat="46.18922" lon="3.43398">
        <ele>320</ele>
        <time>2018-01-28T09:43:51Z</time>
      </trkpt>
      <trkpt lat="46.18914" lon="3.43424">
        <ele>323</ele>
        <time>2018-01-28T09:43:57Z</time>
      </trkpt>
      <trkpt lat="46.18905" lon="3.43449">
        <ele>323</ele>
        <time>2018-01-28T09:44:03Z</time>
      </trkpt>
      <trkpt lat="46.18894" lon="3.43471">
        <ele>323</ele>
        <time>2018-01-28T09:44:09Z</time>
      </trkpt>
      <trkpt lat="46.18883" lon="3.43497">
        <ele>323</ele>
        <time>2018-01-28T09:44:16Z</time>
      </trkpt>
      <trkpt lat="46.18871" lon="3.4352">
        <ele>321</ele>
        <time>2018-01-28T09:44:23Z</time>
      </trkpt>
      <trkpt lat="46.18858" lon="3.43544">
        <ele>321</ele>
        <time>2018-01-28T09:44:30Z</time>
      </trkpt>
      <trkpt lat="46.18846" lon="3.43565">
        <ele>320</ele>
        <time>2018-01-28T09:44:37Z</time>
      </trkpt>
      <trkpt lat="46.18836" lon="3.43589">
        <ele>320</ele>
        <time>2018-01-28T09:44:43Z</time>
      </trkpt>
      <trkpt lat="46.18828" lon="3.43615">
        <ele>323</ele>
        <time>2018-01-28T09:44:50Z</time>
      </trkpt>
      <trkpt lat="46.18821" lon="3.43643">
        <ele>323</ele>
        <time>2018-01-28T09:44:57Z</time>
      </trkpt>
      <trkpt lat="46.18813" lon="3.43668">
        <ele>320</ele>
        <time>2018-01-28T09:45:03Z</time>
      </trkpt>
      <trkpt lat="46.18805" lon="3.43692">
        <ele>321</ele>
        <time>2018-01-28T09:45:09Z</time>
      </trkpt>
      <trkpt lat="46.18794" lon="3.43713">
        <ele>321</ele>
        <time>2018-01-28T09:45:15Z</time>
      </trkpt>
      <trkpt lat="46.18783" lon="3.43739">
        <ele>321</ele>
        <time>2018-01-28T09:45:22Z</time>
      </trkpt>
      <trkpt lat="46.18774" lon="3.43763">
        <ele>319</ele>
        <time>2018-01-28T09:45:28Z</time>
      </trkpt>
      <trkpt lat="46.18763" lon="3.43788">
        <ele>319</ele>
        <time>2018-01-28T09:45:35Z</time>
      </trkpt>
      <trkpt lat="46.18753" lon="3.43814">
        <ele>318</ele>
        <time>2018-01-28T09:45:42Z</time>
      </trkpt>
      <trkpt lat="46.18743" lon="3.43836">
        <ele>319</ele>
        <time>2018-01-28T09:45:48Z</time>
      </trkpt>
      <trkpt lat="46.18734" lon="3.43864">
        <ele>320</ele>
        <time>2018-01-28T09:45:55Z</time>
      </trkpt>
      <trkpt lat="46.18728" lon="3.43891">
        <ele>320</ele>
        <time>2018-01-28T09:46:02Z</time>
      </trkpt>
      <trkpt lat="46.18721" lon="3.43919">
        <ele>318</ele>
        <time>2018-01-28T09:46:09Z</time>
      </trkpt>
      <trkpt lat="46.18714" lon="3.43947">
        <ele>318</ele>
        <time>2018-01-28T09:46:16Z</time>
      </trkpt>
      <trkpt lat="46.18708" lon="3.43973">
        <ele>318</ele>
        <time>2018-01-28T09:46:23Z</time>
      </trkpt>
      <trkpt lat="46.18704" lon="3.43999">
        <ele>318</ele>
        <time>2018-01-28T09:46:29Z</time>
      </trkpt>
      <trkpt lat="46.187" lon="3.44027">
        <ele>316</ele>
        <time>2018-01-28T09:46:36Z</time>
      </trkpt>
      <trkpt lat="46.18696" lon="3.44052">
        <ele>315</ele>
        <time>2018-01-28T09:46:42Z</time>
      </trkpt>
      <trkpt lat="46.18692" lon="3.4408">
        <ele>315</ele>
        <time>2018-01-28T09:46:48Z</time>
      </trkpt>
      <trkpt lat="46.1869" lon="3.44108">
        <ele>312</ele>
        <time>2018-01-28T09:46:54Z</time>
      </trkpt>
      <trkpt lat="46.18687" lon="3.44136">
        <ele>310</ele>
        <time>2018-01-28T09:47:00Z</time>
      </trkpt>
      <trkpt lat="46.18682" lon="3.44162">
        <ele>310</ele>
        <time>2018-01-28T09:47:06Z</time>
      </trkpt>
      <trkpt lat="46.18675" lon="3.4419">
        <ele>306</ele>
        <time>2018-01-28T09:47:13Z</time>
      </trkpt>
      <trkpt lat="46.18665" lon="3.44215">
        <ele>306</ele>
        <time>2018-01-28T09:47:20Z</time>
      </trkpt>
      <trkpt lat="46.18657" lon="3.44239">
        <ele>304</ele>
        <time>2018-01-28T09:47:26Z</time>
      </trkpt>
      <trkpt lat="46.18648" lon="3.44265">
        <ele>301</ele>
        <time>2018-01-28T09:47:32Z</time>
      </trkpt>
      <trkpt lat="46.18642" lon="3.44293">
        <ele>301</ele>
        <time>2018-01-28T09:47:39Z</time>
      </trkpt>
      <trkpt lat="46.18638" lon="3.44321">
        <ele>300</ele>
        <time>2018-01-28T09:47:46Z</time>
      </trkpt>
      <trkpt lat="46.1863" lon="3.44344">
        <ele>296</ele>
        <time>2018-01-28T09:47:53Z</time>
      </trkpt>
      <trkpt lat="46.1862" lon="3.4437">
        <ele>295</ele>
        <time>2018-01-28T09:48:00Z</time>
      </trkpt>
      <trkpt lat="46.18611" lon="3.44396">
        <ele>294</ele>
        <time>2018-01-28T09:48:07Z</time>
      </trkpt>
      <trkpt lat="46.186" lon="3.44417">
        <ele>290</ele>
        <time>2018-01-28T09:48:14Z</time>
      </trkpt>
      <trkpt lat="46.18589" lon="3.44439">
        <ele>289</ele>
        <time>2018-01-28T09:48:22Z</time>
      </trkpt>
      <trkpt lat="46.18578" lon="3.4446">
        <ele>287</ele>
        <time>2018-01-28T09:48:29Z</time>
      </trkpt>
      <trkpt lat="46.18569" lon="3.44484">
        <ele>286</ele>
        <time>2018-01-28T09:48:34Z</time>
      </trkpt>
      <trkpt lat="46.18559" lon="3.44507">
        <ele>282</ele>
        <time>2018-01-28T09:48:39Z</time>
      </trkpt>
      <trkpt lat="46.1855" lon="3.44535">
        <ele>281</ele>
        <time>2018-01-28T09:48:45Z</time>
      </trkpt>
      <trkpt lat="46.18542" lon="3.44563">
        <ele>280</ele>
        <time>2018-01-28T09:48:51Z</time>
      </trkpt>
      <trkpt lat="46.18534" lon="3.44589">
        <ele>276</ele>
        <time>2018-01-28T09:48:56Z</time>
      </trkpt>
      <trkpt lat="46.18526" lon="3.44617">
        <ele>276</ele>
        <time>2018-01-28T09:49:02Z</time>
      </trkpt>
      <trkpt lat="46.18517" lon="3.4464">
        <ele>276</ele>
        <time>2018-01-28T09:49:07Z</time>
      </trkpt>
      <trkpt lat="46.18508" lon="3.44666">
        <ele>275</ele>
        <time>2018-01-28T09:49:13Z</time>
      </trkpt>
      <trkpt lat="46.18499" lon="3.44692">
        <ele>275</ele>
        <time>2018-01-28T09:49:19Z</time>
      </trkpt>
      <trkpt lat="46.1849" lon="3.44718">
        <ele>275</ele>
        <time>2018-01-28T09:49:25Z</time>
      </trkpt>
      <trkpt lat="46.18482" lon="3.44741">
        <ele>274</ele>
        <time>2018-01-28T09:49:31Z</time>
      </trkpt>
      <trkpt lat="46.18473" lon="3.44769">
        <ele>274</ele>
        <time>2018-01-28T09:49:38Z</time>
      </trkpt>
      <trkpt lat="46.18465" lon="3.44793">
        <ele>273</ele>
        <time>2018-01-28T09:49:44Z</time>
      </trkpt>
      <trkpt lat="46.18457" lon="3.44818">
        <ele>273</ele>
        <time>2018-01-28T09:49:50Z</time>
      </trkpt>
      <trkpt lat="46.18451" lon="3.44846">
        <ele>273</ele>
        <time>2018-01-28T09:49:57Z</time>
      </trkpt>
      <trkpt lat="46.18447" lon="3.44872">
        <ele>273</ele>
        <time>2018-01-28T09:50:03Z</time>
      </trkpt>
      <trkpt lat="46.18444" lon="3.44898">
        <ele>273</ele>
        <time>2018-01-28T09:50:09Z</time>
      </trkpt>
      <trkpt lat="46.18441" lon="3.44926">
        <ele>273</ele>
        <time>2018-01-28T09:50:16Z</time>
      </trkpt>
      <trkpt lat="46.18437" lon="3.44954">
        <ele>273</ele>
        <time>2018-01-28T09:50:23Z</time>
      </trkpt>
      <trkpt lat="46.18434" lon="3.44979">
        <ele>273</ele>
        <time>2018-01-28T09:50:30Z</time>
      </trkpt>
      <trkpt lat="46.18429" lon="3.45005">
        <ele>274</ele>
        <time>2018-01-28T09:50:37Z</time>
      </trkpt>
      <trkpt lat="46.18423" lon="3.45033">
        <ele>272</ele>
        <time>2018-01-28T09:50:44Z</time>
      </trkpt>
      <trkpt lat="46.18414" lon="3.45061">
        <ele>273</ele>
        <time>2018-01-28T09:50:51Z</time>
      </trkpt>
      <trkpt lat="46.18403" lon="3.45082">
        <ele>273</ele>
        <time>2018-01-28T09:50:57Z</time>
      </trkpt>
      <trkpt lat="46.18392" lon="3.45106">
        <ele>272</ele>
        <time>2018-01-28T09:51:03Z</time>
      </trkpt>
      <trkpt lat="46.18378" lon="3.45127">
        <ele>272</ele>
        <time>2018-01-28T09:51:10Z</time>
      </trkpt>
      <trkpt lat="46.18357" lon="3.45132">
        <ele>272</ele>
        <time>2018-01-28T09:51:18Z</time>
      </trkpt>
      <trkpt lat="46.18338" lon="3.45125">
        <ele>272</ele>
        <time>2018-01-28T09:51:26Z</time>
      </trkpt>
      <trkpt lat="46.18321" lon="3.45117">
        <ele>274</ele>
        <time>2018-01-28T09:51:33Z</time>
      </trkpt>
      <trkpt lat="46.18302" lon="3.4511">
        <ele>275</ele>
        <time>2018-01-28T09:51:40Z</time>
      </trkpt>
      <trkpt lat="46.18282" lon="3.45099">
        <ele>275</ele>
        <time>2018-01-28T09:51:47Z</time>
      </trkpt>
      <trkpt lat="46.18266" lon="3.45087">
        <ele>276</ele>
        <time>2018-01-28T09:51:54Z</time>
      </trkpt>
      <trkpt lat="46.18251" lon="3.45069">
        <ele>278</ele>
        <time>2018-01-28T09:52:01Z</time>
      </trkpt>
      <trkpt lat="46.18236" lon="3.45052">
        <ele>281</ele>
        <time>2018-01-28T09:52:09Z</time>
      </trkpt>
      <trkpt lat="46.18222" lon="3.45033">
        <ele>282</ele>
        <time>2018-01-28T09:52:17Z</time>
      </trkpt>
      <trkpt lat="46.1821" lon="3.45012">
        <ele>283</ele>
        <time>2018-01-28T09:52:25Z</time>
      </trkpt>
      <trkpt lat="46.18204" lon="3.44986">
        <ele>285</ele>
        <time>2018-01-28T09:52:33Z</time>
      </trkpt>
      <trkpt lat="46.18201" lon="3.4496">
        <ele>285</ele>
        <time>2018-01-28T09:52:41Z</time>
      </trkpt>
      <trkpt lat="46.18193" lon="3.44934">
        <ele>287</ele>
        <time>2018-01-28T09:52:50Z</time>
      </trkpt>
      <trkpt lat="46.18187" lon="3.44906">
        <ele>287</ele>
        <time>2018-01-28T09:52:58Z</time>
      </trkpt>
      <trkpt lat="46.18179" lon="3.44881">
        <ele>287</ele>
        <time>2018-01-28T09:53:06Z</time>
      </trkpt>
      <trkpt lat="46.18169" lon="3.44857">
        <ele>287</ele>
        <time>2018-01-28T09:53:14Z</time>
      </trkpt>
      <trkpt lat="46.18157" lon="3.44836">
        <ele>293</ele>
        <time>2018-01-28T09:53:22Z</time>
      </trkpt>
      <trkpt lat="46.18144" lon="3.44814">
        <ele>297</ele>
        <time>2018-01-28T09:53:31Z</time>
      </trkpt>
      <trkpt lat="46.18133" lon="3.44791">
        <ele>299</ele>
        <time>2018-01-28T09:53:41Z</time>
      </trkpt>
      <trkpt lat="46.18125" lon="3.44767">
        <ele>300</ele>
        <time>2018-01-28T09:53:50Z</time>
      </trkpt>
      <trkpt lat="46.18114" lon="3.44743">
        <ele>304</ele>
        <time>2018-01-28T09:54:00Z</time>
      </trkpt>
      <trkpt lat="46.18102" lon="3.44722">
        <ele>305</ele>
        <time>2018-01-28T09:54:10Z</time>
      </trkpt>
      <trkpt lat="46.18097" lon="3.44696">
        <ele>306</ele>
        <time>2018-01-28T09:54:19Z</time>
      </trkpt>
      <trkpt lat="46.18096" lon="3.44668">
        <ele>308</ele>
        <time>2018-01-28T09:54:28Z</time>
      </trkpt>
      <trkpt lat="46.18106" lon="3.44645">
        <ele>307</ele>
        <time>2018-01-28T09:54:38Z</time>
      </trkpt>
      <trkpt lat="46.18088" lon="3.44638">
        <ele>308</ele>
        <time>2018-01-28T09:55:10Z</time>
      </trkpt>
      <trkpt lat="46.18068" lon="3.44632">
        <ele>311</ele>
        <time>2018-01-28T09:55:19Z</time>
      </trkpt>
      <trkpt lat="46.18047" lon="3.44636">
        <ele>311</ele>
        <time>2018-01-28T09:55:25Z</time>
      </trkpt>
      <trkpt lat="46.18027" lon="3.4464">
        <ele>312</ele>
        <time>2018-01-28T09:55:31Z</time>
      </trkpt>
      <trkpt lat="46.18007" lon="3.44645">
        <ele>313</ele>
        <time>2018-01-28T09:55:37Z</time>
      </trkpt>
      <trkpt lat="46.17986" lon="3.44651">
        <ele>314</ele>
        <time>2018-01-28T09:55:43Z</time>
      </trkpt>
      <trkpt lat="46.17967" lon="3.44653">
        <ele>314</ele>
        <time>2018-01-28T09:55:48Z</time>
      </trkpt>
      <trkpt lat="46.17952" lon="3.44634">
        <ele>313</ele>
        <time>2018-01-28T09:55:53Z</time>
      </trkpt>
      <trkpt lat="46.17943" lon="3.4461">
        <ele>312</ele>
        <time>2018-01-28T09:55:58Z</time>
      </trkpt>
      <trkpt lat="46.17937" lon="3.44582">
        <ele>310</ele>
        <time>2018-01-28T09:56:05Z</time>
      </trkpt>
      <trkpt lat="46.17932" lon="3.44557">
        <ele>310</ele>
        <time>2018-01-28T09:56:11Z</time>
      </trkpt>
      <trkpt lat="46.17932" lon="3.44529">
        <ele>311</ele>
        <time>2018-01-28T09:56:21Z</time>
      </trkpt>
      <trkpt lat="46.17939" lon="3.44501">
        <ele>312</ele>
        <time>2018-01-28T09:56:31Z</time>
      </trkpt>
      <trkpt lat="46.17944" lon="3.44475">
        <ele>317</ele>
        <time>2018-01-28T09:56:39Z</time>
      </trkpt>
      <trkpt lat="46.17951" lon="3.44449">
        <ele>319</ele>
        <time>2018-01-28T09:56:48Z</time>
      </trkpt>
      <trkpt lat="46.17958" lon="3.44426">
        <ele>320</ele>
        <time>2018-01-28T09:56:56Z</time>
      </trkpt>
      <trkpt lat="46.17971" lon="3.44406">
        <ele>329</ele>
        <time>2018-01-28T09:57:05Z</time>
      </trkpt>
      <trkpt lat="46.17988" lon="3.44394">
        <ele>329</ele>
        <time>2018-01-28T09:57:15Z</time>
      </trkpt>
      <trkpt lat="46.18001" lon="3.44374">
        <ele>326</ele>
        <time>2018-01-28T09:57:26Z</time>
      </trkpt>
      <trkpt lat="46.18001" lon="3.44346">
        <ele>330</ele>
        <time>2018-01-28T09:57:37Z</time>
      </trkpt>
      <trkpt lat="46.18003" lon="3.44318">
        <ele>335</ele>
        <time>2018-01-28T09:57:47Z</time>
      </trkpt>
      <trkpt lat="46.18005" lon="3.44291">
        <ele>337</ele>
        <time>2018-01-28T09:57:57Z</time>
      </trkpt>
      <trkpt lat="46.1801" lon="3.44265">
        <ele>339</ele>
        <time>2018-01-28T09:58:06Z</time>
      </trkpt>
      <trkpt lat="46.18015" lon="3.44239">
        <ele>344</ele>
        <time>2018-01-28T09:58:16Z</time>
      </trkpt>
      <trkpt lat="46.18018" lon="3.44213">
        <ele>344</ele>
        <time>2018-01-28T09:58:26Z</time>
      </trkpt>
      <trkpt lat="46.18008" lon="3.44192">
        <ele>347</ele>
        <time>2018-01-28T09:58:37Z</time>
      </trkpt>
      <trkpt lat="46.17994" lon="3.44175">
        <ele>351</ele>
        <time>2018-01-28T09:58:47Z</time>
      </trkpt>
      <trkpt lat="46.17979" lon="3.44155">
        <ele>355</ele>
        <time>2018-01-28T09:58:56Z</time>
      </trkpt>
      <trkpt lat="46.17966" lon="3.44136">
        <ele>356</ele>
        <time>2018-01-28T09:59:03Z</time>
      </trkpt>
      <trkpt lat="46.17953" lon="3.44117">
        <ele>357</ele>
        <time>2018-01-28T09:59:10Z</time>
      </trkpt>
      <trkpt lat="46.17943" lon="3.44093">
        <ele>358</ele>
        <time>2018-01-28T09:59:18Z</time>
      </trkpt>
      <trkpt lat="46.17937" lon="3.44067">
        <ele>361</ele>
        <time>2018-01-28T09:59:26Z</time>
      </trkpt>
      <trkpt lat="46.17929" lon="3.44042">
        <ele>362</ele>
        <time>2018-01-28T09:59:34Z</time>
      </trkpt>
      <trkpt lat="46.17912" lon="3.44027">
        <ele>362</ele>
        <time>2018-01-28T09:59:42Z</time>
      </trkpt>
      <trkpt lat="46.17895" lon="3.44016">
        <ele>362</ele>
        <time>2018-01-28T09:59:50Z</time>
      </trkpt>
      <trkpt lat="46.17878" lon="3.44007">
        <ele>362</ele>
        <time>2018-01-28T09:59:59Z</time>
      </trkpt>
      <trkpt lat="46.17865" lon="3.43986">
        <ele>363</ele>
        <time>2018-01-28T10:00:07Z</time>
      </trkpt>
      <trkpt lat="46.1785" lon="3.43971">
        <ele>363</ele>
        <time>2018-01-28T10:00:15Z</time>
      </trkpt>
      <trkpt lat="46.17832" lon="3.43967">
        <ele>361</ele>
        <time>2018-01-28T10:00:23Z</time>
      </trkpt>
      <trkpt lat="46.17812" lon="3.43973">
        <ele>361</ele>
        <time>2018-01-28T10:00:30Z</time>
      </trkpt>
      <trkpt lat="46.17794" lon="3.43982">
        <ele>361</ele>
        <time>2018-01-28T10:00:35Z</time>
      </trkpt>
      <trkpt lat="46.17774" lon="3.4399">
        <ele>361</ele>
        <time>2018-01-28T10:00:40Z</time>
      </trkpt>
      <trkpt lat="46.17754" lon="3.43999">
        <ele>361</ele>
        <time>2018-01-28T10:00:45Z</time>
      </trkpt>
      <trkpt lat="46.17734" lon="3.44007">
        <ele>360</ele>
        <time>2018-01-28T10:00:51Z</time>
      </trkpt>
      <trkpt lat="46.17716" lon="3.44016">
        <ele>360</ele>
        <time>2018-01-28T10:00:57Z</time>
      </trkpt>
      <trkpt lat="46.17698" lon="3.44024">
        <ele>360</ele>
        <time>2018-01-28T10:01:03Z</time>
      </trkpt>
      <trkpt lat="46.1768" lon="3.44037">
        <ele>360</ele>
        <time>2018-01-28T10:01:09Z</time>
      </trkpt>
      <trkpt lat="46.17661" lon="3.4405">
        <ele>360</ele>
        <time>2018-01-28T10:01:16Z</time>
      </trkpt>
      <trkpt lat="46.17645" lon="3.44063">
        <ele>360</ele>
        <time>2018-01-28T10:01:22Z</time>
      </trkpt>
      <trkpt lat="46.17628" lon="3.44074">
        <ele>360</ele>
        <time>2018-01-28T10:01:29Z</time>
      </trkpt>
      <trkpt lat="46.17614" lon="3.44093">
        <ele>360</ele>
        <time>2018-01-28T10:01:36Z</time>
      </trkpt>
      <trkpt lat="46.17602" lon="3.44115">
        <ele>360</ele>
        <time>2018-01-28T10:01:44Z</time>
      </trkpt>
      <trkpt lat="46.17592" lon="3.44138">
        <ele>361</ele>
        <time>2018-01-28T10:01:51Z</time>
      </trkpt>
      <trkpt lat="46.17583" lon="3.44164">
        <ele>363</ele>
        <time>2018-01-28T10:01:58Z</time>
      </trkpt>
      <trkpt lat="46.17573" lon="3.4419">
        <ele>364</ele>
        <time>2018-01-28T10:02:05Z</time>
      </trkpt>
      <trkpt lat="46.17564" lon="3.44215">
        <ele>365</ele>
        <time>2018-01-28T10:02:12Z</time>
      </trkpt>
      <trkpt lat="46.17553" lon="3.44241">
        <ele>365</ele>
        <time>2018-01-28T10:02:20Z</time>
      </trkpt>
      <trkpt lat="46.17543" lon="3.44267">
        <ele>367</ele>
        <time>2018-01-28T10:02:28Z</time>
      </trkpt>
      <trkpt lat="46.17531" lon="3.44291">
        <ele>368</ele>
        <time>2018-01-28T10:02:36Z</time>
      </trkpt>
      <trkpt lat="46.17518" lon="3.4431">
        <ele>369</ele>
        <time>2018-01-28T10:02:43Z</time>
      </trkpt>
      <trkpt lat="46.17504" lon="3.44329">
        <ele>372</ele>
        <time>2018-01-28T10:02:51Z</time>
      </trkpt>
      <trkpt lat="46.17492" lon="3.44348">
        <ele>373</ele>
        <time>2018-01-28T10:02:59Z</time>
      </trkpt>
      <trkpt lat="46.17477" lon="3.44366">
        <ele>374</ele>
        <time>2018-01-28T10:03:07Z</time>
      </trkpt>
      <trkpt lat="46.17459" lon="3.44379">
        <ele>374</ele>
        <time>2018-01-28T10:03:15Z</time>
      </trkpt>
      <trkpt lat="46.17443" lon="3.44398">
        <ele>374</ele>
        <time>2018-01-28T10:03:23Z</time>
      </trkpt>
      <trkpt lat="46.17429" lon="3.44417">
        <ele>375</ele>
        <time>2018-01-28T10:03:30Z</time>
      </trkpt>
      <trkpt lat="46.17415" lon="3.44434">
        <ele>376</ele>
        <time>2018-01-28T10:03:36Z</time>
      </trkpt>
      <trkpt lat="46.174" lon="3.44449">
        <ele>377</ele>
        <time>2018-01-28T10:03:42Z</time>
      </trkpt>
      <trkpt lat="46.17386" lon="3.44467">
        <ele>377</ele>
        <time>2018-01-28T10:03:48Z</time>
      </trkpt>
      <trkpt lat="46.17371" lon="3.44482">
        <ele>377</ele>
        <time>2018-01-28T10:03:54Z</time>
      </trkpt>
      <trkpt lat="46.17356" lon="3.44497">
        <ele>378</ele>
        <time>2018-01-28T10:04:00Z</time>
      </trkpt>
      <trkpt lat="46.1734" lon="3.44509">
        <ele>378</ele>
        <time>2018-01-28T10:04:06Z</time>
      </trkpt>
      <trkpt lat="46.17323" lon="3.44524">
        <ele>380</ele>
        <time>2018-01-28T10:04:13Z</time>
      </trkpt>
      <trkpt lat="46.17307" lon="3.44539">
        <ele>381</ele>
        <time>2018-01-28T10:04:20Z</time>
      </trkpt>
      <trkpt lat="46.17291" lon="3.44557">
        <ele>381</ele>
        <time>2018-01-28T10:04:27Z</time>
      </trkpt>
      <trkpt lat="46.17274" lon="3.44569">
        <ele>382</ele>
        <time>2018-01-28T10:04:34Z</time>
      </trkpt>
      <trkpt lat="46.17255" lon="3.4458">
        <ele>384</ele>
        <time>2018-01-28T10:04:41Z</time>
      </trkpt>
      <trkpt lat="46.17236" lon="3.44589">
        <ele>387</ele>
        <time>2018-01-28T10:04:48Z</time>
      </trkpt>
      <trkpt lat="46.17218" lon="3.44602">
        <ele>388</ele>
        <time>2018-01-28T10:04:55Z</time>
      </trkpt>
      <trkpt lat="46.17201" lon="3.44615">
        <ele>389</ele>
        <time>2018-01-28T10:05:02Z</time>
      </trkpt>
      <trkpt lat="46.17184" lon="3.44627">
        <ele>389</ele>
        <time>2018-01-28T10:05:09Z</time>
      </trkpt>
      <trkpt lat="46.17165" lon="3.44636">
        <ele>390</ele>
        <time>2018-01-28T10:05:16Z</time>
      </trkpt>
      <trkpt lat="46.17147" lon="3.44642">
        <ele>390</ele>
        <time>2018-01-28T10:05:23Z</time>
      </trkpt>
      <trkpt lat="46.1713" lon="3.44651">
        <ele>390</ele>
        <time>2018-01-28T10:05:30Z</time>
      </trkpt>
      <trkpt lat="46.17113" lon="3.44662">
        <ele>389</ele>
        <time>2018-01-28T10:05:37Z</time>
      </trkpt>
      <trkpt lat="46.17096" lon="3.44672">
        <ele>386</ele>
        <time>2018-01-28T10:05:44Z</time>
      </trkpt>
      <trkpt lat="46.17077" lon="3.44677">
        <ele>385</ele>
        <time>2018-01-28T10:05:51Z</time>
      </trkpt>
      <trkpt lat="46.17059" lon="3.44685">
        <ele>383</ele>
        <time>2018-01-28T10:05:58Z</time>
      </trkpt>
      <trkpt lat="46.17041" lon="3.44696">
        <ele>382</ele>
        <time>2018-01-28T10:06:05Z</time>
      </trkpt>
      <trkpt lat="46.17023" lon="3.44709">
        <ele>381</ele>
        <time>2018-01-28T10:06:12Z</time>
      </trkpt>
      <trkpt lat="46.17039" lon="3.44726">
        <ele>381</ele>
        <time>2018-01-28T10:06:32Z</time>
      </trkpt>
      <trkpt lat="46.17057" lon="3.44724">
        <ele>381</ele>
        <time>2018-01-28T10:06:38Z</time>
      </trkpt>
      <trkpt lat="46.17077" lon="3.44724">
        <ele>381</ele>
        <time>2018-01-28T10:06:45Z</time>
      </trkpt>
      <trkpt lat="46.17096" lon="3.44726">
        <ele>382</ele>
        <time>2018-01-28T10:06:52Z</time>
      </trkpt>
      <trkpt lat="46.17115" lon="3.4473">
        <ele>382</ele>
        <time>2018-01-28T10:06:59Z</time>
      </trkpt>
      <trkpt lat="46.17134" lon="3.44739">
        <ele>382</ele>
        <time>2018-01-28T10:07:06Z</time>
      </trkpt>
      <trkpt lat="46.17151" lon="3.44748">
        <ele>381</ele>
        <time>2018-01-28T10:07:13Z</time>
      </trkpt>
      <trkpt lat="46.17169" lon="3.44758">
        <ele>377</ele>
        <time>2018-01-28T10:07:20Z</time>
      </trkpt>
      <trkpt lat="46.17185" lon="3.44773">
        <ele>374</ele>
        <time>2018-01-28T10:07:27Z</time>
      </trkpt>
      <trkpt lat="46.17201" lon="3.44788">
        <ele>372</ele>
        <time>2018-01-28T10:07:34Z</time>
      </trkpt>
      <trkpt lat="46.17217" lon="3.44806">
        <ele>371</ele>
        <time>2018-01-28T10:07:42Z</time>
      </trkpt>
      <trkpt lat="46.17234" lon="3.44816">
        <ele>371</ele>
        <time>2018-01-28T10:07:49Z</time>
      </trkpt>
      <trkpt lat="46.17253" lon="3.44823">
        <ele>370</ele>
        <time>2018-01-28T10:07:56Z</time>
      </trkpt>
      <trkpt lat="46.17273" lon="3.44829">
        <ele>369</ele>
        <time>2018-01-28T10:08:02Z</time>
      </trkpt>
      <trkpt lat="46.17291" lon="3.44831">
        <ele>369</ele>
        <time>2018-01-28T10:08:08Z</time>
      </trkpt>
      <trkpt lat="46.17309" lon="3.44829">
        <ele>367</ele>
        <time>2018-01-28T10:08:59Z</time>
      </trkpt>
      <trkpt lat="46.17328" lon="3.44827">
        <ele>364</ele>
        <time>2018-01-28T10:09:07Z</time>
      </trkpt>
      <trkpt lat="46.17347" lon="3.44821">
        <ele>361</ele>
        <time>2018-01-28T10:09:14Z</time>
      </trkpt>
      <trkpt lat="46.17365" lon="3.44808">
        <ele>360</ele>
        <time>2018-01-28T10:09:21Z</time>
      </trkpt>
      <trkpt lat="46.17381" lon="3.44793">
        <ele>359</ele>
        <time>2018-01-28T10:09:28Z</time>
      </trkpt>
      <trkpt lat="46.17397" lon="3.44773">
        <ele>359</ele>
        <time>2018-01-28T10:09:35Z</time>
      </trkpt>
      <trkpt lat="46.17411" lon="3.44756">
        <ele>358</ele>
        <time>2018-01-28T10:09:41Z</time>
      </trkpt>
      <trkpt lat="46.17426" lon="3.44739">
        <ele>357</ele>
        <time>2018-01-28T10:09:47Z</time>
      </trkpt>
      <trkpt lat="46.17444" lon="3.44726">
        <ele>357</ele>
        <time>2018-01-28T10:09:52Z</time>
      </trkpt>
      <trkpt lat="46.17465" lon="3.44718">
        <ele>356</ele>
        <time>2018-01-28T10:09:58Z</time>
      </trkpt>
      <trkpt lat="46.17483" lon="3.44713">
        <ele>355</ele>
        <time>2018-01-28T10:10:04Z</time>
      </trkpt>
      <trkpt lat="46.17502" lon="3.44707">
        <ele>350</ele>
        <time>2018-01-28T10:10:11Z</time>
      </trkpt>
      <trkpt lat="46.1752" lon="3.44698">
        <ele>350</ele>
        <time>2018-01-28T10:10:19Z</time>
      </trkpt>
      <trkpt lat="46.17539" lon="3.44688">
        <ele>350</ele>
        <time>2018-01-28T10:10:27Z</time>
      </trkpt>
      <trkpt lat="46.17558" lon="3.44683">
        <ele>349</ele>
        <time>2018-01-28T10:10:34Z</time>
      </trkpt>
      <trkpt lat="46.17576" lon="3.44681">
        <ele>350</ele>
        <time>2018-01-28T10:10:41Z</time>
      </trkpt>
      <trkpt lat="46.17596" lon="3.44675">
        <ele>345</ele>
        <time>2018-01-28T10:10:49Z</time>
      </trkpt>
      <trkpt lat="46.17615" lon="3.44666">
        <ele>346</ele>
        <time>2018-01-28T10:10:57Z</time>
      </trkpt>
      <trkpt lat="46.17635" lon="3.44655">
        <ele>343</ele>
        <time>2018-01-28T10:11:04Z</time>
      </trkpt>
      <trkpt lat="46.17655" lon="3.44666">
        <ele>339</ele>
        <time>2018-01-28T10:11:11Z</time>
      </trkpt>
      <trkpt lat="46.17671" lon="3.44679">
        <ele>332</ele>
        <time>2018-01-28T10:11:17Z</time>
      </trkpt>
      <trkpt lat="46.17688" lon="3.44694">
        <ele>329</ele>
        <time>2018-01-28T10:11:23Z</time>
      </trkpt>
      <trkpt lat="46.17705" lon="3.44709">
        <ele>327</ele>
        <time>2018-01-28T10:11:29Z</time>
      </trkpt>
      <trkpt lat="46.17722" lon="3.44718">
        <ele>326</ele>
        <time>2018-01-28T10:11:35Z</time>
      </trkpt>
      <trkpt lat="46.17738" lon="3.44705">
        <ele>326</ele>
        <time>2018-01-28T10:11:43Z</time>
      </trkpt>
      <trkpt lat="46.17753" lon="3.44688">
        <ele>323</ele>
        <time>2018-01-28T10:11:50Z</time>
      </trkpt>
      <trkpt lat="46.17773" lon="3.44688">
        <ele>322</ele>
        <time>2018-01-28T10:11:57Z</time>
      </trkpt>
      <trkpt lat="46.1779" lon="3.44703">
        <ele>321</ele>
        <time>2018-01-28T10:12:04Z</time>
      </trkpt>
      <trkpt lat="46.17807" lon="3.44711">
        <ele>321</ele>
        <time>2018-01-28T10:12:10Z</time>
      </trkpt>
      <trkpt lat="46.17824" lon="3.44722">
        <ele>320</ele>
        <time>2018-01-28T10:12:17Z</time>
      </trkpt>
      <trkpt lat="46.17834" lon="3.44745">
        <ele>320</ele>
        <time>2018-01-28T10:12:25Z</time>
      </trkpt>
      <trkpt lat="46.17832" lon="3.44773">
        <ele>320</ele>
        <time>2018-01-28T10:12:33Z</time>
      </trkpt>
      <trkpt lat="46.17817" lon="3.44793">
        <ele>321</ele>
        <time>2018-01-28T10:12:42Z</time>
      </trkpt>
      <trkpt lat="46.17798" lon="3.44797">
        <ele>321</ele>
        <time>2018-01-28T10:12:49Z</time>
      </trkpt>
      <trkpt lat="46.1778" lon="3.44806">
        <ele>321</ele>
        <time>2018-01-28T10:12:56Z</time>
      </trkpt>
      <trkpt lat="46.1776" lon="3.44812">
        <ele>322</ele>
        <time>2018-01-28T10:13:03Z</time>
      </trkpt>
      <trkpt lat="46.17743" lon="3.44821">
        <ele>323</ele>
        <time>2018-01-28T10:13:11Z</time>
      </trkpt>
      <trkpt lat="46.17725" lon="3.44833">
        <ele>321</ele>
        <time>2018-01-28T10:13:20Z</time>
      </trkpt>
      <trkpt lat="46.17707" lon="3.4484">
        <ele>320</ele>
        <time>2018-01-28T10:13:28Z</time>
      </trkpt>
      <trkpt lat="46.17689" lon="3.44848">
        <ele>320</ele>
        <time>2018-01-28T10:13:36Z</time>
      </trkpt>
      <trkpt lat="46.17674" lon="3.44863">
        <ele>319</ele>
        <time>2018-01-28T10:13:43Z</time>
      </trkpt>
      <trkpt lat="46.17657" lon="3.44878">
        <ele>317</ele>
        <time>2018-01-28T10:13:51Z</time>
      </trkpt>
      <trkpt lat="46.17642" lon="3.44896">
        <ele>317</ele>
        <time>2018-01-28T10:13:58Z</time>
      </trkpt>
      <trkpt lat="46.17627" lon="3.44915">
        <ele>316</ele>
        <time>2018-01-28T10:14:05Z</time>
      </trkpt>
      <trkpt lat="46.17614" lon="3.44934">
        <ele>312</ele>
        <time>2018-01-28T10:14:11Z</time>
      </trkpt>
      <trkpt lat="46.17603" lon="3.44958">
        <ele>312</ele>
        <time>2018-01-28T10:14:17Z</time>
      </trkpt>
      <trkpt lat="46.17591" lon="3.44979">
        <ele>313</ele>
        <time>2018-01-28T10:14:23Z</time>
      </trkpt>
      <trkpt lat="46.17584" lon="3.45003">
        <ele>314</ele>
        <time>2018-01-28T10:14:29Z</time>
      </trkpt>
      <trkpt lat="46.17576" lon="3.45029">
        <ele>318</ele>
        <time>2018-01-28T10:14:36Z</time>
      </trkpt>
      <trkpt lat="46.17567" lon="3.45054">
        <ele>318</ele>
        <time>2018-01-28T10:14:45Z</time>
      </trkpt>
      <trkpt lat="46.17553" lon="3.45072">
        <ele>319</ele>
        <time>2018-01-28T10:14:54Z</time>
      </trkpt>
      <trkpt lat="46.17539" lon="3.45089">
        <ele>319</ele>
        <time>2018-01-28T10:15:03Z</time>
      </trkpt>
      <trkpt lat="46.1753" lon="3.45112">
        <ele>319</ele>
        <time>2018-01-28T10:15:12Z</time>
      </trkpt>
      <trkpt lat="46.17515" lon="3.4513">
        <ele>320</ele>
        <time>2018-01-28T10:15:22Z</time>
      </trkpt>
      <trkpt lat="46.17498" lon="3.45145">
        <ele>321</ele>
        <time>2018-01-28T10:15:35Z</time>
      </trkpt>
      <trkpt lat="46.17482" lon="3.45157">
        <ele>321</ele>
        <time>2018-01-28T10:15:42Z</time>
      </trkpt>
      <trkpt lat="46.17466" lon="3.45177">
        <ele>319</ele>
        <time>2018-01-28T10:15:49Z</time>
      </trkpt>
      <trkpt lat="46.1745" lon="3.45194">
        <ele>319</ele>
        <time>2018-01-28T10:15:56Z</time>
      </trkpt>
      <trkpt lat="46.17431" lon="3.45187">
        <ele>318</ele>
        <time>2018-01-28T10:16:05Z</time>
      </trkpt>
      <trkpt lat="46.17424" lon="3.45162">
        <ele>317</ele>
        <time>2018-01-28T10:16:15Z</time>
      </trkpt>
      <trkpt lat="46.1742" lon="3.45136">
        <ele>319</ele>
        <time>2018-01-28T10:16:23Z</time>
      </trkpt>
      <trkpt lat="46.17416" lon="3.45108">
        <ele>318</ele>
        <time>2018-01-28T10:16:32Z</time>
      </trkpt>
      <trkpt lat="46.17415" lon="3.4508">
        <ele>321</ele>
        <time>2018-01-28T10:16:41Z</time>
      </trkpt>
      <trkpt lat="46.17414" lon="3.4505">
        <ele>321</ele>
        <time>2018-01-28T10:16:51Z</time>
      </trkpt>
      <trkpt lat="46.1741" lon="3.45024">
        <ele>322</ele>
        <time>2018-01-28T10:17:00Z</time>
      </trkpt>
      <trkpt lat="46.17394" lon="3.45009">
        <ele>322</ele>
        <time>2018-01-28T10:17:12Z</time>
      </trkpt>
      <trkpt lat="46.17375" lon="3.45014">
        <ele>322</ele>
        <time>2018-01-28T10:17:20Z</time>
      </trkpt>
      <trkpt lat="46.17354" lon="3.45016">
        <ele>322</ele>
        <time>2018-01-28T10:17:28Z</time>
      </trkpt>
      <trkpt lat="46.17335" lon="3.45016">
        <ele>322</ele>
        <time>2018-01-28T10:17:36Z</time>
      </trkpt>
      <trkpt lat="46.17316" lon="3.45016">
        <ele>322</ele>
        <time>2018-01-28T10:17:44Z</time>
      </trkpt>
      <trkpt lat="46.17297" lon="3.4502">
        <ele>322</ele>
        <time>2018-01-28T10:17:53Z</time>
      </trkpt>
      <trkpt lat="46.17277" lon="3.45024">
        <ele>323</ele>
        <time>2018-01-28T10:18:02Z</time>
      </trkpt>
      <trkpt lat="46.17259" lon="3.45027">
        <ele>323</ele>
        <time>2018-01-28T10:18:09Z</time>
      </trkpt>
      <trkpt lat="46.17239" lon="3.45024">
        <ele>326</ele>
        <time>2018-01-28T10:18:16Z</time>
      </trkpt>
      <trkpt lat="46.17222" lon="3.45014">
        <ele>327</ele>
        <time>2018-01-28T10:18:23Z</time>
      </trkpt>
      <trkpt lat="46.17208" lon="3.44994">
        <ele>334</ele>
        <time>2018-01-28T10:18:29Z</time>
      </trkpt>
      <trkpt lat="46.17195" lon="3.44973">
        <ele>335</ele>
        <time>2018-01-28T10:18:35Z</time>
      </trkpt>
      <trkpt lat="46.1718" lon="3.44958">
        <ele>336</ele>
        <time>2018-01-28T10:18:42Z</time>
      </trkpt>
      <trkpt lat="46.17163" lon="3.44945">
        <ele>339</ele>
        <time>2018-01-28T10:18:50Z</time>
      </trkpt>
      <trkpt lat="46.17146" lon="3.44934">
        <ele>340</ele>
        <time>2018-01-28T10:19:06Z</time>
      </trkpt>
      <trkpt lat="46.17128" lon="3.44945">
        <ele>341</ele>
        <time>2018-01-28T10:19:15Z</time>
      </trkpt>
      <trkpt lat="46.17113" lon="3.44964">
        <ele>341</ele>
        <time>2018-01-28T10:19:22Z</time>
      </trkpt>
      <trkpt lat="46.171" lon="3.44986">
        <ele>341</ele>
        <time>2018-01-28T10:19:30Z</time>
      </trkpt>
      <trkpt lat="46.17087" lon="3.44966">
        <ele>342</ele>
        <time>2018-01-28T10:19:52Z</time>
      </trkpt>
      <trkpt lat="46.17087" lon="3.44939">
        <ele>345</ele>
        <time>2018-01-28T10:20:03Z</time>
      </trkpt>
      <trkpt lat="46.17084" lon="3.44913">
        <ele>351</ele>
        <time>2018-01-28T10:20:16Z</time>
      </trkpt>
      <trkpt lat="46.17084" lon="3.44885">
        <ele>354</ele>
        <time>2018-01-28T10:20:28Z</time>
      </trkpt>
      <trkpt lat="46.17082" lon="3.44857">
        <ele>364</ele>
        <time>2018-01-28T10:20:40Z</time>
      </trkpt>
      <trkpt lat="46.17074" lon="3.44831">
        <ele>368</ele>
        <time>2018-01-28T10:20:51Z</time>
      </trkpt>
      <trkpt lat="46.17063" lon="3.44808">
        <ele>373</ele>
        <time>2018-01-28T10:21:03Z</time>
      </trkpt>
      <trkpt lat="46.17056" lon="3.44784">
        <ele>375</ele>
        <time>2018-01-28T10:21:15Z</time>
      </trkpt>
      <trkpt lat="46.17052" lon="3.44756">
        <ele>376</ele>
        <time>2018-01-28T10:21:25Z</time>
      </trkpt>
      <trkpt lat="46.17039" lon="3.44737">
        <ele>381</ele>
        <time>2018-01-28T10:21:37Z</time>
      </trkpt>
      <trkpt lat="46.17021" lon="3.44733">
        <ele>381</ele>
        <time>2018-01-28T10:21:45Z</time>
      </trkpt>
      <trkpt lat="46.17001" lon="3.44733">
        <ele>380</ele>
        <time>2018-01-28T10:21:53Z</time>
      </trkpt>
      <trkpt lat="46.16983" lon="3.44743">
        <ele>378</ele>
        <time>2018-01-28T10:22:00Z</time>
      </trkpt>
      <trkpt lat="46.16971" lon="3.44765">
        <ele>379</ele>
        <time>2018-01-28T10:22:06Z</time>
      </trkpt>
      <trkpt lat="46.16962" lon="3.44788">
        <ele>380</ele>
        <time>2018-01-28T10:22:13Z</time>
      </trkpt>
      <trkpt lat="46.16954" lon="3.44812">
        <ele>380</ele>
        <time>2018-01-28T10:22:20Z</time>
      </trkpt>
      <trkpt lat="46.16945" lon="3.44836">
        <ele>381</ele>
        <time>2018-01-28T10:22:27Z</time>
      </trkpt>
      <trkpt lat="46.16936" lon="3.44859">
        <ele>381</ele>
        <time>2018-01-28T10:22:35Z</time>
      </trkpt>
      <trkpt lat="46.16923" lon="3.44881">
        <ele>382</ele>
        <time>2018-01-28T10:22:44Z</time>
      </trkpt>
      <trkpt lat="46.16912" lon="3.44906">
        <ele>386</ele>
        <time>2018-01-28T10:22:53Z</time>
      </trkpt>
      <trkpt lat="46.169" lon="3.44928">
        <ele>386</ele>
        <time>2018-01-28T10:23:01Z</time>
      </trkpt>
      <trkpt lat="46.16892" lon="3.44951">
        <ele>386</ele>
        <time>2018-01-28T10:23:09Z</time>
      </trkpt>
      <trkpt lat="46.16882" lon="3.44975">
        <ele>386</ele>
        <time>2018-01-28T10:23:17Z</time>
      </trkpt>
      <trkpt lat="46.16868" lon="3.44996">
        <ele>386</ele>
        <time>2018-01-28T10:23:25Z</time>
      </trkpt>
      <trkpt lat="46.16854" lon="3.45016">
        <ele>383</ele>
        <time>2018-01-28T10:23:33Z</time>
      </trkpt>
      <trkpt lat="46.16839" lon="3.45033">
        <ele>382</ele>
        <time>2018-01-28T10:23:40Z</time>
      </trkpt>
      <trkpt lat="46.16822" lon="3.45044">
        <ele>381</ele>
        <time>2018-01-28T10:23:48Z</time>
      </trkpt>
      <trkpt lat="46.16804" lon="3.45048">
        <ele>380</ele>
        <time>2018-01-28T10:23:56Z</time>
      </trkpt>
      <trkpt lat="46.16783" lon="3.4505">
        <ele>380</ele>
        <time>2018-01-28T10:24:03Z</time>
      </trkpt>
      <trkpt lat="46.16764" lon="3.4505">
        <ele>379</ele>
        <time>2018-01-28T10:24:09Z</time>
      </trkpt>
      <trkpt lat="46.16745" lon="3.4505">
        <ele>374</ele>
        <time>2018-01-28T10:24:15Z</time>
      </trkpt>
      <trkpt lat="46.16724" lon="3.4505">
        <ele>374</ele>
        <time>2018-01-28T10:24:22Z</time>
      </trkpt>
      <trkpt lat="46.16704" lon="3.45048">
        <ele>374</ele>
        <time>2018-01-28T10:24:29Z</time>
      </trkpt>
      <trkpt lat="46.16686" lon="3.45048">
        <ele>373</ele>
        <time>2018-01-28T10:24:36Z</time>
      </trkpt>
      <trkpt lat="46.16669" lon="3.45039">
        <ele>373</ele>
        <time>2018-01-28T10:24:43Z</time>
      </trkpt>
      <trkpt lat="46.16656" lon="3.45018">
        <ele>371</ele>
        <time>2018-01-28T10:24:50Z</time>
      </trkpt>
      <trkpt lat="46.16644" lon="3.44996">
        <ele>371</ele>
        <time>2018-01-28T10:24:57Z</time>
      </trkpt>
      <trkpt lat="46.16629" lon="3.44979">
        <ele>371</ele>
        <time>2018-01-28T10:25:04Z</time>
      </trkpt>
      <trkpt lat="46.1661" lon="3.44971">
        <ele>371</ele>
        <time>2018-01-28T10:25:11Z</time>
      </trkpt>
      <trkpt lat="46.16589" lon="3.44966">
        <ele>371</ele>
        <time>2018-01-28T10:25:18Z</time>
      </trkpt>
      <trkpt lat="46.16571" lon="3.44966">
        <ele>374</ele>
        <time>2018-01-28T10:25:25Z</time>
      </trkpt>
      <trkpt lat="46.16553" lon="3.44969">
        <ele>374</ele>
        <time>2018-01-28T10:25:32Z</time>
      </trkpt>
      <trkpt lat="46.16533" lon="3.44975">
        <ele>375</ele>
        <time>2018-01-28T10:25:40Z</time>
      </trkpt>
      <trkpt lat="46.16516" lon="3.44988">
        <ele>376</ele>
        <time>2018-01-28T10:25:48Z</time>
      </trkpt>
      <trkpt lat="46.16502" lon="3.45005">
        <ele>376</ele>
        <time>2018-01-28T10:25:55Z</time>
      </trkpt>
      <trkpt lat="46.16486" lon="3.4502">
        <ele>377</ele>
        <time>2018-01-28T10:26:02Z</time>
      </trkpt>
      <trkpt lat="46.16467" lon="3.45033">
        <ele>377</ele>
        <time>2018-01-28T10:26:10Z</time>
      </trkpt>
      <trkpt lat="46.16449" lon="3.45044">
        <ele>378</ele>
        <time>2018-01-28T10:26:17Z</time>
      </trkpt>
      <trkpt lat="46.1643" lon="3.4505">
        <ele>378</ele>
        <time>2018-01-28T10:26:24Z</time>
      </trkpt>
      <trkpt lat="46.16412" lon="3.45059">
        <ele>380</ele>
        <time>2018-01-28T10:26:39Z</time>
      </trkpt>
      <trkpt lat="46.16394" lon="3.45067">
        <ele>380</ele>
        <time>2018-01-28T10:26:46Z</time>
      </trkpt>
      <trkpt lat="46.16375" lon="3.45074">
        <ele>381</ele>
        <time>2018-01-28T10:26:54Z</time>
      </trkpt>
      <trkpt lat="46.16355" lon="3.45078">
        <ele>381</ele>
        <time>2018-01-28T10:27:02Z</time>
      </trkpt>
      <trkpt lat="46.16337" lon="3.45082">
        <ele>381</ele>
        <time>2018-01-28T10:27:10Z</time>
      </trkpt>
      <trkpt lat="46.16318" lon="3.45084">
        <ele>379</ele>
        <time>2018-01-28T10:27:17Z</time>
      </trkpt>
      <trkpt lat="46.16297" lon="3.45084">
        <ele>378</ele>
        <time>2018-01-28T10:27:24Z</time>
      </trkpt>
      <trkpt lat="46.16278" lon="3.45084">
        <ele>378</ele>
        <time>2018-01-28T10:27:30Z</time>
      </trkpt>
      <trkpt lat="46.16258" lon="3.45089">
        <ele>378</ele>
        <time>2018-01-28T10:27:36Z</time>
      </trkpt>
      <trkpt lat="46.16239" lon="3.45095">
        <ele>379</ele>
        <time>2018-01-28T10:27:42Z</time>
      </trkpt>
      <trkpt lat="46.16221" lon="3.45104">
        <ele>380</ele>
        <time>2018-01-28T10:27:48Z</time>
      </trkpt>
      <trkpt lat="46.16203" lon="3.45112">
        <ele>380</ele>
        <time>2018-01-28T10:27:54Z</time>
      </trkpt>
      <trkpt lat="46.16185" lon="3.45121">
        <ele>381</ele>
        <time>2018-01-28T10:28:00Z</time>
      </trkpt>
      <trkpt lat="46.16165" lon="3.45132">
        <ele>385</ele>
        <time>2018-01-28T10:28:06Z</time>
      </trkpt>
      <trkpt lat="46.16146" lon="3.45142">
        <ele>385</ele>
        <time>2018-01-28T10:28:13Z</time>
      </trkpt>
      <trkpt lat="46.16128" lon="3.45153">
        <ele>386</ele>
        <time>2018-01-28T10:28:20Z</time>
      </trkpt>
      <trkpt lat="46.16115" lon="3.45175">
        <ele>385</ele>
        <time>2018-01-28T10:28:28Z</time>
      </trkpt>
      <trkpt lat="46.16105" lon="3.452">
        <ele>385</ele>
        <time>2018-01-28T10:28:35Z</time>
      </trkpt>
      <trkpt lat="46.16099" lon="3.45226">
        <ele>384</ele>
        <time>2018-01-28T10:28:42Z</time>
      </trkpt>
      <trkpt lat="46.16091" lon="3.45254">
        <ele>384</ele>
        <time>2018-01-28T10:28:49Z</time>
      </trkpt>
      <trkpt lat="46.16087" lon="3.4528">
        <ele>383</ele>
        <time>2018-01-28T10:28:56Z</time>
      </trkpt>
      <trkpt lat="46.16088" lon="3.4531">
        <ele>382</ele>
        <time>2018-01-28T10:29:03Z</time>
      </trkpt>
      <trkpt lat="46.16089" lon="3.45338">
        <ele>382</ele>
        <time>2018-01-28T10:29:10Z</time>
      </trkpt>
      <trkpt lat="46.16091" lon="3.4537">
        <ele>382</ele>
        <time>2018-01-28T10:29:17Z</time>
      </trkpt>
      <trkpt lat="46.16095" lon="3.454">
        <ele>382</ele>
        <time>2018-01-28T10:29:24Z</time>
      </trkpt>
      <trkpt lat="46.16097" lon="3.45428">
        <ele>383</ele>
        <time>2018-01-28T10:29:31Z</time>
      </trkpt>
      <trkpt lat="46.16099" lon="3.45456">
        <ele>383</ele>
        <time>2018-01-28T10:29:38Z</time>
      </trkpt>
      <trkpt lat="46.16099" lon="3.45486">
        <ele>383</ele>
        <time>2018-01-28T10:29:47Z</time>
      </trkpt>
      <trkpt lat="46.16098" lon="3.45514">
        <ele>381</ele>
        <time>2018-01-28T10:29:56Z</time>
      </trkpt>
      <trkpt lat="46.16098" lon="3.45542">
        <ele>379</ele>
        <time>2018-01-28T10:30:04Z</time>
      </trkpt>
      <trkpt lat="46.16105" lon="3.45567">
        <ele>377</ele>
        <time>2018-01-28T10:30:10Z</time>
      </trkpt>
      <trkpt lat="46.16118" lon="3.45587">
        <ele>369</ele>
        <time>2018-01-28T10:30:16Z</time>
      </trkpt>
      <trkpt lat="46.16136" lon="3.45595">
        <ele>371</ele>
        <time>2018-01-28T10:30:22Z</time>
      </trkpt>
      <trkpt lat="46.16155" lon="3.45608">
        <ele>372</ele>
        <time>2018-01-28T10:30:29Z</time>
      </trkpt>
      <trkpt lat="46.16172" lon="3.45621">
        <ele>370</ele>
        <time>2018-01-28T10:30:37Z</time>
      </trkpt>
      <trkpt lat="46.1619" lon="3.4563">
        <ele>369</ele>
        <time>2018-01-28T10:30:46Z</time>
      </trkpt>
      <trkpt lat="46.16208" lon="3.45627">
        <ele>368</ele>
        <time>2018-01-28T10:30:55Z</time>
      </trkpt>
      <trkpt lat="46.16224" lon="3.45612">
        <ele>368</ele>
        <time>2018-01-28T10:31:04Z</time>
      </trkpt>
      <trkpt lat="46.16238" lon="3.45595">
        <ele>369</ele>
        <time>2018-01-28T10:31:13Z</time>
      </trkpt>
      <trkpt lat="46.16244" lon="3.45569">
        <ele>375</ele>
        <time>2018-01-28T10:32:22Z</time>
      </trkpt>
      <trkpt lat="46.16258" lon="3.45552">
        <ele>368</ele>
        <time>2018-01-28T10:32:41Z</time>
      </trkpt>
      <trkpt lat="46.16262" lon="3.45527">
        <ele>370</ele>
        <time>2018-01-28T10:32:49Z</time>
      </trkpt>
      <trkpt lat="46.16265" lon="3.45499">
        <ele>376</ele>
        <time>2018-01-28T10:32:55Z</time>
      </trkpt>
      <trkpt lat="46.16268" lon="3.45473">
        <ele>374</ele>
        <time>2018-01-28T10:33:00Z</time>
      </trkpt>
      <trkpt lat="46.16272" lon="3.45443">
        <ele>374</ele>
        <time>2018-01-28T10:33:06Z</time>
      </trkpt>
      <trkpt lat="46.16276" lon="3.45417">
        <ele>374</ele>
        <time>2018-01-28T10:33:11Z</time>
      </trkpt>
      <trkpt lat="46.16277" lon="3.45387">
        <ele>372</ele>
        <time>2018-01-28T10:33:17Z</time>
      </trkpt>
      <trkpt lat="46.16275" lon="3.45359">
        <ele>371</ele>
        <time>2018-01-28T10:33:23Z</time>
      </trkpt>
      <trkpt lat="46.16279" lon="3.45333">
        <ele>369</ele>
        <time>2018-01-28T10:33:31Z</time>
      </trkpt>
      <trkpt lat="46.16296" lon="3.45325">
        <ele>367</ele>
        <time>2018-01-28T10:33:37Z</time>
      </trkpt>
      <trkpt lat="46.16315" lon="3.45331">
        <ele>364</ele>
        <time>2018-01-28T10:33:45Z</time>
      </trkpt>
      <trkpt lat="46.16331" lon="3.45348">
        <ele>364</ele>
        <time>2018-01-28T10:33:54Z</time>
      </trkpt>
      <trkpt lat="46.16341" lon="3.45372">
        <ele>356</ele>
        <time>2018-01-28T10:34:02Z</time>
      </trkpt>
      <trkpt lat="46.16351" lon="3.45398">
        <ele>356</ele>
        <time>2018-01-28T10:34:11Z</time>
      </trkpt>
      <trkpt lat="46.16359" lon="3.45421">
        <ele>354</ele>
        <time>2018-01-28T10:34:18Z</time>
      </trkpt>
      <trkpt lat="46.16366" lon="3.45445">
        <ele>351</ele>
        <time>2018-01-28T10:34:24Z</time>
      </trkpt>
      <trkpt lat="46.16376" lon="3.45471">
        <ele>349</ele>
        <time>2018-01-28T10:34:30Z</time>
      </trkpt>
      <trkpt lat="46.16384" lon="3.45496">
        <ele>346</ele>
        <time>2018-01-28T10:34:35Z</time>
      </trkpt>
      <trkpt lat="46.16392" lon="3.45527">
        <ele>342</ele>
        <time>2018-01-28T10:34:40Z</time>
      </trkpt>
      <trkpt lat="46.16395" lon="3.45557">
        <ele>341</ele>
        <time>2018-01-28T10:34:45Z</time>
      </trkpt>
      <trkpt lat="46.16391" lon="3.45584">
        <ele>336</ele>
        <time>2018-01-28T10:34:50Z</time>
      </trkpt>
      <trkpt lat="46.16379" lon="3.45608">
        <ele>337</ele>
        <time>2018-01-28T10:34:57Z</time>
      </trkpt>
      <trkpt lat="46.16363" lon="3.45625">
        <ele>338</ele>
        <time>2018-01-28T10:35:04Z</time>
      </trkpt>
      <trkpt lat="46.16348" lon="3.45647">
        <ele>338</ele>
        <time>2018-01-28T10:35:11Z</time>
      </trkpt>
      <trkpt lat="46.16336" lon="3.45668">
        <ele>339</ele>
        <time>2018-01-28T10:35:17Z</time>
      </trkpt>
      <trkpt lat="46.16325" lon="3.4569">
        <ele>342</ele>
        <time>2018-01-28T10:35:22Z</time>
      </trkpt>
      <trkpt lat="46.16314" lon="3.45711">
        <ele>341</ele>
        <time>2018-01-28T10:35:28Z</time>
      </trkpt>
      <trkpt lat="46.16301" lon="3.45733">
        <ele>341</ele>
        <time>2018-01-28T10:35:34Z</time>
      </trkpt>
      <trkpt lat="46.1629" lon="3.45754">
        <ele>337</ele>
        <time>2018-01-28T10:35:40Z</time>
      </trkpt>
      <trkpt lat="46.16281" lon="3.4578">
        <ele>337</ele>
        <time>2018-01-28T10:35:48Z</time>
      </trkpt>
      <trkpt lat="46.16264" lon="3.45788">
        <ele>337</ele>
        <time>2018-01-28T10:36:00Z</time>
      </trkpt>
      <trkpt lat="46.16246" lon="3.45778">
        <ele>343</ele>
        <time>2018-01-28T10:36:09Z</time>
      </trkpt>
      <trkpt lat="46.16229" lon="3.45765">
        <ele>343</ele>
        <time>2018-01-28T10:36:18Z</time>
      </trkpt>
      <trkpt lat="46.16213" lon="3.45752">
        <ele>344</ele>
        <time>2018-01-28T10:36:28Z</time>
      </trkpt>
      <trkpt lat="46.16195" lon="3.45741">
        <ele>352</ele>
        <time>2018-01-28T10:36:38Z</time>
      </trkpt>
      <trkpt lat="46.16179" lon="3.45728">
        <ele>353</ele>
        <time>2018-01-28T10:36:48Z</time>
      </trkpt>
      <trkpt lat="46.16162" lon="3.45715">
        <ele>352</ele>
        <time>2018-01-28T10:36:58Z</time>
      </trkpt>
      <trkpt lat="46.16148" lon="3.45696">
        <ele>354</ele>
        <time>2018-01-28T10:37:07Z</time>
      </trkpt>
      <trkpt lat="46.16135" lon="3.45672">
        <ele>355</ele>
        <time>2018-01-28T10:37:15Z</time>
      </trkpt>
      <trkpt lat="46.16121" lon="3.45653">
        <ele>363</ele>
        <time>2018-01-28T10:37:23Z</time>
      </trkpt>
      <trkpt lat="46.16104" lon="3.45638">
        <ele>363</ele>
        <time>2018-01-28T10:37:32Z</time>
      </trkpt>
      <trkpt lat="46.16086" lon="3.45627">
        <ele>364</ele>
        <time>2018-01-28T10:37:44Z</time>
      </trkpt>
      <trkpt lat="46.16068" lon="3.45623">
        <ele>355</ele>
        <time>2018-01-28T10:37:52Z</time>
      </trkpt>
      <trkpt lat="46.16046" lon="3.45619">
        <ele>353</ele>
        <time>2018-01-28T10:37:58Z</time>
      </trkpt>
      <trkpt lat="46.16026" lon="3.45619">
        <ele>351</ele>
        <time>2018-01-28T10:38:04Z</time>
      </trkpt>
      <trkpt lat="46.16008" lon="3.45619">
        <ele>350</ele>
        <time>2018-01-28T10:38:10Z</time>
      </trkpt>
      <trkpt lat="46.1599" lon="3.45606">
        <ele>345</ele>
        <time>2018-01-28T10:38:17Z</time>
      </trkpt>
      <trkpt lat="46.15977" lon="3.45587">
        <ele>346</ele>
        <time>2018-01-28T10:38:25Z</time>
      </trkpt>
      <trkpt lat="46.15964" lon="3.45567">
        <ele>351</ele>
        <time>2018-01-28T10:38:33Z</time>
      </trkpt>
      <trkpt lat="46.15947" lon="3.45554">
        <ele>351</ele>
        <time>2018-01-28T10:38:44Z</time>
      </trkpt>
      <trkpt lat="46.15935" lon="3.45533">
        <ele>353</ele>
        <time>2018-01-28T10:39:06Z</time>
      </trkpt>
      <trkpt lat="46.15924" lon="3.45511">
        <ele>354</ele>
        <time>2018-01-28T10:39:30Z</time>
      </trkpt>
      <trkpt lat="46.15913" lon="3.4549">
        <ele>359</ele>
        <time>2018-01-28T10:40:01Z</time>
      </trkpt>
      <trkpt lat="46.15909" lon="3.45464">
        <ele>362</ele>
        <time>2018-01-28T10:40:21Z</time>
      </trkpt>
      <trkpt lat="46.15907" lon="3.45436">
        <ele>365</ele>
        <time>2018-01-28T10:40:34Z</time>
      </trkpt>
      <trkpt lat="46.1591" lon="3.45411">
        <ele>369</ele>
        <time>2018-01-28T10:40:41Z</time>
      </trkpt>
      <trkpt lat="46.15913" lon="3.45385">
        <ele>374</ele>
        <time>2018-01-28T10:40:49Z</time>
      </trkpt>
      <trkpt lat="46.15913" lon="3.45357">
        <ele>376</ele>
        <time>2018-01-28T10:40:59Z</time>
      </trkpt>
      <trkpt lat="46.15912" lon="3.45329">
        <ele>378</ele>
        <time>2018-01-28T10:41:09Z</time>
      </trkpt>
      <trkpt lat="46.15913" lon="3.45299">
        <ele>384</ele>
        <time>2018-01-28T10:41:19Z</time>
      </trkpt>
      <trkpt lat="46.15911" lon="3.45271">
        <ele>386</ele>
        <time>2018-01-28T10:41:30Z</time>
      </trkpt>
      <trkpt lat="46.159" lon="3.45248">
        <ele>390</ele>
        <time>2018-01-28T10:41:42Z</time>
      </trkpt>
      <trkpt lat="46.15885" lon="3.45228">
        <ele>391</ele>
        <time>2018-01-28T10:41:50Z</time>
      </trkpt>
      <trkpt lat="46.1587" lon="3.45209">
        <ele>392</ele>
        <time>2018-01-28T10:41:57Z</time>
      </trkpt>
      <trkpt lat="46.1586" lon="3.45187">
        <ele>393</ele>
        <time>2018-01-28T10:42:04Z</time>
      </trkpt>
      <trkpt lat="46.15851" lon="3.45164">
        <ele>395</ele>
        <time>2018-01-28T10:42:11Z</time>
      </trkpt>
      <trkpt lat="46.15841" lon="3.4514">
        <ele>396</ele>
        <time>2018-01-28T10:42:20Z</time>
      </trkpt>
      <trkpt lat="46.15838" lon="3.45115">
        <ele>396</ele>
        <time>2018-01-28T10:42:29Z</time>
      </trkpt>
      <trkpt lat="46.15846" lon="3.45091">
        <ele>397</ele>
        <time>2018-01-28T10:42:39Z</time>
      </trkpt>
      <trkpt lat="46.15827" lon="3.45082">
        <ele>395</ele>
        <time>2018-01-28T10:42:49Z</time>
      </trkpt>
      <trkpt lat="46.15808" lon="3.45089">
        <ele>393</ele>
        <time>2018-01-28T10:42:55Z</time>
      </trkpt>
      <trkpt lat="46.1579" lon="3.45097">
        <ele>392</ele>
        <time>2018-01-28T10:43:01Z</time>
      </trkpt>
      <trkpt lat="46.15772" lon="3.45104">
        <ele>391</ele>
        <time>2018-01-28T10:43:07Z</time>
      </trkpt>
      <trkpt lat="46.15751" lon="3.4511">
        <ele>390</ele>
        <time>2018-01-28T10:43:14Z</time>
      </trkpt>
      <trkpt lat="46.15731" lon="3.45117">
        <ele>385</ele>
        <time>2018-01-28T10:43:21Z</time>
      </trkpt>
      <trkpt lat="46.15712" lon="3.45123">
        <ele>384</ele>
        <time>2018-01-28T10:43:28Z</time>
      </trkpt>
      <trkpt lat="46.15691" lon="3.4513">
        <ele>383</ele>
        <time>2018-01-28T10:43:35Z</time>
      </trkpt>
      <trkpt lat="46.15672" lon="3.45138">
        <ele>383</ele>
        <time>2018-01-28T10:43:42Z</time>
      </trkpt>
      <trkpt lat="46.15657" lon="3.45153">
        <ele>380</ele>
        <time>2018-01-28T10:43:49Z</time>
      </trkpt>
      <trkpt lat="46.15643" lon="3.45172">
        <ele>379</ele>
        <time>2018-01-28T10:43:56Z</time>
      </trkpt>
      <trkpt lat="46.15629" lon="3.45192">
        <ele>378</ele>
        <time>2018-01-28T10:44:03Z</time>
      </trkpt>
      <trkpt lat="46.15618" lon="3.45213">
        <ele>378</ele>
        <time>2018-01-28T10:44:09Z</time>
      </trkpt>
      <trkpt lat="46.15605" lon="3.45235">
        <ele>377</ele>
        <time>2018-01-28T10:44:15Z</time>
      </trkpt>
      <trkpt lat="46.15595" lon="3.45258">
        <ele>373</ele>
        <time>2018-01-28T10:44:22Z</time>
      </trkpt>
      <trkpt lat="46.15588" lon="3.45284">
        <ele>372</ele>
        <time>2018-01-28T10:44:30Z</time>
      </trkpt>
      <trkpt lat="46.15581" lon="3.4531">
        <ele>369</ele>
        <time>2018-01-28T10:44:39Z</time>
      </trkpt>
      <trkpt lat="46.15569" lon="3.45333">
        <ele>368</ele>
        <time>2018-01-28T10:44:47Z</time>
      </trkpt>
      <trkpt lat="46.15557" lon="3.45355">
        <ele>361</ele>
        <time>2018-01-28T10:44:56Z</time>
      </trkpt>
      <trkpt lat="46.1555" lon="3.45378">
        <ele>359</ele>
        <time>2018-01-28T10:45:07Z</time>
      </trkpt>
      <trkpt lat="46.15553" lon="3.45406">
        <ele>357</ele>
        <time>2018-01-28T10:45:16Z</time>
      </trkpt>
      <trkpt lat="46.1556" lon="3.4543">
        <ele>349</ele>
        <time>2018-01-28T10:45:22Z</time>
      </trkpt>
      <trkpt lat="46.15572" lon="3.45454">
        <ele>347</ele>
        <time>2018-01-28T10:45:29Z</time>
      </trkpt>
      <trkpt lat="46.15584" lon="3.45475">
        <ele>346</ele>
        <time>2018-01-28T10:45:35Z</time>
      </trkpt>
      <trkpt lat="46.15594" lon="3.45499">
        <ele>343</ele>
        <time>2018-01-28T10:45:41Z</time>
      </trkpt>
      <trkpt lat="46.15599" lon="3.45524">
        <ele>337</ele>
        <time>2018-01-28T10:45:47Z</time>
      </trkpt>
      <trkpt lat="46.15593" lon="3.45552">
        <ele>335</ele>
        <time>2018-01-28T10:45:53Z</time>
      </trkpt>
      <trkpt lat="46.15582" lon="3.45574">
        <ele>333</ele>
        <time>2018-01-28T10:45:59Z</time>
      </trkpt>
      <trkpt lat="46.15575" lon="3.45604">
        <ele>331</ele>
        <time>2018-01-28T10:46:05Z</time>
      </trkpt>
      <trkpt lat="46.15569" lon="3.4563">
        <ele>330</ele>
        <time>2018-01-28T10:46:11Z</time>
      </trkpt>
      <trkpt lat="46.15572" lon="3.45657">
        <ele>329</ele>
        <time>2018-01-28T10:46:18Z</time>
      </trkpt>
      <trkpt lat="46.15582" lon="3.45681">
        <ele>327</ele>
        <time>2018-01-28T10:46:24Z</time>
      </trkpt>
      <trkpt lat="46.15591" lon="3.45707">
        <ele>324</ele>
        <time>2018-01-28T10:46:31Z</time>
      </trkpt>
      <trkpt lat="46.15603" lon="3.45728">
        <ele>323</ele>
        <time>2018-01-28T10:46:38Z</time>
      </trkpt>
      <trkpt lat="46.15611" lon="3.45752">
        <ele>320</ele>
        <time>2018-01-28T10:46:53Z</time>
      </trkpt>
      <trkpt lat="46.156" lon="3.45778">
        <ele>320</ele>
        <time>2018-01-28T10:47:05Z</time>
      </trkpt>
      <trkpt lat="46.15598" lon="3.45808">
        <ele>319</ele>
        <time>2018-01-28T10:47:11Z</time>
      </trkpt>
      <trkpt lat="46.15593" lon="3.45836">
        <ele>317</ele>
        <time>2018-01-28T10:47:16Z</time>
      </trkpt>
      <trkpt lat="46.15578" lon="3.45855">
        <ele>317</ele>
        <time>2018-01-28T10:47:23Z</time>
      </trkpt>
      <trkpt lat="46.1556" lon="3.45868">
        <ele>317</ele>
        <time>2018-01-28T10:47:31Z</time>
      </trkpt>
      <trkpt lat="46.15552" lon="3.45891">
        <ele>316</ele>
        <time>2018-01-28T10:47:39Z</time>
      </trkpt>
      <trkpt lat="46.15555" lon="3.45921">
        <ele>313</ele>
        <time>2018-01-28T10:47:46Z</time>
      </trkpt>
      <trkpt lat="46.15559" lon="3.45949">
        <ele>313</ele>
        <time>2018-01-28T10:47:53Z</time>
      </trkpt>
      <trkpt lat="46.15556" lon="3.45975">
        <ele>312</ele>
        <time>2018-01-28T10:47:59Z</time>
      </trkpt>
      <trkpt lat="46.15554" lon="3.46003">
        <ele>310</ele>
        <time>2018-01-28T10:48:06Z</time>
      </trkpt>
      <trkpt lat="46.15554" lon="3.46033">
        <ele>310</ele>
        <time>2018-01-28T10:48:13Z</time>
      </trkpt>
      <trkpt lat="46.15556" lon="3.46063">
        <ele>310</ele>
        <time>2018-01-28T10:48:20Z</time>
      </trkpt>
      <trkpt lat="46.15555" lon="3.46091">
        <ele>310</ele>
        <time>2018-01-28T10:48:27Z</time>
      </trkpt>
      <trkpt lat="46.15547" lon="3.46117">
        <ele>310</ele>
        <time>2018-01-28T10:48:34Z</time>
      </trkpt>
      <trkpt lat="46.15537" lon="3.46138">
        <ele>310</ele>
        <time>2018-01-28T10:48:40Z</time>
      </trkpt>
      <trkpt lat="46.15526" lon="3.46162">
        <ele>310</ele>
        <time>2018-01-28T10:48:46Z</time>
      </trkpt>
      <trkpt lat="46.15518" lon="3.46187">
        <ele>309</ele>
        <time>2018-01-28T10:48:52Z</time>
      </trkpt>
      <trkpt lat="46.15511" lon="3.46211">
        <ele>309</ele>
        <time>2018-01-28T10:48:58Z</time>
      </trkpt>
      <trkpt lat="46.15501" lon="3.46237">
        <ele>309</ele>
        <time>2018-01-28T10:49:06Z</time>
      </trkpt>
      <trkpt lat="46.15492" lon="3.46262">
        <ele>309</ele>
        <time>2018-01-28T10:49:15Z</time>
      </trkpt>
      <trkpt lat="46.15483" lon="3.46288">
        <ele>310</ele>
        <time>2018-01-28T10:49:24Z</time>
      </trkpt>
      <trkpt lat="46.15476" lon="3.46312">
        <ele>310</ele>
        <time>2018-01-28T10:49:32Z</time>
      </trkpt>
      <trkpt lat="46.15467" lon="3.46335">
        <ele>309</ele>
        <time>2018-01-28T10:49:39Z</time>
      </trkpt>
      <trkpt lat="46.15457" lon="3.46359">
        <ele>309</ele>
        <time>2018-01-28T10:49:45Z</time>
      </trkpt>
      <trkpt lat="46.15449" lon="3.46383">
        <ele>309</ele>
        <time>2018-01-28T10:49:51Z</time>
      </trkpt>
      <trkpt lat="46.15441" lon="3.46406">
        <ele>308</ele>
        <time>2018-01-28T10:49:57Z</time>
      </trkpt>
      <trkpt lat="46.15433" lon="3.4643">
        <ele>307</ele>
        <time>2018-01-28T10:50:04Z</time>
      </trkpt>
      <trkpt lat="46.15425" lon="3.46453">
        <ele>307</ele>
        <time>2018-01-28T10:50:10Z</time>
      </trkpt>
      <trkpt lat="46.15418" lon="3.46479">
        <ele>306</ele>
        <time>2018-01-28T10:50:17Z</time>
      </trkpt>
      <trkpt lat="46.15407" lon="3.46505">
        <ele>305</ele>
        <time>2018-01-28T10:50:25Z</time>
      </trkpt>
      <trkpt lat="46.15396" lon="3.46529">
        <ele>306</ele>
        <time>2018-01-28T10:50:32Z</time>
      </trkpt>
      <trkpt lat="46.15382" lon="3.46552">
        <ele>306</ele>
        <time>2018-01-28T10:50:40Z</time>
      </trkpt>
      <trkpt lat="46.15369" lon="3.46571">
        <ele>306</ele>
        <time>2018-01-28T10:50:47Z</time>
      </trkpt>
      <trkpt lat="46.15352" lon="3.46582">
        <ele>306</ele>
        <time>2018-01-28T10:50:56Z</time>
      </trkpt>
      <trkpt lat="46.15334" lon="3.46569">
        <ele>306</ele>
        <time>2018-01-28T10:51:05Z</time>
      </trkpt>
      <trkpt lat="46.15316" lon="3.46556">
        <ele>308</ele>
        <time>2018-01-28T10:51:13Z</time>
      </trkpt>
      <trkpt lat="46.15299" lon="3.46544">
        <ele>309</ele>
        <time>2018-01-28T10:51:21Z</time>
      </trkpt>
      <trkpt lat="46.15282" lon="3.46529">
        <ele>309</ele>
        <time>2018-01-28T10:51:28Z</time>
      </trkpt>
      <trkpt lat="46.15266" lon="3.46514">
        <ele>310</ele>
        <time>2018-01-28T10:51:35Z</time>
      </trkpt>
      <trkpt lat="46.15251" lon="3.46499">
        <ele>312</ele>
        <time>2018-01-28T10:51:42Z</time>
      </trkpt>
      <trkpt lat="46.1524" lon="3.46477">
        <ele>312</ele>
        <time>2018-01-28T10:51:49Z</time>
      </trkpt>
      <trkpt lat="46.15225" lon="3.4646">
        <ele>313</ele>
        <time>2018-01-28T10:51:57Z</time>
      </trkpt>
      <trkpt lat="46.15207" lon="3.46445">
        <ele>313</ele>
        <time>2018-01-28T10:52:06Z</time>
      </trkpt>
      <trkpt lat="46.1519" lon="3.4643">
        <ele>313</ele>
        <time>2018-01-28T10:52:15Z</time>
      </trkpt>
      <trkpt lat="46.15174" lon="3.46413">
        <ele>312</ele>
        <time>2018-01-28T10:52:23Z</time>
      </trkpt>
      <trkpt lat="46.15158" lon="3.464">
        <ele>315</ele>
        <time>2018-01-28T10:52:30Z</time>
      </trkpt>
      <trkpt lat="46.15142" lon="3.46387">
        <ele>316</ele>
        <time>2018-01-28T10:52:37Z</time>
      </trkpt>
      <trkpt lat="46.15127" lon="3.4637">
        <ele>316</ele>
        <time>2018-01-28T10:52:44Z</time>
      </trkpt>
      <trkpt lat="46.15112" lon="3.46355">
        <ele>317</ele>
        <time>2018-01-28T10:52:51Z</time>
      </trkpt>
      <trkpt lat="46.15098" lon="3.46333">
        <ele>317</ele>
        <time>2018-01-28T10:52:59Z</time>
      </trkpt>
      <trkpt lat="46.15082" lon="3.46316">
        <ele>320</ele>
        <time>2018-01-28T10:53:07Z</time>
      </trkpt>
      <trkpt lat="46.15066" lon="3.46301">
        <ele>320</ele>
        <time>2018-01-28T10:53:15Z</time>
      </trkpt>
      <trkpt lat="46.15045" lon="3.46299">
        <ele>321</ele>
        <time>2018-01-28T10:53:23Z</time>
      </trkpt>
      <trkpt lat="46.15028" lon="3.4631">
        <ele>322</ele>
        <time>2018-01-28T10:53:30Z</time>
      </trkpt>
      <trkpt lat="46.15012" lon="3.46323">
        <ele>323</ele>
        <time>2018-01-28T10:53:37Z</time>
      </trkpt>
      <trkpt lat="46.14995" lon="3.46335">
        <ele>326</ele>
        <time>2018-01-28T10:53:44Z</time>
      </trkpt>
      <trkpt lat="46.14977" lon="3.46346">
        <ele>327</ele>
        <time>2018-01-28T10:53:53Z</time>
      </trkpt>
      <trkpt lat="46.14961" lon="3.46363">
        <ele>328</ele>
        <time>2018-01-28T10:54:01Z</time>
      </trkpt>
      <trkpt lat="46.14943" lon="3.46378">
        <ele>328</ele>
        <time>2018-01-28T10:54:09Z</time>
      </trkpt>
      <trkpt lat="46.14924" lon="3.46389">
        <ele>329</ele>
        <time>2018-01-28T10:54:17Z</time>
      </trkpt>
      <trkpt lat="46.14907" lon="3.46398">
        <ele>332</ele>
        <time>2018-01-28T10:54:24Z</time>
      </trkpt>
      <trkpt lat="46.14888" lon="3.46402">
        <ele>333</ele>
        <time>2018-01-28T10:54:32Z</time>
      </trkpt>
      <trkpt lat="46.14869" lon="3.46404">
        <ele>334</ele>
        <time>2018-01-28T10:54:39Z</time>
      </trkpt>
      <trkpt lat="46.14849" lon="3.46404">
        <ele>335</ele>
        <time>2018-01-28T10:54:47Z</time>
      </trkpt>
      <trkpt lat="46.1483" lon="3.46402">
        <ele>338</ele>
        <time>2018-01-28T10:54:54Z</time>
      </trkpt>
      <trkpt lat="46.14811" lon="3.464">
        <ele>338</ele>
        <time>2018-01-28T10:55:00Z</time>
      </trkpt>
      <trkpt lat="46.14793" lon="3.46398">
        <ele>339</ele>
        <time>2018-01-28T10:55:06Z</time>
      </trkpt>
      <trkpt lat="46.14773" lon="3.46393">
        <ele>339</ele>
        <time>2018-01-28T10:55:13Z</time>
      </trkpt>
      <trkpt lat="46.14755" lon="3.46389">
        <ele>339</ele>
        <time>2018-01-28T10:55:19Z</time>
      </trkpt>
      <trkpt lat="46.14735" lon="3.46385">
        <ele>340</ele>
        <time>2018-01-28T10:55:26Z</time>
      </trkpt>
      <trkpt lat="46.14716" lon="3.46387">
        <ele>340</ele>
        <time>2018-01-28T10:55:33Z</time>
      </trkpt>
      <trkpt lat="46.14696" lon="3.46389">
        <ele>340</ele>
        <time>2018-01-28T10:55:41Z</time>
      </trkpt>
      <trkpt lat="46.14677" lon="3.46393">
        <ele>341</ele>
        <time>2018-01-28T10:55:49Z</time>
      </trkpt>
      <trkpt lat="46.14658" lon="3.46396">
        <ele>342</ele>
        <time>2018-01-28T10:55:57Z</time>
      </trkpt>
      <trkpt lat="46.14641" lon="3.46404">
        <ele>342</ele>
        <time>2018-01-28T10:56:05Z</time>
      </trkpt>
      <trkpt lat="46.14622" lon="3.46408">
        <ele>342</ele>
        <time>2018-01-28T10:56:14Z</time>
      </trkpt>
      <trkpt lat="46.14612" lon="3.46432">
        <ele>344</ele>
        <time>2018-01-28T10:56:24Z</time>
      </trkpt>
      <trkpt lat="46.14608" lon="3.4646">
        <ele>344</ele>
        <time>2018-01-28T10:56:32Z</time>
      </trkpt>
      <trkpt lat="46.14599" lon="3.46484">
        <ele>345</ele>
        <time>2018-01-28T10:56:40Z</time>
      </trkpt>
      <trkpt lat="46.14582" lon="3.46499">
        <ele>346</ele>
        <time>2018-01-28T10:56:48Z</time>
      </trkpt>
      <trkpt lat="46.14565" lon="3.46514">
        <ele>343</ele>
        <time>2018-01-28T10:56:56Z</time>
      </trkpt>
      <trkpt lat="46.14548" lon="3.46529">
        <ele>342</ele>
        <time>2018-01-28T10:57:03Z</time>
      </trkpt>
      <trkpt lat="46.1453" lon="3.46546">
        <ele>341</ele>
        <time>2018-01-28T10:57:10Z</time>
      </trkpt>
      <trkpt lat="46.14513" lon="3.46563">
        <ele>340</ele>
        <time>2018-01-28T10:57:17Z</time>
      </trkpt>
      <trkpt lat="46.14507" lon="3.46589">
        <ele>338</ele>
        <time>2018-01-28T10:57:24Z</time>
      </trkpt>
      <trkpt lat="46.14512" lon="3.46617">
        <ele>338</ele>
        <time>2018-01-28T10:57:31Z</time>
      </trkpt>
      <trkpt lat="46.1452" lon="3.46642">
        <ele>338</ele>
        <time>2018-01-28T10:57:38Z</time>
      </trkpt>
      <trkpt lat="46.14526" lon="3.4667">
        <ele>336</ele>
        <time>2018-01-28T10:57:45Z</time>
      </trkpt>
      <trkpt lat="46.14533" lon="3.46698">
        <ele>336</ele>
        <time>2018-01-28T10:57:52Z</time>
      </trkpt>
      <trkpt lat="46.1454" lon="3.46722">
        <ele>335</ele>
        <time>2018-01-28T10:57:58Z</time>
      </trkpt>
      <trkpt lat="46.1455" lon="3.46745">
        <ele>336</ele>
        <time>2018-01-28T10:58:04Z</time>
      </trkpt>
      <trkpt lat="46.14558" lon="3.46771">
        <ele>335</ele>
        <time>2018-01-28T10:58:10Z</time>
      </trkpt>
      <trkpt lat="46.14568" lon="3.46795">
        <ele>334</ele>
        <time>2018-01-28T10:58:16Z</time>
      </trkpt>
      <trkpt lat="46.14578" lon="3.46818">
        <ele>335</ele>
        <time>2018-01-28T10:58:22Z</time>
      </trkpt>
      <trkpt lat="46.14579" lon="3.46848">
        <ele>334</ele>
        <time>2018-01-28T10:58:29Z</time>
      </trkpt>
      <trkpt lat="46.14575" lon="3.46876">
        <ele>334</ele>
        <time>2018-01-28T10:58:36Z</time>
      </trkpt>
      <trkpt lat="46.14581" lon="3.46902">
        <ele>334</ele>
        <time>2018-01-28T10:58:43Z</time>
      </trkpt>
      <trkpt lat="46.14594" lon="3.46921">
        <ele>336</ele>
        <time>2018-01-28T10:58:50Z</time>
      </trkpt>
      <trkpt lat="46.1459" lon="3.46949">
        <ele>337</ele>
        <time>2018-01-28T10:58:59Z</time>
      </trkpt>
      <trkpt lat="46.14578" lon="3.46968">
        <ele>334</ele>
        <time>2018-01-28T10:59:06Z</time>
      </trkpt>
      <trkpt lat="46.14566" lon="3.46992">
        <ele>334</ele>
        <time>2018-01-28T10:59:13Z</time>
      </trkpt>
      <trkpt lat="46.14561" lon="3.4702">
        <ele>335</ele>
        <time>2018-01-28T10:59:19Z</time>
      </trkpt>
      <trkpt lat="46.14556" lon="3.47048">
        <ele>336</ele>
        <time>2018-01-28T10:59:25Z</time>
      </trkpt>
      <trkpt lat="46.14551" lon="3.47076">
        <ele>336</ele>
        <time>2018-01-28T10:59:32Z</time>
      </trkpt>
      <trkpt lat="46.14543" lon="3.47099">
        <ele>338</ele>
        <time>2018-01-28T10:59:40Z</time>
      </trkpt>
      <trkpt lat="46.14531" lon="3.47121">
        <ele>339</ele>
        <time>2018-01-28T10:59:49Z</time>
      </trkpt>
      <trkpt lat="46.14522" lon="3.47144">
        <ele>340</ele>
        <time>2018-01-28T10:59:58Z</time>
      </trkpt>
      <trkpt lat="46.1451" lon="3.47166">
        <ele>342</ele>
        <time>2018-01-28T11:00:07Z</time>
      </trkpt>
      <trkpt lat="46.14497" lon="3.47187">
        <ele>344</ele>
        <time>2018-01-28T11:00:15Z</time>
      </trkpt>
      <trkpt lat="46.14484" lon="3.47207">
        <ele>345</ele>
        <time>2018-01-28T11:00:23Z</time>
      </trkpt>
      <trkpt lat="46.14471" lon="3.4723">
        <ele>345</ele>
        <time>2018-01-28T11:00:30Z</time>
      </trkpt>
      <trkpt lat="46.14462" lon="3.47254">
        <ele>345</ele>
        <time>2018-01-28T11:00:37Z</time>
      </trkpt>
      <trkpt lat="46.14462" lon="3.47282">
        <ele>345</ele>
        <time>2018-01-28T11:00:47Z</time>
      </trkpt>
      <trkpt lat="46.14476" lon="3.47299">
        <ele>345</ele>
        <time>2018-01-28T11:00:54Z</time>
      </trkpt>
      <trkpt lat="46.14492" lon="3.47314">
        <ele>345</ele>
        <time>2018-01-28T11:01:00Z</time>
      </trkpt>
      <trkpt lat="46.14507" lon="3.47329">
        <ele>345</ele>
        <time>2018-01-28T11:01:06Z</time>
      </trkpt>
      <trkpt lat="46.14521" lon="3.47346">
        <ele>345</ele>
        <time>2018-01-28T11:01:12Z</time>
      </trkpt>
      <trkpt lat="46.14535" lon="3.47363">
        <ele>344</ele>
        <time>2018-01-28T11:01:18Z</time>
      </trkpt>
      <trkpt lat="46.14553" lon="3.47376">
        <ele>344</ele>
        <time>2018-01-28T11:01:24Z</time>
      </trkpt>
      <trkpt lat="46.1457" lon="3.47389">
        <ele>344</ele>
        <time>2018-01-28T11:01:30Z</time>
      </trkpt>
      <trkpt lat="46.14587" lon="3.47402">
        <ele>344</ele>
        <time>2018-01-28T11:01:36Z</time>
      </trkpt>
      <trkpt lat="46.1459" lon="3.47428">
        <ele>344</ele>
        <time>2018-01-28T11:01:44Z</time>
      </trkpt>
      <trkpt lat="46.14582" lon="3.47453">
        <ele>342</ele>
        <time>2018-01-28T11:01:50Z</time>
      </trkpt>
      <trkpt lat="46.14566" lon="3.47466">
        <ele>342</ele>
        <time>2018-01-28T11:01:57Z</time>
      </trkpt>
      <trkpt lat="46.14549" lon="3.47479">
        <ele>341</ele>
        <time>2018-01-28T11:02:05Z</time>
      </trkpt>
      <trkpt lat="46.14529" lon="3.47479">
        <ele>341</ele>
        <time>2018-01-28T11:02:15Z</time>
      </trkpt>
      <trkpt lat="46.14511" lon="3.47475">
        <ele>340</ele>
        <time>2018-01-28T11:02:25Z</time>
      </trkpt>
      <trkpt lat="46.14494" lon="3.47462">
        <ele>338</ele>
        <time>2018-01-28T11:02:35Z</time>
      </trkpt>
      <trkpt lat="46.14479" lon="3.47447">
        <ele>338</ele>
        <time>2018-01-28T11:02:43Z</time>
      </trkpt>
      <trkpt lat="46.14462" lon="3.47434">
        <ele>338</ele>
        <time>2018-01-28T11:02:51Z</time>
      </trkpt>
      <trkpt lat="46.14442" lon="3.47426">
        <ele>337</ele>
        <time>2018-01-28T11:03:00Z</time>
      </trkpt>
      <trkpt lat="46.14424" lon="3.47415">
        <ele>338</ele>
        <time>2018-01-28T11:03:09Z</time>
      </trkpt>
      <trkpt lat="46.14407" lon="3.47406">
        <ele>337</ele>
        <time>2018-01-28T11:03:17Z</time>
      </trkpt>
      <trkpt lat="46.1439" lon="3.47395">
        <ele>336</ele>
        <time>2018-01-28T11:03:24Z</time>
      </trkpt>
      <trkpt lat="46.14374" lon="3.4738">
        <ele>336</ele>
        <time>2018-01-28T11:03:32Z</time>
      </trkpt>
      <trkpt lat="46.14357" lon="3.4737">
        <ele>335</ele>
        <time>2018-01-28T11:03:39Z</time>
      </trkpt>
      <trkpt lat="46.14339" lon="3.47361">
        <ele>335</ele>
        <time>2018-01-28T11:03:45Z</time>
      </trkpt>
      <trkpt lat="46.14321" lon="3.47357">
        <ele>330</ele>
        <time>2018-01-28T11:03:53Z</time>
      </trkpt>
      <trkpt lat="46.14304" lon="3.47348">
        <ele>329</ele>
        <time>2018-01-28T11:04:06Z</time>
      </trkpt>
      <trkpt lat="46.14287" lon="3.47338">
        <ele>327</ele>
        <time>2018-01-28T11:04:13Z</time>
      </trkpt>
      <trkpt lat="46.14269" lon="3.47327">
        <ele>328</ele>
        <time>2018-01-28T11:04:19Z</time>
      </trkpt>
      <trkpt lat="46.14251" lon="3.47318">
        <ele>327</ele>
        <time>2018-01-28T11:04:24Z</time>
      </trkpt>
      <trkpt lat="46.14234" lon="3.4731">
        <ele>320</ele>
        <time>2018-01-28T11:04:29Z</time>
      </trkpt>
      <trkpt lat="46.14215" lon="3.47303">
        <ele>319</ele>
        <time>2018-01-28T11:04:35Z</time>
      </trkpt>
      <trkpt lat="46.14196" lon="3.47301">
        <ele>317</ele>
        <time>2018-01-28T11:04:42Z</time>
      </trkpt>
      <trkpt lat="46.14175" lon="3.47307">
        <ele>315</ele>
        <time>2018-01-28T11:04:49Z</time>
      </trkpt>
      <trkpt lat="46.14156" lon="3.47314">
        <ele>308</ele>
        <time>2018-01-28T11:04:55Z</time>
      </trkpt>
      <trkpt lat="46.14138" lon="3.47318">
        <ele>306</ele>
        <time>2018-01-28T11:05:00Z</time>
      </trkpt>
      <trkpt lat="46.14119" lon="3.4732">
        <ele>305</ele>
        <time>2018-01-28T11:05:05Z</time>
      </trkpt>
      <trkpt lat="46.14099" lon="3.47327">
        <ele>302</ele>
        <time>2018-01-28T11:05:11Z</time>
      </trkpt>
      <trkpt lat="46.14081" lon="3.47335">
        <ele>298</ele>
        <time>2018-01-28T11:05:16Z</time>
      </trkpt>
      <trkpt lat="46.14063" lon="3.47344">
        <ele>295</ele>
        <time>2018-01-28T11:05:21Z</time>
      </trkpt>
      <trkpt lat="46.14044" lon="3.47357">
        <ele>294</ele>
        <time>2018-01-28T11:05:27Z</time>
      </trkpt>
      <trkpt lat="46.14028" lon="3.47372">
        <ele>293</ele>
        <time>2018-01-28T11:05:34Z</time>
      </trkpt>
      <trkpt lat="46.14015" lon="3.47391">
        <ele>292</ele>
        <time>2018-01-28T11:05:41Z</time>
      </trkpt>
      <trkpt lat="46.14013" lon="3.47419">
        <ele>291</ele>
        <time>2018-01-28T11:05:46Z</time>
      </trkpt>
      <trkpt lat="46.1401" lon="3.47449">
        <ele>292</ele>
        <time>2018-01-28T11:05:51Z</time>
      </trkpt>
      <trkpt lat="46.14003" lon="3.47473">
        <ele>293</ele>
        <time>2018-01-28T11:05:57Z</time>
      </trkpt>
      <trkpt lat="46.13992" lon="3.47494">
        <ele>292</ele>
        <time>2018-01-28T11:06:04Z</time>
      </trkpt>
      <trkpt lat="46.13972" lon="3.47492">
        <ele>292</ele>
        <time>2018-01-28T11:06:15Z</time>
      </trkpt>
      <trkpt lat="46.13955" lon="3.47483">
        <ele>292</ele>
        <time>2018-01-28T11:06:21Z</time>
      </trkpt>
      <trkpt lat="46.13936" lon="3.47479">
        <ele>292</ele>
        <time>2018-01-28T11:06:27Z</time>
      </trkpt>
      <trkpt lat="46.13917" lon="3.47488">
        <ele>293</ele>
        <time>2018-01-28T11:06:34Z</time>
      </trkpt>
      <trkpt lat="46.13897" lon="3.47498">
        <ele>292</ele>
        <time>2018-01-28T11:06:42Z</time>
      </trkpt>
      <trkpt lat="46.13879" lon="3.47498">
        <ele>291</ele>
        <time>2018-01-28T11:06:50Z</time>
      </trkpt>
      <trkpt lat="46.13863" lon="3.47486">
        <ele>291</ele>
        <time>2018-01-28T11:06:59Z</time>
      </trkpt>
      <trkpt lat="46.13849" lon="3.47466">
        <ele>290</ele>
        <time>2018-01-28T11:07:08Z</time>
      </trkpt>
      <trkpt lat="46.13831" lon="3.47456">
        <ele>288</ele>
        <time>2018-01-28T11:07:18Z</time>
      </trkpt>
      <trkpt lat="46.13818" lon="3.47434">
        <ele>287</ele>
        <time>2018-01-28T11:07:26Z</time>
      </trkpt>
      <trkpt lat="46.13807" lon="3.47413">
        <ele>286</ele>
        <time>2018-01-28T11:07:32Z</time>
      </trkpt>
      <trkpt lat="46.13795" lon="3.47391">
        <ele>285</ele>
        <time>2018-01-28T11:07:38Z</time>
      </trkpt>
      <trkpt lat="46.13781" lon="3.47372">
        <ele>285</ele>
        <time>2018-01-28T11:07:44Z</time>
      </trkpt>
      <trkpt lat="46.13766" lon="3.47353">
        <ele>285</ele>
        <time>2018-01-28T11:07:51Z</time>
      </trkpt>
      <trkpt lat="46.13746" lon="3.47348">
        <ele>286</ele>
        <time>2018-01-28T11:07:58Z</time>
      </trkpt>
      <trkpt lat="46.13729" lon="3.47359">
        <ele>287</ele>
        <time>2018-01-28T11:08:04Z</time>
      </trkpt>
      <trkpt lat="46.13714" lon="3.47374">
        <ele>288</ele>
        <time>2018-01-28T11:08:11Z</time>
      </trkpt>
      <trkpt lat="46.13702" lon="3.47398">
        <ele>288</ele>
        <time>2018-01-28T11:08:20Z</time>
      </trkpt>
      <trkpt lat="46.13687" lon="3.47417">
        <ele>289</ele>
        <time>2018-01-28T11:08:30Z</time>
      </trkpt>
      <trkpt lat="46.13675" lon="3.47438">
        <ele>289</ele>
        <time>2018-01-28T11:08:41Z</time>
      </trkpt>
      <trkpt lat="46.13663" lon="3.4746">
        <ele>295</ele>
        <time>2018-01-28T11:08:51Z</time>
      </trkpt>
      <trkpt lat="46.13653" lon="3.47481">
        <ele>295</ele>
        <time>2018-01-28T11:09:01Z</time>
      </trkpt>
      <trkpt lat="46.13645" lon="3.47507">
        <ele>294</ele>
        <time>2018-01-28T11:09:09Z</time>
      </trkpt>
      <trkpt lat="46.13643" lon="3.47535">
        <ele>295</ele>
        <time>2018-01-28T11:09:17Z</time>
      </trkpt>
      <trkpt lat="46.13646" lon="3.47561">
        <ele>294</ele>
        <time>2018-01-28T11:09:24Z</time>
      </trkpt>
      <trkpt lat="46.1365" lon="3.47589">
        <ele>292</ele>
        <time>2018-01-28T11:09:31Z</time>
      </trkpt>
      <trkpt lat="46.13655" lon="3.47614">
        <ele>293</ele>
        <time>2018-01-28T11:09:37Z</time>
      </trkpt>
      <trkpt lat="46.13656" lon="3.47642">
        <ele>293</ele>
        <time>2018-01-28T11:09:44Z</time>
      </trkpt>
      <trkpt lat="46.13658" lon="3.47672">
        <ele>292</ele>
        <time>2018-01-28T11:09:49Z</time>
      </trkpt>
      <trkpt lat="46.13656" lon="3.477">
        <ele>293</ele>
        <time>2018-01-28T11:09:55Z</time>
      </trkpt>
      <trkpt lat="46.13641" lon="3.47715">
        <ele>294</ele>
        <time>2018-01-28T11:10:05Z</time>
      </trkpt>
      <trkpt lat="46.13624" lon="3.47726">
        <ele>294</ele>
        <time>2018-01-28T11:10:19Z</time>
      </trkpt>
      <trkpt lat="46.13606" lon="3.47737">
        <ele>295</ele>
        <time>2018-01-28T11:10:37Z</time>
      </trkpt>
      <trkpt lat="46.13588" lon="3.4775">
        <ele>297</ele>
        <time>2018-01-28T11:10:48Z</time>
      </trkpt>
      <trkpt lat="46.13571" lon="3.47762">
        <ele>300</ele>
        <time>2018-01-28T11:10:56Z</time>
      </trkpt>
      <trkpt lat="46.13554" lon="3.47775">
        <ele>301</ele>
        <time>2018-01-28T11:11:03Z</time>
      </trkpt>
      <trkpt lat="46.13535" lon="3.47784">
        <ele>303</ele>
        <time>2018-01-28T11:11:10Z</time>
      </trkpt>
      <trkpt lat="46.13517" lon="3.4779">
        <ele>304</ele>
        <time>2018-01-28T11:11:18Z</time>
      </trkpt>
      <trkpt lat="46.13499" lon="3.47801">
        <ele>311</ele>
        <time>2018-01-28T11:11:27Z</time>
      </trkpt>
      <trkpt lat="46.1348" lon="3.47814">
        <ele>311</ele>
        <time>2018-01-28T11:11:37Z</time>
      </trkpt>
      <trkpt lat="46.13462" lon="3.47825">
        <ele>312</ele>
        <time>2018-01-28T11:11:46Z</time>
      </trkpt>
      <trkpt lat="46.13445" lon="3.47837">
        <ele>315</ele>
        <time>2018-01-28T11:11:55Z</time>
      </trkpt>
      <trkpt lat="46.13429" lon="3.4785">
        <ele>316</ele>
        <time>2018-01-28T11:12:05Z</time>
      </trkpt>
      <trkpt lat="46.13414" lon="3.47865">
        <ele>323</ele>
        <time>2018-01-28T11:12:14Z</time>
      </trkpt>
      <trkpt lat="46.13398" lon="3.4788">
        <ele>325</ele>
        <time>2018-01-28T11:12:23Z</time>
      </trkpt>
      <trkpt lat="46.13386" lon="3.47902">
        <ele>326</ele>
        <time>2018-01-28T11:12:32Z</time>
      </trkpt>
      <trkpt lat="46.13371" lon="3.47921">
        <ele>327</ele>
        <time>2018-01-28T11:12:41Z</time>
      </trkpt>
      <trkpt lat="46.13354" lon="3.47938">
        <ele>328</ele>
        <time>2018-01-28T11:12:49Z</time>
      </trkpt>
      <trkpt lat="46.13337" lon="3.47953">
        <ele>328</ele>
        <time>2018-01-28T11:12:57Z</time>
      </trkpt>
      <trkpt lat="46.1332" lon="3.47964">
        <ele>334</ele>
        <time>2018-01-28T11:13:05Z</time>
      </trkpt>
      <trkpt lat="46.13302" lon="3.47975">
        <ele>335</ele>
        <time>2018-01-28T11:13:17Z</time>
      </trkpt>
      <trkpt lat="46.13285" lon="3.47986">
        <ele>335</ele>
        <time>2018-01-28T11:13:36Z</time>
      </trkpt>
      <trkpt lat="46.13268" lon="3.47994">
        <ele>336</ele>
        <time>2018-01-28T11:13:52Z</time>
      </trkpt>
      <trkpt lat="46.1325" lon="3.48005">
        <ele>336</ele>
        <time>2018-01-28T11:14:02Z</time>
      </trkpt>
      <trkpt lat="46.13233" lon="3.48016">
        <ele>337</ele>
        <time>2018-01-28T11:14:10Z</time>
      </trkpt>
      <trkpt lat="46.13215" lon="3.48022">
        <ele>338</ele>
        <time>2018-01-28T11:14:17Z</time>
      </trkpt>
      <trkpt lat="46.13197" lon="3.48026">
        <ele>339</ele>
        <time>2018-01-28T11:14:25Z</time>
      </trkpt>
      <trkpt lat="46.13177" lon="3.48033">
        <ele>340</ele>
        <time>2018-01-28T11:14:33Z</time>
      </trkpt>
      <trkpt lat="46.13157" lon="3.48037">
        <ele>346</ele>
        <time>2018-01-28T11:14:40Z</time>
      </trkpt>
      <trkpt lat="46.13139" lon="3.48041">
        <ele>347</ele>
        <time>2018-01-28T11:14:46Z</time>
      </trkpt>
      <trkpt lat="46.1312" lon="3.48039">
        <ele>348</ele>
        <time>2018-01-28T11:14:52Z</time>
      </trkpt>
      <trkpt lat="46.131" lon="3.48031">
        <ele>350</ele>
        <time>2018-01-28T11:14:58Z</time>
      </trkpt>
      <trkpt lat="46.13085" lon="3.48016">
        <ele>352</ele>
        <time>2018-01-28T11:15:04Z</time>
      </trkpt>
      <trkpt lat="46.13071" lon="3.47998">
        <ele>357</ele>
        <time>2018-01-28T11:15:11Z</time>
      </trkpt>
      <trkpt lat="46.13061" lon="3.47975">
        <ele>359</ele>
        <time>2018-01-28T11:15:19Z</time>
      </trkpt>
      <trkpt lat="46.1305" lon="3.47949">
        <ele>359</ele>
        <time>2018-01-28T11:15:28Z</time>
      </trkpt>
      <trkpt lat="46.13041" lon="3.47925">
        <ele>359</ele>
        <time>2018-01-28T11:15:36Z</time>
      </trkpt>
      <trkpt lat="46.13033" lon="3.479">
        <ele>356</ele>
        <time>2018-01-28T11:15:43Z</time>
      </trkpt>
      <trkpt lat="46.13027" lon="3.47874">
        <ele>356</ele>
        <time>2018-01-28T11:15:50Z</time>
      </trkpt>
      <trkpt lat="46.13024" lon="3.47846">
        <ele>355</ele>
        <time>2018-01-28T11:15:57Z</time>
      </trkpt>
      <trkpt lat="46.13013" lon="3.4782">
        <ele>352</ele>
        <time>2018-01-28T11:16:05Z</time>
      </trkpt>
      <trkpt lat="46.12997" lon="3.47807">
        <ele>356</ele>
        <time>2018-01-28T11:16:15Z</time>
      </trkpt>
      <trkpt lat="46.1298" lon="3.47816">
        <ele>356</ele>
        <time>2018-01-28T11:16:27Z</time>
      </trkpt>
      <trkpt lat="46.12965" lon="3.47833">
        <ele>357</ele>
        <time>2018-01-28T11:16:34Z</time>
      </trkpt>
      <trkpt lat="46.12946" lon="3.4784">
        <ele>363</ele>
        <time>2018-01-28T11:16:43Z</time>
      </trkpt>
      <trkpt lat="46.12926" lon="3.47833">
        <ele>361</ele>
        <time>2018-01-28T11:16:53Z</time>
      </trkpt>
      <trkpt lat="46.12908" lon="3.47827">
        <ele>362</ele>
        <time>2018-01-28T11:17:03Z</time>
      </trkpt>
      <trkpt lat="46.12889" lon="3.47825">
        <ele>362</ele>
        <time>2018-01-28T11:17:14Z</time>
      </trkpt>
      <trkpt lat="46.12871" lon="3.47833">
        <ele>363</ele>
        <time>2018-01-28T11:17:23Z</time>
      </trkpt>
      <trkpt lat="46.12852" lon="3.47837">
        <ele>371</ele>
        <time>2018-01-28T11:17:31Z</time>
      </trkpt>
      <trkpt lat="46.12833" lon="3.4784">
        <ele>372</ele>
        <time>2018-01-28T11:17:39Z</time>
      </trkpt>
      <trkpt lat="46.12814" lon="3.47842">
        <ele>374</ele>
        <time>2018-01-28T11:17:47Z</time>
      </trkpt>
      <trkpt lat="46.12796" lon="3.47848">
        <ele>376</ele>
        <time>2018-01-28T11:18:06Z</time>
      </trkpt>
      <trkpt lat="46.12777" lon="3.4785">
        <ele>377</ele>
        <time>2018-01-28T11:18:18Z</time>
      </trkpt>
      <trkpt lat="46.12758" lon="3.47853">
        <ele>377</ele>
        <time>2018-01-28T11:18:31Z</time>
      </trkpt>
      <trkpt lat="46.12739" lon="3.47853">
        <ele>379</ele>
        <time>2018-01-28T11:18:46Z</time>
      </trkpt>
      <trkpt lat="46.1272" lon="3.47853">
        <ele>380</ele>
        <time>2018-01-28T11:18:56Z</time>
      </trkpt>
      <trkpt lat="46.12701" lon="3.47855">
        <ele>381</ele>
        <time>2018-01-28T11:19:05Z</time>
      </trkpt>
      <trkpt lat="46.12683" lon="3.47857">
        <ele>381</ele>
        <time>2018-01-28T11:19:15Z</time>
      </trkpt>
      <trkpt lat="46.12665" lon="3.47868">
        <ele>385</ele>
        <time>2018-01-28T11:19:26Z</time>
      </trkpt>
      <trkpt lat="46.12645" lon="3.47876">
        <ele>386</ele>
        <time>2018-01-28T11:19:37Z</time>
      </trkpt>
      <trkpt lat="46.12628" lon="3.47889">
        <ele>387</ele>
        <time>2018-01-28T11:19:46Z</time>
      </trkpt>
      <trkpt lat="46.12613" lon="3.47908">
        <ele>389</ele>
        <time>2018-01-28T11:19:55Z</time>
      </trkpt>
      <trkpt lat="46.12602" lon="3.47932">
        <ele>395</ele>
        <time>2018-01-28T11:20:05Z</time>
      </trkpt>
      <trkpt lat="46.12596" lon="3.47958">
        <ele>397</ele>
        <time>2018-01-28T11:20:14Z</time>
      </trkpt>
      <trkpt lat="46.1259" lon="3.47983">
        <ele>400</ele>
        <time>2018-01-28T11:20:22Z</time>
      </trkpt>
      <trkpt lat="46.12583" lon="3.48009">
        <ele>404</ele>
        <time>2018-01-28T11:20:31Z</time>
      </trkpt>
      <trkpt lat="46.12579" lon="3.48035">
        <ele>407</ele>
        <time>2018-01-28T11:20:40Z</time>
      </trkpt>
      <trkpt lat="46.12572" lon="3.48063">
        <ele>409</ele>
        <time>2018-01-28T11:20:49Z</time>
      </trkpt>
      <trkpt lat="46.12563" lon="3.48086">
        <ele>414</ele>
        <time>2018-01-28T11:20:59Z</time>
      </trkpt>
      <trkpt lat="46.12555" lon="3.4811">
        <ele>414</ele>
        <time>2018-01-28T11:21:09Z</time>
      </trkpt>
      <trkpt lat="46.12551" lon="3.48136">
        <ele>415</ele>
        <time>2018-01-28T11:21:20Z</time>
      </trkpt>
      <trkpt lat="46.12552" lon="3.48164">
        <ele>416</ele>
        <time>2018-01-28T11:21:29Z</time>
      </trkpt>
      <trkpt lat="46.12552" lon="3.48192">
        <ele>420</ele>
        <time>2018-01-28T11:21:39Z</time>
      </trkpt>
      <trkpt lat="46.12549" lon="3.48217">
        <ele>421</ele>
        <time>2018-01-28T11:21:48Z</time>
      </trkpt>
      <trkpt lat="46.12544" lon="3.48243">
        <ele>422</ele>
        <time>2018-01-28T11:21:57Z</time>
      </trkpt>
      <trkpt lat="46.12538" lon="3.48269">
        <ele>427</ele>
        <time>2018-01-28T11:22:06Z</time>
      </trkpt>
      <trkpt lat="46.12533" lon="3.48295">
        <ele>428</ele>
        <time>2018-01-28T11:22:15Z</time>
      </trkpt>
      <trkpt lat="46.12525" lon="3.4832">
        <ele>429</ele>
        <time>2018-01-28T11:22:24Z</time>
      </trkpt>
      <trkpt lat="46.12517" lon="3.48344">
        <ele>433</ele>
        <time>2018-01-28T11:22:33Z</time>
      </trkpt>
      <trkpt lat="46.12509" lon="3.4837">
        <ele>434</ele>
        <time>2018-01-28T11:22:43Z</time>
      </trkpt>
      <trkpt lat="46.12504" lon="3.48395">
        <ele>435</ele>
        <time>2018-01-28T11:22:52Z</time>
      </trkpt>
      <trkpt lat="46.12498" lon="3.48423">
        <ele>438</ele>
        <time>2018-01-28T11:23:02Z</time>
      </trkpt>
      <trkpt lat="46.1249" lon="3.48447">
        <ele>440</ele>
        <time>2018-01-28T11:23:11Z</time>
      </trkpt>
      <trkpt lat="46.12482" lon="3.48473">
        <ele>441</ele>
        <time>2018-01-28T11:23:20Z</time>
      </trkpt>
      <trkpt lat="46.12476" lon="3.48498">
        <ele>442</ele>
        <time>2018-01-28T11:23:29Z</time>
      </trkpt>
      <trkpt lat="46.12468" lon="3.48526">
        <ele>447</ele>
        <time>2018-01-28T11:23:38Z</time>
      </trkpt>
      <trkpt lat="46.1246" lon="3.4855">
        <ele>448</ele>
        <time>2018-01-28T11:23:46Z</time>
      </trkpt>
      <trkpt lat="46.1245" lon="3.48574">
        <ele>448</ele>
        <time>2018-01-28T11:23:54Z</time>
      </trkpt>
      <trkpt lat="46.12437" lon="3.48597">
        <ele>452</ele>
        <time>2018-01-28T11:24:02Z</time>
      </trkpt>
      <trkpt lat="46.12423" lon="3.48619">
        <ele>453</ele>
        <time>2018-01-28T11:24:11Z</time>
      </trkpt>
      <trkpt lat="46.12407" lon="3.48636">
        <ele>453</ele>
        <time>2018-01-28T11:24:20Z</time>
      </trkpt>
      <trkpt lat="46.12391" lon="3.48649">
        <ele>453</ele>
        <time>2018-01-28T11:24:28Z</time>
      </trkpt>
      <trkpt lat="46.12375" lon="3.48661">
        <ele>453</ele>
        <time>2018-01-28T11:24:36Z</time>
      </trkpt>
      <trkpt lat="46.12361" lon="3.48681">
        <ele>458</ele>
        <time>2018-01-28T11:24:44Z</time>
      </trkpt>
      <trkpt lat="46.12346" lon="3.48698">
        <ele>458</ele>
        <time>2018-01-28T11:24:52Z</time>
      </trkpt>
      <trkpt lat="46.12332" lon="3.48715">
        <ele>458</ele>
        <time>2018-01-28T11:25:00Z</time>
      </trkpt>
      <trkpt lat="46.12317" lon="3.48732">
        <ele>459</ele>
        <time>2018-01-28T11:25:08Z</time>
      </trkpt>
      <trkpt lat="46.123" lon="3.48749">
        <ele>459</ele>
        <time>2018-01-28T11:25:15Z</time>
      </trkpt>
      <trkpt lat="46.12283" lon="3.48764">
        <ele>462</ele>
        <time>2018-01-28T11:25:22Z</time>
      </trkpt>
      <trkpt lat="46.12267" lon="3.48779">
        <ele>462</ele>
        <time>2018-01-28T11:25:30Z</time>
      </trkpt>
      <trkpt lat="46.12252" lon="3.48795">
        <ele>463</ele>
        <time>2018-01-28T11:25:37Z</time>
      </trkpt>
      <trkpt lat="46.12237" lon="3.48814">
        <ele>463</ele>
        <time>2018-01-28T11:25:45Z</time>
      </trkpt>
      <trkpt lat="46.12224" lon="3.48835">
        <ele>465</ele>
        <time>2018-01-28T11:25:53Z</time>
      </trkpt>
      <trkpt lat="46.12212" lon="3.48861">
        <ele>465</ele>
        <time>2018-01-28T11:26:01Z</time>
      </trkpt>
      <trkpt lat="46.12202" lon="3.48885">
        <ele>465</ele>
        <time>2018-01-28T11:26:09Z</time>
      </trkpt>
      <trkpt lat="46.12193" lon="3.48908">
        <ele>464</ele>
        <time>2018-01-28T11:26:17Z</time>
      </trkpt>
      <trkpt lat="46.12185" lon="3.48932">
        <ele>463</ele>
        <time>2018-01-28T11:26:24Z</time>
      </trkpt>
      <trkpt lat="46.1218" lon="3.48958">
        <ele>463</ele>
        <time>2018-01-28T11:26:31Z</time>
      </trkpt>
      <trkpt lat="46.12173" lon="3.48983">
        <ele>462</ele>
        <time>2018-01-28T11:26:38Z</time>
      </trkpt>
      <trkpt lat="46.12167" lon="3.49009">
        <ele>460</ele>
        <time>2018-01-28T11:26:45Z</time>
      </trkpt>
      <trkpt lat="46.12168" lon="3.49037">
        <ele>460</ele>
        <time>2018-01-28T11:26:52Z</time>
      </trkpt>
      <trkpt lat="46.12168" lon="3.49065">
        <ele>459</ele>
        <time>2018-01-28T11:26:59Z</time>
      </trkpt>
      <trkpt lat="46.12161" lon="3.49091">
        <ele>457</ele>
        <time>2018-01-28T11:27:06Z</time>
      </trkpt>
      <trkpt lat="46.12151" lon="3.49116">
        <ele>456</ele>
        <time>2018-01-28T11:27:13Z</time>
      </trkpt>
      <trkpt lat="46.1214" lon="3.49138">
        <ele>456</ele>
        <time>2018-01-28T11:27:19Z</time>
      </trkpt>
      <trkpt lat="46.12126" lon="3.49159">
        <ele>456</ele>
        <time>2018-01-28T11:27:26Z</time>
      </trkpt>
      <trkpt lat="46.12113" lon="3.49179">
        <ele>458</ele>
        <time>2018-01-28T11:27:33Z</time>
      </trkpt>
      <trkpt lat="46.12099" lon="3.49198">
        <ele>458</ele>
        <time>2018-01-28T11:27:40Z</time>
      </trkpt>
      <trkpt lat="46.12085" lon="3.49215">
        <ele>459</ele>
        <time>2018-01-28T11:27:47Z</time>
      </trkpt>
      <trkpt lat="46.1207" lon="3.49234">
        <ele>460</ele>
        <time>2018-01-28T11:27:54Z</time>
      </trkpt>
      <trkpt lat="46.12054" lon="3.49252">
        <ele>462</ele>
        <time>2018-01-28T11:28:01Z</time>
      </trkpt>
      <trkpt lat="46.12038" lon="3.49269">
        <ele>462</ele>
        <time>2018-01-28T11:28:08Z</time>
      </trkpt>
      <trkpt lat="46.12024" lon="3.49286">
        <ele>462</ele>
        <time>2018-01-28T11:28:14Z</time>
      </trkpt>
      <trkpt lat="46.12008" lon="3.49303">
        <ele>463</ele>
        <time>2018-01-28T11:28:21Z</time>
      </trkpt>
      <trkpt lat="46.11993" lon="3.4932">
        <ele>465</ele>
        <time>2018-01-28T11:28:28Z</time>
      </trkpt>
      <trkpt lat="46.11976" lon="3.49333">
        <ele>465</ele>
        <time>2018-01-28T11:28:35Z</time>
      </trkpt>
      <trkpt lat="46.11959" lon="3.49342">
        <ele>466</ele>
        <time>2018-01-28T11:28:42Z</time>
      </trkpt>
      <trkpt lat="46.11942" lon="3.4935">
        <ele>466</ele>
        <time>2018-01-28T11:28:50Z</time>
      </trkpt>
      <trkpt lat="46.11926" lon="3.49335">
        <ele>467</ele>
        <time>2018-01-28T11:28:58Z</time>
      </trkpt>
      <trkpt lat="46.11916" lon="3.49314">
        <ele>467</ele>
        <time>2018-01-28T11:29:05Z</time>
      </trkpt>
      <trkpt lat="46.11908" lon="3.4929">
        <ele>467</ele>
        <time>2018-01-28T11:29:12Z</time>
      </trkpt>
      <trkpt lat="46.11896" lon="3.49269">
        <ele>467</ele>
        <time>2018-01-28T11:29:21Z</time>
      </trkpt>
      <trkpt lat="46.11887" lon="3.49245">
        <ele>465</ele>
        <time>2018-01-28T11:29:34Z</time>
      </trkpt>
      <trkpt lat="46.11881" lon="3.49219">
        <ele>465</ele>
        <time>2018-01-28T11:29:47Z</time>
      </trkpt>
      <trkpt lat="46.11873" lon="3.49196">
        <ele>465</ele>
        <time>2018-01-28T11:30:13Z</time>
      </trkpt>
      <trkpt lat="46.1187" lon="3.4917">
        <ele>464</ele>
        <time>2018-01-28T11:30:30Z</time>
      </trkpt>
      <trkpt lat="46.11863" lon="3.49144">
        <ele>462</ele>
        <time>2018-01-28T11:30:44Z</time>
      </trkpt>
      <trkpt lat="46.11858" lon="3.49119">
        <ele>462</ele>
        <time>2018-01-28T11:30:56Z</time>
      </trkpt>
      <trkpt lat="46.1185" lon="3.49093">
        <ele>462</ele>
        <time>2018-01-28T11:31:08Z</time>
      </trkpt>
      <trkpt lat="46.11844" lon="3.49067">
        <ele>461</ele>
        <time>2018-01-28T11:31:20Z</time>
      </trkpt>
      <trkpt lat="46.11839" lon="3.49041">
        <ele>460</ele>
        <time>2018-01-28T11:31:31Z</time>
      </trkpt>
      <trkpt lat="46.11834" lon="3.49016">
        <ele>460</ele>
        <time>2018-01-28T11:31:43Z</time>
      </trkpt>
      <trkpt lat="46.11831" lon="3.4899">
        <ele>460</ele>
        <time>2018-01-28T11:31:55Z</time>
      </trkpt>
      <trkpt lat="46.11829" lon="3.48962">
        <ele>458</ele>
        <time>2018-01-28T11:32:07Z</time>
      </trkpt>
      <trkpt lat="46.11826" lon="3.48936">
        <ele>458</ele>
        <time>2018-01-28T11:32:18Z</time>
      </trkpt>
      <trkpt lat="46.11818" lon="3.4891">
        <ele>456</ele>
        <time>2018-01-28T11:32:31Z</time>
      </trkpt>
      <trkpt lat="46.11807" lon="3.48887">
        <ele>455</ele>
        <time>2018-01-28T11:33:16Z</time>
      </trkpt>
      <trkpt lat="46.11795" lon="3.48865">
        <ele>454</ele>
        <time>2018-01-28T11:33:25Z</time>
      </trkpt>
      <trkpt lat="46.11787" lon="3.48842">
        <ele>453</ele>
        <time>2018-01-28T11:33:32Z</time>
      </trkpt>
      <trkpt lat="46.11778" lon="3.48818">
        <ele>449</ele>
        <time>2018-01-28T11:33:39Z</time>
      </trkpt>
      <trkpt lat="46.11771" lon="3.48792">
        <ele>448</ele>
        <time>2018-01-28T11:33:46Z</time>
      </trkpt>
      <trkpt lat="46.11762" lon="3.48769">
        <ele>447</ele>
        <time>2018-01-28T11:33:53Z</time>
      </trkpt>
      <trkpt lat="46.11752" lon="3.48747">
        <ele>444</ele>
        <time>2018-01-28T11:34:00Z</time>
      </trkpt>
      <trkpt lat="46.11741" lon="3.48724">
        <ele>439</ele>
        <time>2018-01-28T11:34:08Z</time>
      </trkpt>
      <trkpt lat="46.11731" lon="3.48698">
        <ele>436</ele>
        <time>2018-01-28T11:34:16Z</time>
      </trkpt>
      <trkpt lat="46.1173" lon="3.4867">
        <ele>434</ele>
        <time>2018-01-28T11:34:25Z</time>
      </trkpt>
      <trkpt lat="46.11731" lon="3.48642">
        <ele>426</ele>
        <time>2018-01-28T11:34:34Z</time>
      </trkpt>
      <trkpt lat="46.11731" lon="3.48614">
        <ele>423</ele>
        <time>2018-01-28T11:34:42Z</time>
      </trkpt>
      <trkpt lat="46.1173" lon="3.48586">
        <ele>421</ele>
        <time>2018-01-28T11:34:50Z</time>
      </trkpt>
      <trkpt lat="46.11729" lon="3.48558">
        <ele>414</ele>
        <time>2018-01-28T11:34:58Z</time>
      </trkpt>
      <trkpt lat="46.11726" lon="3.48531">
        <ele>413</ele>
        <time>2018-01-28T11:35:06Z</time>
      </trkpt>
      <trkpt lat="46.11723" lon="3.48505">
        <ele>412</ele>
        <time>2018-01-28T11:35:12Z</time>
      </trkpt>
      <trkpt lat="46.11716" lon="3.48477">
        <ele>407</ele>
        <time>2018-01-28T11:35:19Z</time>
      </trkpt>
      <trkpt lat="46.11708" lon="3.48453">
        <ele>407</ele>
        <time>2018-01-28T11:35:25Z</time>
      </trkpt>
      <trkpt lat="46.117" lon="3.48428">
        <ele>406</ele>
        <time>2018-01-28T11:35:32Z</time>
      </trkpt>
      <trkpt lat="46.11694" lon="3.484">
        <ele>404</ele>
        <time>2018-01-28T11:35:40Z</time>
      </trkpt>
      <trkpt lat="46.11692" lon="3.48372">
        <ele>404</ele>
        <time>2018-01-28T11:35:48Z</time>
      </trkpt>
      <trkpt lat="46.11688" lon="3.48342">
        <ele>405</ele>
        <time>2018-01-28T11:35:57Z</time>
      </trkpt>
      <trkpt lat="46.11688" lon="3.48314">
        <ele>401</ele>
        <time>2018-01-28T11:36:06Z</time>
      </trkpt>
      <trkpt lat="46.11692" lon="3.48286">
        <ele>399</ele>
        <time>2018-01-28T11:36:14Z</time>
      </trkpt>
      <trkpt lat="46.11693" lon="3.48258">
        <ele>399</ele>
        <time>2018-01-28T11:36:21Z</time>
      </trkpt>
      <trkpt lat="46.11692" lon="3.4823">
        <ele>394</ele>
        <time>2018-01-28T11:36:28Z</time>
      </trkpt>
      <trkpt lat="46.1169" lon="3.48198">
        <ele>392</ele>
        <time>2018-01-28T11:36:34Z</time>
      </trkpt>
      <trkpt lat="46.11688" lon="3.48166">
        <ele>388</ele>
        <time>2018-01-28T11:36:40Z</time>
      </trkpt>
      <trkpt lat="46.11687" lon="3.48138">
        <ele>386</ele>
        <time>2018-01-28T11:36:46Z</time>
      </trkpt>
      <trkpt lat="46.11683" lon="3.4811">
        <ele>384</ele>
        <time>2018-01-28T11:36:53Z</time>
      </trkpt>
      <trkpt lat="46.11679" lon="3.48082">
        <ele>380</ele>
        <time>2018-01-28T11:37:00Z</time>
      </trkpt>
      <trkpt lat="46.11671" lon="3.48054">
        <ele>379</ele>
        <time>2018-01-28T11:37:08Z</time>
      </trkpt>
      <trkpt lat="46.11664" lon="3.48031">
        <ele>373</ele>
        <time>2018-01-28T11:37:15Z</time>
      </trkpt>
      <trkpt lat="46.11653" lon="3.48007">
        <ele>372</ele>
        <time>2018-01-28T11:37:23Z</time>
      </trkpt>
      <trkpt lat="46.1164" lon="3.47988">
        <ele>366</ele>
        <time>2018-01-28T11:37:32Z</time>
      </trkpt>
      <trkpt lat="46.11621" lon="3.47996">
        <ele>362</ele>
        <time>2018-01-28T11:37:42Z</time>
      </trkpt>
      <trkpt lat="46.11604" lon="3.48005">
        <ele>363</ele>
        <time>2018-01-28T11:37:50Z</time>
      </trkpt>
      <trkpt lat="46.11585" lon="3.48011">
        <ele>360</ele>
        <time>2018-01-28T11:37:58Z</time>
      </trkpt>
      <trkpt lat="46.1157" lon="3.47994">
        <ele>346</ele>
        <time>2018-01-28T11:38:08Z</time>
      </trkpt>
      <trkpt lat="46.11568" lon="3.47966">
        <ele>340</ele>
        <time>2018-01-28T11:38:18Z</time>
      </trkpt>
      <trkpt lat="46.11562" lon="3.4794">
        <ele>338</ele>
        <time>2018-01-28T11:38:26Z</time>
      </trkpt>
      <trkpt lat="46.11555" lon="3.47915">
        <ele>330</ele>
        <time>2018-01-28T11:38:33Z</time>
      </trkpt>
      <trkpt lat="46.11554" lon="3.47887">
        <ele>327</ele>
        <time>2018-01-28T11:38:41Z</time>
      </trkpt>
      <trkpt lat="46.11563" lon="3.47861">
        <ele>326</ele>
        <time>2018-01-28T11:38:48Z</time>
      </trkpt>
      <trkpt lat="46.11574" lon="3.4784">
        <ele>328</ele>
        <time>2018-01-28T11:38:55Z</time>
      </trkpt>
      <trkpt lat="46.11584" lon="3.47818">
        <ele>329</ele>
        <time>2018-01-28T11:39:03Z</time>
      </trkpt>
      <trkpt lat="46.11597" lon="3.47797">
        <ele>326</ele>
        <time>2018-01-28T11:39:11Z</time>
      </trkpt>
      <trkpt lat="46.1161" lon="3.47777">
        <ele>323</ele>
        <time>2018-01-28T11:39:19Z</time>
      </trkpt>
      <trkpt lat="46.11622" lon="3.47756">
        <ele>323</ele>
        <time>2018-01-28T11:39:27Z</time>
      </trkpt>
      <trkpt lat="46.11633" lon="3.47734">
        <ele>310</ele>
        <time>2018-01-28T11:39:34Z</time>
      </trkpt>
      <trkpt lat="46.11644" lon="3.47711">
        <ele>309</ele>
        <time>2018-01-28T11:39:42Z</time>
      </trkpt>
      <trkpt lat="46.11655" lon="3.47689">
        <ele>307</ele>
        <time>2018-01-28T11:39:50Z</time>
      </trkpt>
      <trkpt lat="46.11665" lon="3.47666">
        <ele>303</ele>
        <time>2018-01-28T11:39:59Z</time>
      </trkpt>
      <trkpt lat="46.11675" lon="3.47642">
        <ele>305</ele>
        <time>2018-01-28T11:40:07Z</time>
      </trkpt>
      <trkpt lat="46.11684" lon="3.47619">
        <ele>304</ele>
        <time>2018-01-28T11:40:15Z</time>
      </trkpt>
      <trkpt lat="46.11689" lon="3.47593">
        <ele>301</ele>
        <time>2018-01-28T11:40:24Z</time>
      </trkpt>
      <trkpt lat="46.11685" lon="3.47565">
        <ele>295</ele>
        <time>2018-01-28T11:40:31Z</time>
      </trkpt>
      <trkpt lat="46.11674" lon="3.47541">
        <ele>295</ele>
        <time>2018-01-28T11:40:36Z</time>
      </trkpt>
      <trkpt lat="46.1166" lon="3.47524">
        <ele>293</ele>
        <time>2018-01-28T11:40:43Z</time>
      </trkpt>
      <trkpt lat="46.11648" lon="3.47503">
        <ele>293</ele>
        <time>2018-01-28T11:40:50Z</time>
      </trkpt>
      <trkpt lat="46.11631" lon="3.4749">
        <ele>299</ele>
        <time>2018-01-28T11:41:00Z</time>
      </trkpt>
      <trkpt lat="46.11612" lon="3.47492">
        <ele>300</ele>
        <time>2018-01-28T11:41:12Z</time>
      </trkpt>
      <trkpt lat="46.11594" lon="3.47486">
        <ele>301</ele>
        <time>2018-01-28T11:41:22Z</time>
      </trkpt>
      <trkpt lat="46.11577" lon="3.47475">
        <ele>308</ele>
        <time>2018-01-28T11:41:32Z</time>
      </trkpt>
      <trkpt lat="46.11561" lon="3.47462">
        <ele>310</ele>
        <time>2018-01-28T11:41:41Z</time>
      </trkpt>
      <trkpt lat="46.11546" lon="3.47445">
        <ele>312</ele>
        <time>2018-01-28T11:41:52Z</time>
      </trkpt>
      <trkpt lat="46.11563" lon="3.47453">
        <ele>310</ele>
        <time>2018-01-28T11:42:16Z</time>
      </trkpt>
      <trkpt lat="46.11568" lon="3.47479">
        <ele>308</ele>
        <time>2018-01-28T11:42:34Z</time>
      </trkpt>
      <trkpt lat="46.11554" lon="3.47496">
        <ele>310</ele>
        <time>2018-01-28T11:42:42Z</time>
      </trkpt>
      <trkpt lat="46.11538" lon="3.47513">
        <ele>315</ele>
        <time>2018-01-28T11:42:50Z</time>
      </trkpt>
      <trkpt lat="46.11523" lon="3.47533">
        <ele>317</ele>
        <time>2018-01-28T11:42:59Z</time>
      </trkpt>
      <trkpt lat="46.11508" lon="3.47548">
        <ele>319</ele>
        <time>2018-01-28T11:43:08Z</time>
      </trkpt>
      <trkpt lat="46.11495" lon="3.47567">
        <ele>335</ele>
        <time>2018-01-28T11:43:17Z</time>
      </trkpt>
      <trkpt lat="46.11482" lon="3.47586">
        <ele>335</ele>
        <time>2018-01-28T11:43:27Z</time>
      </trkpt>
      <trkpt lat="46.11468" lon="3.47606">
        <ele>338</ele>
        <time>2018-01-28T11:43:40Z</time>
      </trkpt>
      <trkpt lat="46.11455" lon="3.47625">
        <ele>340</ele>
        <time>2018-01-28T11:43:53Z</time>
      </trkpt>
      <trkpt lat="46.11445" lon="3.47647">
        <ele>342</ele>
        <time>2018-01-28T11:44:05Z</time>
      </trkpt>
      <trkpt lat="46.11432" lon="3.47668">
        <ele>342</ele>
        <time>2018-01-28T11:44:20Z</time>
      </trkpt>
      <trkpt lat="46.11421" lon="3.47692">
        <ele>338</ele>
        <time>2018-01-28T11:44:34Z</time>
      </trkpt>
      <trkpt lat="46.11413" lon="3.47715">
        <ele>353</ele>
        <time>2018-01-28T11:44:46Z</time>
      </trkpt>
      <trkpt lat="46.114" lon="3.47737">
        <ele>350</ele>
        <time>2018-01-28T11:44:58Z</time>
      </trkpt>
      <trkpt lat="46.11389" lon="3.47758">
        <ele>344</ele>
        <time>2018-01-28T11:45:07Z</time>
      </trkpt>
      <trkpt lat="46.11376" lon="3.47777">
        <ele>345</ele>
        <time>2018-01-28T11:45:17Z</time>
      </trkpt>
      <trkpt lat="46.11394" lon="3.47771">
        <ele>342</ele>
        <time>2018-01-28T11:45:47Z</time>
      </trkpt>
      <trkpt lat="46.11396" lon="3.47743">
        <ele>350</ele>
        <time>2018-01-28T11:45:57Z</time>
      </trkpt>
      <trkpt lat="46.11402" lon="3.47717">
        <ele>354</ele>
        <time>2018-01-28T11:46:08Z</time>
      </trkpt>
      <trkpt lat="46.11413" lon="3.47696">
        <ele>355</ele>
        <time>2018-01-28T11:46:19Z</time>
      </trkpt>
      <trkpt lat="46.11424" lon="3.47674">
        <ele>345</ele>
        <time>2018-01-28T11:46:29Z</time>
      </trkpt>
      <trkpt lat="46.11429" lon="3.47649">
        <ele>346</ele>
        <time>2018-01-28T11:46:38Z</time>
      </trkpt>
      <trkpt lat="46.11421" lon="3.47623">
        <ele>346</ele>
        <time>2018-01-28T11:46:47Z</time>
      </trkpt>
      <trkpt lat="46.1141" lon="3.47599">
        <ele>360</ele>
        <time>2018-01-28T11:46:59Z</time>
      </trkpt>
      <trkpt lat="46.11394" lon="3.47584">
        <ele>361</ele>
        <time>2018-01-28T11:47:09Z</time>
      </trkpt>
      <trkpt lat="46.11377" lon="3.47574">
        <ele>359</ele>
        <time>2018-01-28T11:47:19Z</time>
      </trkpt>
      <trkpt lat="46.11359" lon="3.47567">
        <ele>360</ele>
        <time>2018-01-28T11:47:30Z</time>
      </trkpt>
      <trkpt lat="46.11341" lon="3.47561">
        <ele>360</ele>
        <time>2018-01-28T11:47:40Z</time>
      </trkpt>
      <trkpt lat="46.11321" lon="3.47556">
        <ele>365</ele>
        <time>2018-01-28T11:47:50Z</time>
      </trkpt>
      <trkpt lat="46.11302" lon="3.4755">
        <ele>366</ele>
        <time>2018-01-28T11:48:00Z</time>
      </trkpt>
      <trkpt lat="46.11285" lon="3.47539">
        <ele>366</ele>
        <time>2018-01-28T11:48:09Z</time>
      </trkpt>
      <trkpt lat="46.11266" lon="3.47531">
        <ele>366</ele>
        <time>2018-01-28T11:48:19Z</time>
      </trkpt>
      <trkpt lat="46.11247" lon="3.47526">
        <ele>372</ele>
        <time>2018-01-28T11:48:28Z</time>
      </trkpt>
      <trkpt lat="46.11228" lon="3.4752">
        <ele>372</ele>
        <time>2018-01-28T11:48:37Z</time>
      </trkpt>
      <trkpt lat="46.1121" lon="3.47526">
        <ele>374</ele>
        <time>2018-01-28T11:48:45Z</time>
      </trkpt>
      <trkpt lat="46.11192" lon="3.47537">
        <ele>376</ele>
        <time>2018-01-28T11:48:53Z</time>
      </trkpt>
      <trkpt lat="46.11174" lon="3.47546">
        <ele>377</ele>
        <time>2018-01-28T11:49:03Z</time>
      </trkpt>
      <trkpt lat="46.11167" lon="3.47569">
        <ele>381</ele>
        <time>2018-01-28T11:49:21Z</time>
      </trkpt>
      <trkpt lat="46.11185" lon="3.47571">
        <ele>379</ele>
        <time>2018-01-28T11:49:41Z</time>
      </trkpt>
      <trkpt lat="46.11202" lon="3.4758">
        <ele>377</ele>
        <time>2018-01-28T11:50:16Z</time>
      </trkpt>
      <trkpt lat="46.11198" lon="3.47606">
        <ele>384</ele>
        <time>2018-01-28T11:50:31Z</time>
      </trkpt>
      <trkpt lat="46.11194" lon="3.47631">
        <ele>385</ele>
        <time>2018-01-28T11:50:42Z</time>
      </trkpt>
      <trkpt lat="46.1119" lon="3.47657">
        <ele>387</ele>
        <time>2018-01-28T11:50:51Z</time>
      </trkpt>
      <trkpt lat="46.11186" lon="3.47683">
        <ele>391</ele>
        <time>2018-01-28T11:51:02Z</time>
      </trkpt>
      <trkpt lat="46.11181" lon="3.47709">
        <ele>391</ele>
        <time>2018-01-28T11:51:13Z</time>
      </trkpt>
      <trkpt lat="46.11166" lon="3.47724">
        <ele>398</ele>
        <time>2018-01-28T11:51:25Z</time>
      </trkpt>
      <trkpt lat="46.11149" lon="3.47732">
        <ele>399</ele>
        <time>2018-01-28T11:51:37Z</time>
      </trkpt>
      <trkpt lat="46.11131" lon="3.47747">
        <ele>400</ele>
        <time>2018-01-28T11:51:46Z</time>
      </trkpt>
      <trkpt lat="46.11112" lon="3.47754">
        <ele>400</ele>
        <time>2018-01-28T11:51:55Z</time>
      </trkpt>
      <trkpt lat="46.11093" lon="3.47754">
        <ele>403</ele>
        <time>2018-01-28T11:52:05Z</time>
      </trkpt>
      <trkpt lat="46.11075" lon="3.47752">
        <ele>406</ele>
        <time>2018-01-28T11:52:16Z</time>
      </trkpt>
      <trkpt lat="46.11055" lon="3.47752">
        <ele>407</ele>
        <time>2018-01-28T11:52:27Z</time>
      </trkpt>
      <trkpt lat="46.11037" lon="3.47754">
        <ele>408</ele>
        <time>2018-01-28T11:52:38Z</time>
      </trkpt>
      <trkpt lat="46.11018" lon="3.47758">
        <ele>409</ele>
        <time>2018-01-28T11:52:49Z</time>
      </trkpt>
      <trkpt lat="46.11" lon="3.47762">
        <ele>413</ele>
        <time>2018-01-28T11:53:00Z</time>
      </trkpt>
      <trkpt lat="46.10981" lon="3.47769">
        <ele>415</ele>
        <time>2018-01-28T11:53:12Z</time>
      </trkpt>
      <trkpt lat="46.10963" lon="3.47775">
        <ele>416</ele>
        <time>2018-01-28T11:53:23Z</time>
      </trkpt>
      <trkpt lat="46.10944" lon="3.4778">
        <ele>417</ele>
        <time>2018-01-28T11:53:34Z</time>
      </trkpt>
      <trkpt lat="46.10925" lon="3.47786">
        <ele>418</ele>
        <time>2018-01-28T11:53:43Z</time>
      </trkpt>
      <trkpt lat="46.10907" lon="3.47797">
        <ele>422</ele>
        <time>2018-01-28T11:53:52Z</time>
      </trkpt>
      <trkpt lat="46.1089" lon="3.47805">
        <ele>423</ele>
        <time>2018-01-28T11:54:00Z</time>
      </trkpt>
      <trkpt lat="46.10873" lon="3.47814">
        <ele>424</ele>
        <time>2018-01-28T11:54:08Z</time>
      </trkpt>
      <trkpt lat="46.10855" lon="3.47818">
        <ele>425</ele>
        <time>2018-01-28T11:54:16Z</time>
      </trkpt>
      <trkpt lat="46.10836" lon="3.47825">
        <ele>426</ele>
        <time>2018-01-28T11:54:24Z</time>
      </trkpt>
      <trkpt lat="46.10818" lon="3.47831">
        <ele>427</ele>
        <time>2018-01-28T11:54:32Z</time>
      </trkpt>
      <trkpt lat="46.10799" lon="3.47837">
        <ele>430</ele>
        <time>2018-01-28T11:54:41Z</time>
      </trkpt>
      <trkpt lat="46.10781" lon="3.47842">
        <ele>430</ele>
        <time>2018-01-28T11:54:49Z</time>
      </trkpt>
      <trkpt lat="46.10761" lon="3.47842">
        <ele>430</ele>
        <time>2018-01-28T11:54:57Z</time>
      </trkpt>
      <trkpt lat="46.10742" lon="3.4784">
        <ele>431</ele>
        <time>2018-01-28T11:55:05Z</time>
      </trkpt>
      <trkpt lat="46.10723" lon="3.47831">
        <ele>426</ele>
        <time>2018-01-28T11:55:13Z</time>
      </trkpt>
      <trkpt lat="46.10708" lon="3.47816">
        <ele>425</ele>
        <time>2018-01-28T11:55:19Z</time>
      </trkpt>
      <trkpt lat="46.10689" lon="3.47805">
        <ele>425</ele>
        <time>2018-01-28T11:55:25Z</time>
      </trkpt>
      <trkpt lat="46.10671" lon="3.47799">
        <ele>424</ele>
        <time>2018-01-28T11:55:31Z</time>
      </trkpt>
      <trkpt lat="46.10653" lon="3.47799">
        <ele>419</ele>
        <time>2018-01-28T11:55:36Z</time>
      </trkpt>
      <trkpt lat="46.10635" lon="3.47807">
        <ele>419</ele>
        <time>2018-01-28T11:55:43Z</time>
      </trkpt>
      <trkpt lat="46.10621" lon="3.47827">
        <ele>418</ele>
        <time>2018-01-28T11:55:53Z</time>
      </trkpt>
      <trkpt lat="46.1061" lon="3.47853">
        <ele>423</ele>
        <time>2018-01-28T11:56:03Z</time>
      </trkpt>
      <trkpt lat="46.10603" lon="3.47876">
        <ele>425</ele>
        <time>2018-01-28T11:56:11Z</time>
      </trkpt>
      <trkpt lat="46.10592" lon="3.479">
        <ele>426</ele>
        <time>2018-01-28T11:56:22Z</time>
      </trkpt>
      <trkpt lat="46.10583" lon="3.47923">
        <ele>424</ele>
        <time>2018-01-28T11:56:32Z</time>
      </trkpt>
      <trkpt lat="46.10575" lon="3.47947">
        <ele>422</ele>
        <time>2018-01-28T11:56:40Z</time>
      </trkpt>
      <trkpt lat="46.10569" lon="3.47973">
        <ele>422</ele>
        <time>2018-01-28T11:56:47Z</time>
      </trkpt>
      <trkpt lat="46.10565" lon="3.48001">
        <ele>425</ele>
        <time>2018-01-28T11:56:54Z</time>
      </trkpt>
      <trkpt lat="46.10561" lon="3.48026">
        <ele>423</ele>
        <time>2018-01-28T11:57:01Z</time>
      </trkpt>
      <trkpt lat="46.10559" lon="3.48054">
        <ele>423</ele>
        <time>2018-01-28T11:57:09Z</time>
      </trkpt>
      <trkpt lat="46.1056" lon="3.48082">
        <ele>424</ele>
        <time>2018-01-28T11:57:16Z</time>
      </trkpt>
      <trkpt lat="46.10556" lon="3.48108">
        <ele>424</ele>
        <time>2018-01-28T11:57:26Z</time>
      </trkpt>
      <trkpt lat="46.10544" lon="3.48129">
        <ele>423</ele>
        <time>2018-01-28T11:57:36Z</time>
      </trkpt>
      <trkpt lat="46.10531" lon="3.48151">
        <ele>422</ele>
        <time>2018-01-28T11:57:43Z</time>
      </trkpt>
      <trkpt lat="46.10517" lon="3.4817">
        <ele>420</ele>
        <time>2018-01-28T11:57:50Z</time>
      </trkpt>
      <trkpt lat="46.10505" lon="3.48194">
        <ele>420</ele>
        <time>2018-01-28T11:57:58Z</time>
      </trkpt>
      <trkpt lat="46.10493" lon="3.48215">
        <ele>413</ele>
        <time>2018-01-28T11:58:06Z</time>
      </trkpt>
      <trkpt lat="46.10481" lon="3.48237">
        <ele>413</ele>
        <time>2018-01-28T11:58:17Z</time>
      </trkpt>
      <trkpt lat="46.10472" lon="3.4826">
        <ele>408</ele>
        <time>2018-01-28T11:58:29Z</time>
      </trkpt>
      <trkpt lat="46.10464" lon="3.48284">
        <ele>406</ele>
        <time>2018-01-28T11:58:38Z</time>
      </trkpt>
      <trkpt lat="46.10465" lon="3.48314">
        <ele>404</ele>
        <time>2018-01-28T11:58:46Z</time>
      </trkpt>
      <trkpt lat="46.1047" lon="3.4834">
        <ele>391</ele>
        <time>2018-01-28T11:58:54Z</time>
      </trkpt>
      <trkpt lat="46.10473" lon="3.48365">
        <ele>388</ele>
        <time>2018-01-28T11:59:03Z</time>
      </trkpt>
      <trkpt lat="46.10481" lon="3.48389">
        <ele>384</ele>
        <time>2018-01-28T11:59:11Z</time>
      </trkpt>
      <trkpt lat="46.10494" lon="3.48408">
        <ele>379</ele>
        <time>2018-01-28T11:59:18Z</time>
      </trkpt>
      <trkpt lat="46.1051" lon="3.48423">
        <ele>375</ele>
        <time>2018-01-28T11:59:25Z</time>
      </trkpt>
      <trkpt lat="46.10526" lon="3.48436">
        <ele>374</ele>
        <time>2018-01-28T11:59:32Z</time>
      </trkpt>
      <trkpt lat="46.10544" lon="3.48449">
        <ele>373</ele>
        <time>2018-01-28T11:59:40Z</time>
      </trkpt>
      <trkpt lat="46.10559" lon="3.48466">
        <ele>372</ele>
        <time>2018-01-28T11:59:50Z</time>
      </trkpt>
      <trkpt lat="46.10573" lon="3.48483">
        <ele>370</ele>
        <time>2018-01-28T11:59:59Z</time>
      </trkpt>
      <trkpt lat="46.10585" lon="3.48503">
        <ele>366</ele>
        <time>2018-01-28T12:00:06Z</time>
      </trkpt>
      <trkpt lat="46.10599" lon="3.48524">
        <ele>361</ele>
        <time>2018-01-28T12:00:12Z</time>
      </trkpt>
      <trkpt lat="46.10613" lon="3.48543">
        <ele>358</ele>
        <time>2018-01-28T12:00:19Z</time>
      </trkpt>
      <trkpt lat="46.10624" lon="3.48567">
        <ele>356</ele>
        <time>2018-01-28T12:00:28Z</time>
      </trkpt>
      <trkpt lat="46.10637" lon="3.48589">
        <ele>347</ele>
        <time>2018-01-28T12:00:38Z</time>
      </trkpt>
      <trkpt lat="46.10645" lon="3.48612">
        <ele>345</ele>
        <time>2018-01-28T12:00:47Z</time>
      </trkpt>
      <trkpt lat="46.1065" lon="3.48638">
        <ele>342</ele>
        <time>2018-01-28T12:00:56Z</time>
      </trkpt>
      <trkpt lat="46.10655" lon="3.48664">
        <ele>338</ele>
        <time>2018-01-28T12:01:08Z</time>
      </trkpt>
      <trkpt lat="46.10651" lon="3.48689">
        <ele>334</ele>
        <time>2018-01-28T12:01:25Z</time>
      </trkpt>
      <trkpt lat="46.10643" lon="3.48715">
        <ele>332</ele>
        <time>2018-01-28T12:01:42Z</time>
      </trkpt>
      <trkpt lat="46.10639" lon="3.48741">
        <ele>330</ele>
        <time>2018-01-28T12:01:58Z</time>
      </trkpt>
      <trkpt lat="46.10636" lon="3.48767">
        <ele>327</ele>
        <time>2018-01-28T12:02:21Z</time>
      </trkpt>
      <trkpt lat="46.10654" lon="3.48764">
        <ele>324</ele>
        <time>2018-01-28T12:02:38Z</time>
      </trkpt>
      <trkpt lat="46.10671" lon="3.48754">
        <ele>317</ele>
        <time>2018-01-28T12:03:00Z</time>
      </trkpt>
      <trkpt lat="46.10674" lon="3.48728">
        <ele>321</ele>
        <time>2018-01-28T12:04:36Z</time>
      </trkpt>
      <trkpt lat="46.1066" lon="3.48711">
        <ele>331</ele>
        <time>2018-01-28T12:05:05Z</time>
      </trkpt>
      <trkpt lat="46.10644" lon="3.48696">
        <ele>333</ele>
        <time>2018-01-28T12:05:16Z</time>
      </trkpt>
      <trkpt lat="46.10637" lon="3.4867">
        <ele>335</ele>
        <time>2018-01-28T12:05:29Z</time>
      </trkpt>
      <trkpt lat="46.10624" lon="3.48651">
        <ele>342</ele>
        <time>2018-01-28T12:05:40Z</time>
      </trkpt>
      <trkpt lat="46.10611" lon="3.48631">
        <ele>343</ele>
        <time>2018-01-28T12:05:50Z</time>
      </trkpt>
      <trkpt lat="46.10594" lon="3.48619">
        <ele>344</ele>
        <time>2018-01-28T12:06:01Z</time>
      </trkpt>
      <trkpt lat="46.10579" lon="3.48601">
        <ele>348</ele>
        <time>2018-01-28T12:06:20Z</time>
      </trkpt>
      <trkpt lat="46.10567" lon="3.4858">
        <ele>349</ele>
        <time>2018-01-28T12:06:35Z</time>
      </trkpt>
      <trkpt lat="46.10556" lon="3.48556">
        <ele>352</ele>
        <time>2018-01-28T12:06:45Z</time>
      </trkpt>
      <trkpt lat="46.1054" lon="3.48539">
        <ele>353</ele>
        <time>2018-01-28T12:06:57Z</time>
      </trkpt>
      <trkpt lat="46.10524" lon="3.48526">
        <ele>353</ele>
        <time>2018-01-28T12:07:07Z</time>
      </trkpt>
      <trkpt lat="46.10506" lon="3.48518">
        <ele>351</ele>
        <time>2018-01-28T12:07:18Z</time>
      </trkpt>
      <trkpt lat="46.10488" lon="3.48511">
        <ele>349</ele>
        <time>2018-01-28T12:07:28Z</time>
      </trkpt>
      <trkpt lat="46.10468" lon="3.48509">
        <ele>349</ele>
        <time>2018-01-28T12:07:38Z</time>
      </trkpt>
      <trkpt lat="46.10448" lon="3.48505">
        <ele>348</ele>
        <time>2018-01-28T12:07:46Z</time>
      </trkpt>
      <trkpt lat="46.1043" lon="3.48496">
        <ele>350</ele>
        <time>2018-01-28T12:07:52Z</time>
      </trkpt>
      <trkpt lat="46.10412" lon="3.4849">
        <ele>348</ele>
        <time>2018-01-28T12:07:58Z</time>
      </trkpt>
      <trkpt lat="46.10393" lon="3.48481">
        <ele>352</ele>
        <time>2018-01-28T12:08:05Z</time>
      </trkpt>
      <trkpt lat="46.10375" lon="3.48471">
        <ele>354</ele>
        <time>2018-01-28T12:08:13Z</time>
      </trkpt>
      <trkpt lat="46.10359" lon="3.48458">
        <ele>355</ele>
        <time>2018-01-28T12:08:21Z</time>
      </trkpt>
      <trkpt lat="46.10344" lon="3.48443">
        <ele>356</ele>
        <time>2018-01-28T12:08:30Z</time>
      </trkpt>
      <trkpt lat="46.10326" lon="3.4843">
        <ele>358</ele>
        <time>2018-01-28T12:08:40Z</time>
      </trkpt>
      <trkpt lat="46.1031" lon="3.48415">
        <ele>362</ele>
        <time>2018-01-28T12:08:48Z</time>
      </trkpt>
      <trkpt lat="46.10292" lon="3.48406">
        <ele>362</ele>
        <time>2018-01-28T12:08:55Z</time>
      </trkpt>
      <trkpt lat="46.10275" lon="3.48391">
        <ele>362</ele>
        <time>2018-01-28T12:09:02Z</time>
      </trkpt>
      <trkpt lat="46.10259" lon="3.48378">
        <ele>363</ele>
        <time>2018-01-28T12:09:08Z</time>
      </trkpt>
      <trkpt lat="46.10243" lon="3.48365">
        <ele>363</ele>
        <time>2018-01-28T12:09:15Z</time>
      </trkpt>
      <trkpt lat="46.10228" lon="3.48346">
        <ele>364</ele>
        <time>2018-01-28T12:09:22Z</time>
      </trkpt>
      <trkpt lat="46.10212" lon="3.48329">
        <ele>366</ele>
        <time>2018-01-28T12:09:28Z</time>
      </trkpt>
      <trkpt lat="46.10196" lon="3.48316">
        <ele>366</ele>
        <time>2018-01-28T12:09:34Z</time>
      </trkpt>
      <trkpt lat="46.10178" lon="3.48305">
        <ele>365</ele>
        <time>2018-01-28T12:09:42Z</time>
      </trkpt>
      <trkpt lat="46.10162" lon="3.48292">
        <ele>362</ele>
        <time>2018-01-28T12:09:51Z</time>
      </trkpt>
      <trkpt lat="46.10148" lon="3.48275">
        <ele>363</ele>
        <time>2018-01-28T12:10:00Z</time>
      </trkpt>
      <trkpt lat="46.10133" lon="3.48258">
        <ele>362</ele>
        <time>2018-01-28T12:10:09Z</time>
      </trkpt>
      <trkpt lat="46.10115" lon="3.48245">
        <ele>363</ele>
        <time>2018-01-28T12:10:16Z</time>
      </trkpt>
      <trkpt lat="46.10102" lon="3.48228">
        <ele>363</ele>
        <time>2018-01-28T12:10:26Z</time>
      </trkpt>
      <trkpt lat="46.10094" lon="3.48202">
        <ele>364</ele>
        <time>2018-01-28T12:10:39Z</time>
      </trkpt>
      <trkpt lat="46.10086" lon="3.48179">
        <ele>364</ele>
        <time>2018-01-28T12:10:48Z</time>
      </trkpt>
      <trkpt lat="46.10077" lon="3.48155">
        <ele>366</ele>
        <time>2018-01-28T12:10:57Z</time>
      </trkpt>
      <trkpt lat="46.1007" lon="3.48129">
        <ele>369</ele>
        <time>2018-01-28T12:11:04Z</time>
      </trkpt>
      <trkpt lat="46.10063" lon="3.48106">
        <ele>371</ele>
        <time>2018-01-28T12:11:12Z</time>
      </trkpt>
      <trkpt lat="46.10052" lon="3.4808">
        <ele>377</ele>
        <time>2018-01-28T12:11:21Z</time>
      </trkpt>
      <trkpt lat="46.10045" lon="3.48056">
        <ele>379</ele>
        <time>2018-01-28T12:11:31Z</time>
      </trkpt>
      <trkpt lat="46.10038" lon="3.48031">
        <ele>380</ele>
        <time>2018-01-28T12:11:42Z</time>
      </trkpt>
      <trkpt lat="46.10032" lon="3.48005">
        <ele>381</ele>
        <time>2018-01-28T12:11:52Z</time>
      </trkpt>
      <trkpt lat="46.10024" lon="3.47979">
        <ele>386</ele>
        <time>2018-01-28T12:12:01Z</time>
      </trkpt>
      <trkpt lat="46.10018" lon="3.47953">
        <ele>386</ele>
        <time>2018-01-28T12:12:09Z</time>
      </trkpt>
      <trkpt lat="46.10015" lon="3.47928">
        <ele>387</ele>
        <time>2018-01-28T12:12:19Z</time>
      </trkpt>
      <trkpt lat="46.1001" lon="3.47902">
        <ele>388</ele>
        <time>2018-01-28T12:12:29Z</time>
      </trkpt>
      <trkpt lat="46.10003" lon="3.47878">
        <ele>388</ele>
        <time>2018-01-28T12:12:36Z</time>
      </trkpt>
      <trkpt lat="46.09995" lon="3.47855">
        <ele>386</ele>
        <time>2018-01-28T12:12:44Z</time>
      </trkpt>
      <trkpt lat="46.09988" lon="3.47829">
        <ele>386</ele>
        <time>2018-01-28T12:12:53Z</time>
      </trkpt>
      <trkpt lat="46.09982" lon="3.47801">
        <ele>386</ele>
        <time>2018-01-28T12:13:02Z</time>
      </trkpt>
      <trkpt lat="46.09978" lon="3.47775">
        <ele>386</ele>
        <time>2018-01-28T12:13:10Z</time>
      </trkpt>
      <trkpt lat="46.09972" lon="3.47747">
        <ele>386</ele>
        <time>2018-01-28T12:13:19Z</time>
      </trkpt>
      <trkpt lat="46.09964" lon="3.47719">
        <ele>386</ele>
        <time>2018-01-28T12:13:27Z</time>
      </trkpt>
      <trkpt lat="46.09957" lon="3.47694">
        <ele>386</ele>
        <time>2018-01-28T12:13:34Z</time>
      </trkpt>
      <trkpt lat="46.09951" lon="3.47666">
        <ele>387</ele>
        <time>2018-01-28T12:13:40Z</time>
      </trkpt>
      <trkpt lat="46.09944" lon="3.4764">
        <ele>388</ele>
        <time>2018-01-28T12:13:47Z</time>
      </trkpt>
      <trkpt lat="46.09938" lon="3.47614">
        <ele>388</ele>
        <time>2018-01-28T12:13:55Z</time>
      </trkpt>
      <trkpt lat="46.0995" lon="3.47593">
        <ele>388</ele>
        <time>2018-01-28T12:14:05Z</time>
      </trkpt>
      <trkpt lat="46.0997" lon="3.47593">
        <ele>389</ele>
        <time>2018-01-28T12:14:13Z</time>
      </trkpt>
      <trkpt lat="46.09988" lon="3.47593">
        <ele>390</ele>
        <time>2018-01-28T12:14:21Z</time>
      </trkpt>
      <trkpt lat="46.10006" lon="3.47593">
        <ele>391</ele>
        <time>2018-01-28T12:14:29Z</time>
      </trkpt>
      <trkpt lat="46.10024" lon="3.47593">
        <ele>390</ele>
        <time>2018-01-28T12:14:36Z</time>
      </trkpt>
      <trkpt lat="46.10044" lon="3.47584">
        <ele>390</ele>
        <time>2018-01-28T12:14:44Z</time>
      </trkpt>
      <trkpt lat="46.10061" lon="3.47571">
        <ele>392</ele>
        <time>2018-01-28T12:14:52Z</time>
      </trkpt>
      <trkpt lat="46.10078" lon="3.47559">
        <ele>392</ele>
        <time>2018-01-28T12:15:00Z</time>
      </trkpt>
      <trkpt lat="46.10095" lon="3.47544">
        <ele>391</ele>
        <time>2018-01-28T12:15:08Z</time>
      </trkpt>
      <trkpt lat="46.10113" lon="3.47531">
        <ele>391</ele>
        <time>2018-01-28T12:15:16Z</time>
      </trkpt>
      <trkpt lat="46.10119" lon="3.47503">
        <ele>391</ele>
        <time>2018-01-28T12:15:24Z</time>
      </trkpt>
      <trkpt lat="46.10119" lon="3.47475">
        <ele>393</ele>
        <time>2018-01-28T12:15:32Z</time>
      </trkpt>
      <trkpt lat="46.1012" lon="3.47447">
        <ele>393</ele>
        <time>2018-01-28T12:15:39Z</time>
      </trkpt>
      <trkpt lat="46.10125" lon="3.47419">
        <ele>393</ele>
        <time>2018-01-28T12:15:47Z</time>
      </trkpt>
      <trkpt lat="46.10135" lon="3.47393">
        <ele>393</ele>
        <time>2018-01-28T12:15:55Z</time>
      </trkpt>
      <trkpt lat="46.10147" lon="3.47372">
        <ele>393</ele>
        <time>2018-01-28T12:16:03Z</time>
      </trkpt>
      <trkpt lat="46.10157" lon="3.47348">
        <ele>392</ele>
        <time>2018-01-28T12:16:11Z</time>
      </trkpt>
      <trkpt lat="46.10168" lon="3.47325">
        <ele>389</ele>
        <time>2018-01-28T12:16:19Z</time>
      </trkpt>
      <trkpt lat="46.10176" lon="3.47299">
        <ele>389</ele>
        <time>2018-01-28T12:16:36Z</time>
      </trkpt>
      <trkpt lat="46.10186" lon="3.47275">
        <ele>390</ele>
        <time>2018-01-28T12:16:51Z</time>
      </trkpt>
      <trkpt lat="46.10196" lon="3.47252">
        <ele>390</ele>
        <time>2018-01-28T12:17:05Z</time>
      </trkpt>
      <trkpt lat="46.10207" lon="3.4723">
        <ele>390</ele>
        <time>2018-01-28T12:17:20Z</time>
      </trkpt>
      <trkpt lat="46.10216" lon="3.47207">
        <ele>390</ele>
        <time>2018-01-28T12:17:34Z</time>
      </trkpt>
      <trkpt lat="46.10228" lon="3.47185">
        <ele>389</ele>
        <time>2018-01-28T12:17:48Z</time>
      </trkpt>
      <trkpt lat="46.10241" lon="3.47166">
        <ele>389</ele>
        <time>2018-01-28T12:18:02Z</time>
      </trkpt>
      <trkpt lat="46.10255" lon="3.47147">
        <ele>387</ele>
        <time>2018-01-28T12:18:15Z</time>
      </trkpt>
      <trkpt lat="46.10268" lon="3.47125">
        <ele>387</ele>
        <time>2018-01-28T12:18:28Z</time>
      </trkpt>
      <trkpt lat="46.10283" lon="3.4711">
        <ele>387</ele>
        <time>2018-01-28T12:18:35Z</time>
      </trkpt>
      <trkpt lat="46.10301" lon="3.47099">
        <ele>386</ele>
        <time>2018-01-28T12:18:43Z</time>
      </trkpt>
      <trkpt lat="46.1032" lon="3.47089">
        <ele>386</ele>
        <time>2018-01-28T12:18:51Z</time>
      </trkpt>
      <trkpt lat="46.10335" lon="3.47074">
        <ele>387</ele>
        <time>2018-01-28T12:18:59Z</time>
      </trkpt>
      <trkpt lat="46.10329" lon="3.47048">
        <ele>391</ele>
        <time>2018-01-28T12:19:09Z</time>
      </trkpt>
      <trkpt lat="46.10323" lon="3.47022">
        <ele>392</ele>
        <time>2018-01-28T12:19:19Z</time>
      </trkpt>
      <trkpt lat="46.10315" lon="3.46999">
        <ele>397</ele>
        <time>2018-01-28T12:19:30Z</time>
      </trkpt>
      <trkpt lat="46.10306" lon="3.46973">
        <ele>399</ele>
        <time>2018-01-28T12:19:41Z</time>
      </trkpt>
      <trkpt lat="46.10302" lon="3.46947">
        <ele>400</ele>
        <time>2018-01-28T12:19:52Z</time>
      </trkpt>
      <trkpt lat="46.10319" lon="3.46938">
        <ele>400</ele>
        <time>2018-01-28T12:20:00Z</time>
      </trkpt>
      <trkpt lat="46.10338" lon="3.46934">
        <ele>399</ele>
        <time>2018-01-28T12:20:08Z</time>
      </trkpt>
      <trkpt lat="46.10357" lon="3.4693">
        <ele>398</ele>
        <time>2018-01-28T12:20:16Z</time>
      </trkpt>
      <trkpt lat="46.10376" lon="3.46921">
        <ele>398</ele>
        <time>2018-01-28T12:20:24Z</time>
      </trkpt>
      <trkpt lat="46.10394" lon="3.46911">
        <ele>403</ele>
        <time>2018-01-28T12:20:32Z</time>
      </trkpt>
      <trkpt lat="46.10413" lon="3.46902">
        <ele>402</ele>
        <time>2018-01-28T12:20:39Z</time>
      </trkpt>
      <trkpt lat="46.1043" lon="3.46893">
        <ele>403</ele>
        <time>2018-01-28T12:20:46Z</time>
      </trkpt>
      <trkpt lat="46.10447" lon="3.46885">
        <ele>404</ele>
        <time>2018-01-28T12:20:53Z</time>
      </trkpt>
      <trkpt lat="46.10466" lon="3.46876">
        <ele>404</ele>
        <time>2018-01-28T12:21:01Z</time>
      </trkpt>
      <trkpt lat="46.10486" lon="3.4687">
        <ele>405</ele>
        <time>2018-01-28T12:21:10Z</time>
      </trkpt>
      <trkpt lat="46.10505" lon="3.46865">
        <ele>403</ele>
        <time>2018-01-28T12:21:18Z</time>
      </trkpt>
      <trkpt lat="46.10524" lon="3.46859">
        <ele>403</ele>
        <time>2018-01-28T12:21:26Z</time>
      </trkpt>
      <trkpt lat="46.10545" lon="3.4685">
        <ele>402</ele>
        <time>2018-01-28T12:21:34Z</time>
      </trkpt>
      <trkpt lat="46.10563" lon="3.46844">
        <ele>402</ele>
        <time>2018-01-28T12:21:42Z</time>
      </trkpt>
      <trkpt lat="46.10579" lon="3.46831">
        <ele>404</ele>
        <time>2018-01-28T12:21:50Z</time>
      </trkpt>
      <trkpt lat="46.10595" lon="3.46818">
        <ele>405</ele>
        <time>2018-01-28T12:21:58Z</time>
      </trkpt>
      <trkpt lat="46.10612" lon="3.46808">
        <ele>405</ele>
        <time>2018-01-28T12:22:07Z</time>
      </trkpt>
      <trkpt lat="46.10632" lon="3.46801">
        <ele>405</ele>
        <time>2018-01-28T12:22:17Z</time>
      </trkpt>
      <trkpt lat="46.1065" lon="3.46797">
        <ele>405</ele>
        <time>2018-01-28T12:22:25Z</time>
      </trkpt>
      <trkpt lat="46.10669" lon="3.4679">
        <ele>404</ele>
        <time>2018-01-28T12:22:31Z</time>
      </trkpt>
      <trkpt lat="46.10687" lon="3.46777">
        <ele>404</ele>
        <time>2018-01-28T12:22:39Z</time>
      </trkpt>
      <trkpt lat="46.107" lon="3.46758">
        <ele>405</ele>
        <time>2018-01-28T12:22:47Z</time>
      </trkpt>
      <trkpt lat="46.10713" lon="3.46739">
        <ele>409</ele>
        <time>2018-01-28T12:22:54Z</time>
      </trkpt>
      <trkpt lat="46.10725" lon="3.46717">
        <ele>409</ele>
        <time>2018-01-28T12:23:01Z</time>
      </trkpt>
      <trkpt lat="46.10736" lon="3.46694">
        <ele>410</ele>
        <time>2018-01-28T12:23:08Z</time>
      </trkpt>
      <trkpt lat="46.10747" lon="3.4667">
        <ele>411</ele>
        <time>2018-01-28T12:23:15Z</time>
      </trkpt>
      <trkpt lat="46.10759" lon="3.46649">
        <ele>409</ele>
        <time>2018-01-28T12:23:22Z</time>
      </trkpt>
      <trkpt lat="46.1077" lon="3.46625">
        <ele>409</ele>
        <time>2018-01-28T12:23:30Z</time>
      </trkpt>
      <trkpt lat="46.10779" lon="3.46602">
        <ele>409</ele>
        <time>2018-01-28T12:23:38Z</time>
      </trkpt>
      <trkpt lat="46.10777" lon="3.46574">
        <ele>412</ele>
        <time>2018-01-28T12:23:45Z</time>
      </trkpt>
      <trkpt lat="46.10774" lon="3.46548">
        <ele>412</ele>
        <time>2018-01-28T12:23:52Z</time>
      </trkpt>
      <trkpt lat="46.10772" lon="3.4652">
        <ele>413</ele>
        <time>2018-01-28T12:23:59Z</time>
      </trkpt>
      <trkpt lat="46.10786" lon="3.46503">
        <ele>413</ele>
        <time>2018-01-28T12:24:08Z</time>
      </trkpt>
      <trkpt lat="46.10805" lon="3.46499">
        <ele>414</ele>
        <time>2018-01-28T12:24:16Z</time>
      </trkpt>
      <trkpt lat="46.10825" lon="3.46494">
        <ele>413</ele>
        <time>2018-01-28T12:24:24Z</time>
      </trkpt>
      <trkpt lat="46.10843" lon="3.4649">
        <ele>410</ele>
        <time>2018-01-28T12:24:32Z</time>
      </trkpt>
      <trkpt lat="46.10861" lon="3.46492">
        <ele>409</ele>
        <time>2018-01-28T12:24:40Z</time>
      </trkpt>
      <trkpt lat="46.1088" lon="3.4649">
        <ele>407</ele>
        <time>2018-01-28T12:24:48Z</time>
      </trkpt>
      <trkpt lat="46.10899" lon="3.46486">
        <ele>405</ele>
        <time>2018-01-28T12:24:55Z</time>
      </trkpt>
      <trkpt lat="46.10918" lon="3.46479">
        <ele>401</ele>
        <time>2018-01-28T12:25:03Z</time>
      </trkpt>
      <trkpt lat="46.10938" lon="3.46475">
        <ele>401</ele>
        <time>2018-01-28T12:25:11Z</time>
      </trkpt>
      <trkpt lat="46.10957" lon="3.46471">
        <ele>400</ele>
        <time>2018-01-28T12:25:18Z</time>
      </trkpt>
      <trkpt lat="46.10977" lon="3.46471">
        <ele>399</ele>
        <time>2018-01-28T12:25:25Z</time>
      </trkpt>
      <trkpt lat="46.10996" lon="3.46468">
        <ele>399</ele>
        <time>2018-01-28T12:25:32Z</time>
      </trkpt>
      <trkpt lat="46.11016" lon="3.46466">
        <ele>397</ele>
        <time>2018-01-28T12:25:39Z</time>
      </trkpt>
      <trkpt lat="46.11034" lon="3.46466">
        <ele>397</ele>
        <time>2018-01-28T12:25:46Z</time>
      </trkpt>
      <trkpt lat="46.11052" lon="3.46466">
        <ele>397</ele>
        <time>2018-01-28T12:25:53Z</time>
      </trkpt>
      <trkpt lat="46.11071" lon="3.46466">
        <ele>397</ele>
        <time>2018-01-28T12:26:00Z</time>
      </trkpt>
      <trkpt lat="46.11091" lon="3.46468">
        <ele>397</ele>
        <time>2018-01-28T12:26:08Z</time>
      </trkpt>
      <trkpt lat="46.1111" lon="3.46471">
        <ele>397</ele>
        <time>2018-01-28T12:26:16Z</time>
      </trkpt>
      <trkpt lat="46.11129" lon="3.46475">
        <ele>397</ele>
        <time>2018-01-28T12:26:24Z</time>
      </trkpt>
      <trkpt lat="46.11149" lon="3.46477">
        <ele>397</ele>
        <time>2018-01-28T12:26:32Z</time>
      </trkpt>
      <trkpt lat="46.11168" lon="3.46477">
        <ele>396</ele>
        <time>2018-01-28T12:26:40Z</time>
      </trkpt>
      <trkpt lat="46.11186" lon="3.46475">
        <ele>396</ele>
        <time>2018-01-28T12:26:49Z</time>
      </trkpt>
      <trkpt lat="46.11204" lon="3.46471">
        <ele>397</ele>
        <time>2018-01-28T12:26:57Z</time>
      </trkpt>
      <trkpt lat="46.11224" lon="3.46468">
        <ele>396</ele>
        <time>2018-01-28T12:27:04Z</time>
      </trkpt>
      <trkpt lat="46.11243" lon="3.46468">
        <ele>396</ele>
        <time>2018-01-28T12:27:11Z</time>
      </trkpt>
      <trkpt lat="46.11262" lon="3.46468">
        <ele>396</ele>
        <time>2018-01-28T12:27:18Z</time>
      </trkpt>
      <trkpt lat="46.11283" lon="3.46468">
        <ele>396</ele>
        <time>2018-01-28T12:27:25Z</time>
      </trkpt>
      <trkpt lat="46.11302" lon="3.46468">
        <ele>396</ele>
        <time>2018-01-28T12:27:32Z</time>
      </trkpt>
      <trkpt lat="46.11321" lon="3.46468">
        <ele>396</ele>
        <time>2018-01-28T12:27:39Z</time>
      </trkpt>
      <trkpt lat="46.11341" lon="3.46473">
        <ele>396</ele>
        <time>2018-01-28T12:27:46Z</time>
      </trkpt>
      <trkpt lat="46.1136" lon="3.46477">
        <ele>396</ele>
        <time>2018-01-28T12:27:53Z</time>
      </trkpt>
      <trkpt lat="46.11378" lon="3.46481">
        <ele>395</ele>
        <time>2018-01-28T12:28:00Z</time>
      </trkpt>
      <trkpt lat="46.11395" lon="3.46496">
        <ele>394</ele>
        <time>2018-01-28T12:28:08Z</time>
      </trkpt>
      <trkpt lat="46.11413" lon="3.46511">
        <ele>390</ele>
        <time>2018-01-28T12:28:16Z</time>
      </trkpt>
      <trkpt lat="46.11432" lon="3.46518">
        <ele>388</ele>
        <time>2018-01-28T12:28:23Z</time>
      </trkpt>
      <trkpt lat="46.1145" lon="3.46518">
        <ele>386</ele>
        <time>2018-01-28T12:28:29Z</time>
      </trkpt>
      <trkpt lat="46.11469" lon="3.46514">
        <ele>386</ele>
        <time>2018-01-28T12:28:36Z</time>
      </trkpt>
      <trkpt lat="46.11488" lon="3.46505">
        <ele>386</ele>
        <time>2018-01-28T12:28:43Z</time>
      </trkpt>
      <trkpt lat="46.11505" lon="3.46492">
        <ele>385</ele>
        <time>2018-01-28T12:28:50Z</time>
      </trkpt>
      <trkpt lat="46.1152" lon="3.46473">
        <ele>384</ele>
        <time>2018-01-28T12:28:58Z</time>
      </trkpt>
      <trkpt lat="46.11534" lon="3.46451">
        <ele>383</ele>
        <time>2018-01-28T12:29:05Z</time>
      </trkpt>
      <trkpt lat="46.11549" lon="3.4643">
        <ele>383</ele>
        <time>2018-01-28T12:29:12Z</time>
      </trkpt>
      <trkpt lat="46.11562" lon="3.46411">
        <ele>384</ele>
        <time>2018-01-28T12:29:22Z</time>
      </trkpt>
      <trkpt lat="46.11576" lon="3.46391">
        <ele>384</ele>
        <time>2018-01-28T12:30:15Z</time>
      </trkpt>
      <trkpt lat="46.11593" lon="3.46378">
        <ele>379</ele>
        <time>2018-01-28T12:30:25Z</time>
      </trkpt>
      <trkpt lat="46.1161" lon="3.46365">
        <ele>379</ele>
        <time>2018-01-28T12:30:33Z</time>
      </trkpt>
      <trkpt lat="46.11627" lon="3.4635">
        <ele>379</ele>
        <time>2018-01-28T12:30:40Z</time>
      </trkpt>
      <trkpt lat="46.11645" lon="3.46346">
        <ele>378</ele>
        <time>2018-01-28T12:30:47Z</time>
      </trkpt>
      <trkpt lat="46.11665" lon="3.46348">
        <ele>378</ele>
        <time>2018-01-28T12:30:54Z</time>
      </trkpt>
      <trkpt lat="46.11683" lon="3.46346">
        <ele>374</ele>
        <time>2018-01-28T12:31:01Z</time>
      </trkpt>
      <trkpt lat="46.11702" lon="3.46342">
        <ele>373</ele>
        <time>2018-01-28T12:31:08Z</time>
      </trkpt>
      <trkpt lat="46.11722" lon="3.4634">
        <ele>371</ele>
        <time>2018-01-28T12:31:15Z</time>
      </trkpt>
      <trkpt lat="46.11741" lon="3.46342">
        <ele>371</ele>
        <time>2018-01-28T12:31:23Z</time>
      </trkpt>
      <trkpt lat="46.1176" lon="3.46342">
        <ele>367</ele>
        <time>2018-01-28T12:31:31Z</time>
      </trkpt>
      <trkpt lat="46.11778" lon="3.46333">
        <ele>370</ele>
        <time>2018-01-28T12:31:38Z</time>
      </trkpt>
      <trkpt lat="46.11798" lon="3.46325">
        <ele>369</ele>
        <time>2018-01-28T12:31:45Z</time>
      </trkpt>
      <trkpt lat="46.11815" lon="3.46314">
        <ele>368</ele>
        <time>2018-01-28T12:31:52Z</time>
      </trkpt>
      <trkpt lat="46.11832" lon="3.46303">
        <ele>368</ele>
        <time>2018-01-28T12:31:59Z</time>
      </trkpt>
      <trkpt lat="46.11849" lon="3.46295">
        <ele>364</ele>
        <time>2018-01-28T12:32:06Z</time>
      </trkpt>
      <trkpt lat="46.11866" lon="3.46286">
        <ele>363</ele>
        <time>2018-01-28T12:32:13Z</time>
      </trkpt>
      <trkpt lat="46.11885" lon="3.46278">
        <ele>363</ele>
        <time>2018-01-28T12:32:21Z</time>
      </trkpt>
      <trkpt lat="46.11903" lon="3.46269">
        <ele>362</ele>
        <time>2018-01-28T12:32:28Z</time>
      </trkpt>
      <trkpt lat="46.1192" lon="3.4626">
        <ele>360</ele>
        <time>2018-01-28T12:32:34Z</time>
      </trkpt>
      <trkpt lat="46.11937" lon="3.46252">
        <ele>358</ele>
        <time>2018-01-28T12:32:40Z</time>
      </trkpt>
      <trkpt lat="46.11955" lon="3.46241">
        <ele>362</ele>
        <time>2018-01-28T12:32:48Z</time>
      </trkpt>
      <trkpt lat="46.11973" lon="3.46228">
        <ele>361</ele>
        <time>2018-01-28T12:32:56Z</time>
      </trkpt>
      <trkpt lat="46.11992" lon="3.46222">
        <ele>361</ele>
        <time>2018-01-28T12:33:04Z</time>
      </trkpt>
      <trkpt lat="46.12012" lon="3.4622">
        <ele>357</ele>
        <time>2018-01-28T12:33:12Z</time>
      </trkpt>
      <trkpt lat="46.12031" lon="3.46215">
        <ele>357</ele>
        <time>2018-01-28T12:33:20Z</time>
      </trkpt>
      <trkpt lat="46.12049" lon="3.46213">
        <ele>356</ele>
        <time>2018-01-28T12:33:27Z</time>
      </trkpt>
      <trkpt lat="46.12067" lon="3.46211">
        <ele>356</ele>
        <time>2018-01-28T12:33:35Z</time>
      </trkpt>
      <trkpt lat="46.12087" lon="3.46211">
        <ele>353</ele>
        <time>2018-01-28T12:33:42Z</time>
      </trkpt>
      <trkpt lat="46.12106" lon="3.46211">
        <ele>353</ele>
        <time>2018-01-28T12:33:49Z</time>
      </trkpt>
      <trkpt lat="46.12124" lon="3.46211">
        <ele>353</ele>
        <time>2018-01-28T12:33:56Z</time>
      </trkpt>
      <trkpt lat="46.12143" lon="3.46213">
        <ele>353</ele>
        <time>2018-01-28T12:34:03Z</time>
      </trkpt>
      <trkpt lat="46.12159" lon="3.46228">
        <ele>351</ele>
        <time>2018-01-28T12:34:12Z</time>
      </trkpt>
      <trkpt lat="46.1216" lon="3.46256">
        <ele>347</ele>
        <time>2018-01-28T12:34:21Z</time>
      </trkpt>
      <trkpt lat="46.12178" lon="3.46269">
        <ele>346</ele>
        <time>2018-01-28T12:34:29Z</time>
      </trkpt>
      <trkpt lat="46.12198" lon="3.46269">
        <ele>345</ele>
        <time>2018-01-28T12:34:37Z</time>
      </trkpt>
      <trkpt lat="46.12216" lon="3.46269">
        <ele>345</ele>
        <time>2018-01-28T12:34:44Z</time>
      </trkpt>
      <trkpt lat="46.12235" lon="3.46267">
        <ele>345</ele>
        <time>2018-01-28T12:34:51Z</time>
      </trkpt>
      <trkpt lat="46.12254" lon="3.46265">
        <ele>345</ele>
        <time>2018-01-28T12:34:59Z</time>
      </trkpt>
      <trkpt lat="46.12271" lon="3.46256">
        <ele>344</ele>
        <time>2018-01-28T12:35:14Z</time>
      </trkpt>
      <trkpt lat="46.12285" lon="3.46239">
        <ele>346</ele>
        <time>2018-01-28T12:35:26Z</time>
      </trkpt>
      <trkpt lat="46.12299" lon="3.46222">
        <ele>346</ele>
        <time>2018-01-28T12:35:39Z</time>
      </trkpt>
      <trkpt lat="46.12316" lon="3.46209">
        <ele>346</ele>
        <time>2018-01-28T12:35:52Z</time>
      </trkpt>
      <trkpt lat="46.1233" lon="3.46192">
        <ele>347</ele>
        <time>2018-01-28T12:35:59Z</time>
      </trkpt>
      <trkpt lat="46.12344" lon="3.46172">
        <ele>346</ele>
        <time>2018-01-28T12:36:06Z</time>
      </trkpt>
      <trkpt lat="46.12359" lon="3.46155">
        <ele>346</ele>
        <time>2018-01-28T12:36:13Z</time>
      </trkpt>
      <trkpt lat="46.12377" lon="3.46142">
        <ele>345</ele>
        <time>2018-01-28T12:36:20Z</time>
      </trkpt>
      <trkpt lat="46.12394" lon="3.46132">
        <ele>345</ele>
        <time>2018-01-28T12:36:27Z</time>
      </trkpt>
      <trkpt lat="46.12411" lon="3.46121">
        <ele>345</ele>
        <time>2018-01-28T12:36:34Z</time>
      </trkpt>
      <trkpt lat="46.1243" lon="3.46114">
        <ele>342</ele>
        <time>2018-01-28T12:36:42Z</time>
      </trkpt>
      <trkpt lat="46.12448" lon="3.46112">
        <ele>342</ele>
        <time>2018-01-28T12:36:49Z</time>
      </trkpt>
      <trkpt lat="46.12467" lon="3.4611">
        <ele>341</ele>
        <time>2018-01-28T12:36:56Z</time>
      </trkpt>
      <trkpt lat="46.12487" lon="3.46106">
        <ele>341</ele>
        <time>2018-01-28T12:37:03Z</time>
      </trkpt>
      <trkpt lat="46.12504" lon="3.46097">
        <ele>341</ele>
        <time>2018-01-28T12:37:11Z</time>
      </trkpt>
      <trkpt lat="46.12521" lon="3.4608">
        <ele>342</ele>
        <time>2018-01-28T12:37:18Z</time>
      </trkpt>
      <trkpt lat="46.12534" lon="3.46061">
        <ele>343</ele>
        <time>2018-01-28T12:37:25Z</time>
      </trkpt>
      <trkpt lat="46.12542" lon="3.46037">
        <ele>343</ele>
        <time>2018-01-28T12:37:33Z</time>
      </trkpt>
      <trkpt lat="46.1255" lon="3.46011">
        <ele>343</ele>
        <time>2018-01-28T12:37:42Z</time>
      </trkpt>
      <trkpt lat="46.12557" lon="3.45988">
        <ele>345</ele>
        <time>2018-01-28T12:37:50Z</time>
      </trkpt>
      <trkpt lat="46.12576" lon="3.45996">
        <ele>344</ele>
        <time>2018-01-28T12:37:59Z</time>
      </trkpt>
      <trkpt lat="46.12594" lon="3.46007">
        <ele>342</ele>
        <time>2018-01-28T12:38:09Z</time>
      </trkpt>
      <trkpt lat="46.12612" lon="3.46005">
        <ele>341</ele>
        <time>2018-01-28T12:38:18Z</time>
      </trkpt>
      <trkpt lat="46.1263" lon="3.46005">
        <ele>340</ele>
        <time>2018-01-28T12:38:28Z</time>
      </trkpt>
      <trkpt lat="46.12649" lon="3.45994">
        <ele>340</ele>
        <time>2018-01-28T12:38:37Z</time>
      </trkpt>
      <trkpt lat="46.12665" lon="3.45981">
        <ele>340</ele>
        <time>2018-01-28T12:38:51Z</time>
      </trkpt>
      <trkpt lat="46.12679" lon="3.45962">
        <ele>332</ele>
        <time>2018-01-28T12:39:04Z</time>
      </trkpt>
      <trkpt lat="46.12695" lon="3.45947">
        <ele>331</ele>
        <time>2018-01-28T12:39:17Z</time>
      </trkpt>
      <trkpt lat="46.12712" lon="3.45938">
        <ele>329</ele>
        <time>2018-01-28T12:39:28Z</time>
      </trkpt>
      <trkpt lat="46.12729" lon="3.45928">
        <ele>325</ele>
        <time>2018-01-28T12:39:38Z</time>
      </trkpt>
      <trkpt lat="46.12743" lon="3.45908">
        <ele>321</ele>
        <time>2018-01-28T12:39:50Z</time>
      </trkpt>
      <trkpt lat="46.12762" lon="3.45906">
        <ele>313</ele>
        <time>2018-01-28T12:40:03Z</time>
      </trkpt>
      <trkpt lat="46.12779" lon="3.45896">
        <ele>309</ele>
        <time>2018-01-28T12:40:12Z</time>
      </trkpt>
      <trkpt lat="46.12797" lon="3.45883">
        <ele>307</ele>
        <time>2018-01-28T12:40:20Z</time>
      </trkpt>
      <trkpt lat="46.12813" lon="3.45863">
        <ele>305</ele>
        <time>2018-01-28T12:40:26Z</time>
      </trkpt>
      <trkpt lat="46.12827" lon="3.45846">
        <ele>303</ele>
        <time>2018-01-28T12:40:33Z</time>
      </trkpt>
      <trkpt lat="46.12844" lon="3.45836">
        <ele>297</ele>
        <time>2018-01-28T12:40:43Z</time>
      </trkpt>
      <trkpt lat="46.12862" lon="3.4584">
        <ele>293</ele>
        <time>2018-01-28T12:40:59Z</time>
      </trkpt>
      <trkpt lat="46.12879" lon="3.45855">
        <ele>291</ele>
        <time>2018-01-28T12:41:11Z</time>
      </trkpt>
      <trkpt lat="46.12893" lon="3.45874">
        <ele>289</ele>
        <time>2018-01-28T12:41:27Z</time>
      </trkpt>
      <trkpt lat="46.12907" lon="3.45898">
        <ele>286</ele>
        <time>2018-01-28T12:41:33Z</time>
      </trkpt>
      <trkpt lat="46.12921" lon="3.45915">
        <ele>280</ele>
        <time>2018-01-28T12:41:38Z</time>
      </trkpt>
      <trkpt lat="46.12939" lon="3.45928">
        <ele>277</ele>
        <time>2018-01-28T12:41:46Z</time>
      </trkpt>
      <trkpt lat="46.12959" lon="3.45938">
        <ele>275</ele>
        <time>2018-01-28T12:41:53Z</time>
      </trkpt>
      <trkpt lat="46.12979" lon="3.45943">
        <ele>274</ele>
        <time>2018-01-28T12:41:58Z</time>
      </trkpt>
      <trkpt lat="46.12997" lon="3.45943">
        <ele>273</ele>
        <time>2018-01-28T12:42:03Z</time>
      </trkpt>
      <trkpt lat="46.13017" lon="3.45943">
        <ele>272</ele>
        <time>2018-01-28T12:42:09Z</time>
      </trkpt>
      <trkpt lat="46.13036" lon="3.45943">
        <ele>272</ele>
        <time>2018-01-28T12:42:15Z</time>
      </trkpt>
      <trkpt lat="46.13053" lon="3.45934">
        <ele>273</ele>
        <time>2018-01-28T12:42:21Z</time>
      </trkpt>
      <trkpt lat="46.1307" lon="3.45919">
        <ele>273</ele>
        <time>2018-01-28T12:42:31Z</time>
      </trkpt>
      <trkpt lat="46.13088" lon="3.45913">
        <ele>273</ele>
        <time>2018-01-28T12:42:38Z</time>
      </trkpt>
      <trkpt lat="46.13107" lon="3.45904">
        <ele>274</ele>
        <time>2018-01-28T12:42:56Z</time>
      </trkpt>
      <trkpt lat="46.13124" lon="3.45896">
        <ele>274</ele>
        <time>2018-01-28T12:43:11Z</time>
      </trkpt>
      <trkpt lat="46.13143" lon="3.459">
        <ele>274</ele>
        <time>2018-01-28T12:43:28Z</time>
      </trkpt>
      <trkpt lat="46.13161" lon="3.45906">
        <ele>275</ele>
        <time>2018-01-28T12:43:38Z</time>
      </trkpt>
      <trkpt lat="46.1318" lon="3.45911">
        <ele>275</ele>
        <time>2018-01-28T12:43:46Z</time>
      </trkpt>
      <trkpt lat="46.132" lon="3.45919">
        <ele>275</ele>
        <time>2018-01-28T12:43:55Z</time>
      </trkpt>
      <trkpt lat="46.13218" lon="3.45921">
        <ele>275</ele>
        <time>2018-01-28T12:44:03Z</time>
      </trkpt>
      <trkpt lat="46.13236" lon="3.45928">
        <ele>275</ele>
        <time>2018-01-28T12:44:11Z</time>
      </trkpt>
      <trkpt lat="46.13254" lon="3.45936">
        <ele>275</ele>
        <time>2018-01-28T12:44:17Z</time>
      </trkpt>
      <trkpt lat="46.13274" lon="3.45938">
        <ele>275</ele>
        <time>2018-01-28T12:44:23Z</time>
      </trkpt>
      <trkpt lat="46.13292" lon="3.45936">
        <ele>275</ele>
        <time>2018-01-28T12:44:28Z</time>
      </trkpt>
      <trkpt lat="46.13309" lon="3.45921">
        <ele>276</ele>
        <time>2018-01-28T12:44:32Z</time>
      </trkpt>
      <trkpt lat="46.13326" lon="3.45906">
        <ele>276</ele>
        <time>2018-01-28T12:44:37Z</time>
      </trkpt>
      <trkpt lat="46.13342" lon="3.45887">
        <ele>277</ele>
        <time>2018-01-28T12:44:43Z</time>
      </trkpt>
      <trkpt lat="46.13356" lon="3.45866">
        <ele>277</ele>
        <time>2018-01-28T12:44:50Z</time>
      </trkpt>
      <trkpt lat="46.13367" lon="3.45844">
        <ele>277</ele>
        <time>2018-01-28T12:44:57Z</time>
      </trkpt>
      <trkpt lat="46.13379" lon="3.45823">
        <ele>277</ele>
        <time>2018-01-28T12:45:04Z</time>
      </trkpt>
      <trkpt lat="46.13391" lon="3.45801">
        <ele>277</ele>
        <time>2018-01-28T12:45:11Z</time>
      </trkpt>
      <trkpt lat="46.13404" lon="3.45778">
        <ele>277</ele>
        <time>2018-01-28T12:45:19Z</time>
      </trkpt>
      <trkpt lat="46.13418" lon="3.45758">
        <ele>276</ele>
        <time>2018-01-28T12:45:26Z</time>
      </trkpt>
      <trkpt lat="46.13435" lon="3.45745">
        <ele>276</ele>
        <time>2018-01-28T12:45:33Z</time>
      </trkpt>
      <trkpt lat="46.13449" lon="3.45726">
        <ele>276</ele>
        <time>2018-01-28T12:45:41Z</time>
      </trkpt>
      <trkpt lat="46.13457" lon="3.45698">
        <ele>276</ele>
        <time>2018-01-28T12:45:49Z</time>
      </trkpt>
      <trkpt lat="46.13468" lon="3.45677">
        <ele>276</ele>
        <time>2018-01-28T12:45:57Z</time>
      </trkpt>
      <trkpt lat="46.13478" lon="3.45653">
        <ele>276</ele>
        <time>2018-01-28T12:46:27Z</time>
      </trkpt>
      <trkpt lat="46.13486" lon="3.4563">
        <ele>276</ele>
        <time>2018-01-28T12:47:31Z</time>
      </trkpt>
      <trkpt lat="46.13497" lon="3.45608">
        <ele>275</ele>
        <time>2018-01-28T12:47:47Z</time>
      </trkpt>
      <trkpt lat="46.13512" lon="3.45591">
        <ele>275</ele>
        <time>2018-01-28T12:48:04Z</time>
      </trkpt>
      <trkpt lat="46.13528" lon="3.45578">
        <ele>275</ele>
        <time>2018-01-28T12:48:13Z</time>
      </trkpt>
      <trkpt lat="46.13543" lon="3.45561">
        <ele>275</ele>
        <time>2018-01-28T12:48:24Z</time>
      </trkpt>
      <trkpt lat="46.13563" lon="3.45559">
        <ele>275</ele>
        <time>2018-01-28T12:48:37Z</time>
      </trkpt>
      <trkpt lat="46.13581" lon="3.45563">
        <ele>275</ele>
        <time>2018-01-28T12:48:49Z</time>
      </trkpt>
      <trkpt lat="46.13599" lon="3.45563">
        <ele>275</ele>
        <time>2018-01-28T12:49:00Z</time>
      </trkpt>
      <trkpt lat="46.13617" lon="3.45567">
        <ele>275</ele>
        <time>2018-01-28T12:49:12Z</time>
      </trkpt>
      <trkpt lat="46.13636" lon="3.45565">
        <ele>275</ele>
        <time>2018-01-28T12:49:28Z</time>
      </trkpt>
      <trkpt lat="46.13645" lon="3.45539">
        <ele>274</ele>
        <time>2018-01-28T12:49:35Z</time>
      </trkpt>
      <trkpt lat="46.13651" lon="3.45511">
        <ele>273</ele>
        <time>2018-01-28T12:49:41Z</time>
      </trkpt>
      <trkpt lat="46.13656" lon="3.45484">
        <ele>272</ele>
        <time>2018-01-28T12:49:48Z</time>
      </trkpt>
      <trkpt lat="46.13662" lon="3.45456">
        <ele>272</ele>
        <time>2018-01-28T12:49:55Z</time>
      </trkpt>
      <trkpt lat="46.13669" lon="3.45428">
        <ele>271</ele>
        <time>2018-01-28T12:50:02Z</time>
      </trkpt>
      <trkpt lat="46.13677" lon="3.45404">
        <ele>271</ele>
        <time>2018-01-28T12:50:09Z</time>
      </trkpt>
      <trkpt lat="46.13688" lon="3.45381">
        <ele>270</ele>
        <time>2018-01-28T12:50:16Z</time>
      </trkpt>
      <trkpt lat="46.13698" lon="3.45357">
        <ele>270</ele>
        <time>2018-01-28T12:50:23Z</time>
      </trkpt>
      <trkpt lat="46.13713" lon="3.45342">
        <ele>270</ele>
        <time>2018-01-28T12:50:34Z</time>
      </trkpt>
      <trkpt lat="46.1373" lon="3.45355">
        <ele>271</ele>
        <time>2018-01-28T12:50:42Z</time>
      </trkpt>
      <trkpt lat="46.13746" lon="3.4537">
        <ele>271</ele>
        <time>2018-01-28T12:50:50Z</time>
      </trkpt>
      <trkpt lat="46.13763" lon="3.45385">
        <ele>271</ele>
        <time>2018-01-28T12:50:58Z</time>
      </trkpt>
      <trkpt lat="46.13778" lon="3.454">
        <ele>271</ele>
        <time>2018-01-28T12:51:05Z</time>
      </trkpt>
      <trkpt lat="46.13793" lon="3.45417">
        <ele>272</ele>
        <time>2018-01-28T12:51:13Z</time>
      </trkpt>
      <trkpt lat="46.13808" lon="3.45432">
        <ele>272</ele>
        <time>2018-01-28T12:51:21Z</time>
      </trkpt>
      <trkpt lat="46.13827" lon="3.45421">
        <ele>273</ele>
        <time>2018-01-28T12:51:28Z</time>
      </trkpt>
      <trkpt lat="46.13831" lon="3.45393">
        <ele>272</ele>
        <time>2018-01-28T12:51:35Z</time>
      </trkpt>
      <trkpt lat="46.13833" lon="3.45366">
        <ele>272</ele>
        <time>2018-01-28T12:51:42Z</time>
      </trkpt>
      <trkpt lat="46.13846" lon="3.45344">
        <ele>272</ele>
        <time>2018-01-28T12:51:50Z</time>
      </trkpt>
      <trkpt lat="46.1385" lon="3.45316">
        <ele>271</ele>
        <time>2018-01-28T12:51:58Z</time>
      </trkpt>
      <trkpt lat="46.13851" lon="3.45288">
        <ele>271</ele>
        <time>2018-01-28T12:52:05Z</time>
      </trkpt>
      <trkpt lat="46.13854" lon="3.45263">
        <ele>271</ele>
        <time>2018-01-28T12:52:12Z</time>
      </trkpt>
      <trkpt lat="46.13858" lon="3.45235">
        <ele>270</ele>
        <time>2018-01-28T12:52:19Z</time>
      </trkpt>
      <trkpt lat="46.13862" lon="3.45207">
        <ele>270</ele>
        <time>2018-01-28T12:52:26Z</time>
      </trkpt>
      <trkpt lat="46.13865" lon="3.45179">
        <ele>270</ele>
        <time>2018-01-28T12:52:33Z</time>
      </trkpt>
      <trkpt lat="46.13868" lon="3.45153">
        <ele>271</ele>
        <time>2018-01-28T12:52:42Z</time>
      </trkpt>
      <trkpt lat="46.13873" lon="3.45125">
        <ele>271</ele>
        <time>2018-01-28T12:52:50Z</time>
      </trkpt>
      <trkpt lat="46.13876" lon="3.45097">
        <ele>271</ele>
        <time>2018-01-28T12:52:58Z</time>
      </trkpt>
      <trkpt lat="46.13878" lon="3.45069">
        <ele>271</ele>
        <time>2018-01-28T12:53:05Z</time>
      </trkpt>
      <trkpt lat="46.13879" lon="3.45042">
        <ele>271</ele>
        <time>2018-01-28T12:53:12Z</time>
      </trkpt>
      <trkpt lat="46.13878" lon="3.45012">
        <ele>270</ele>
        <time>2018-01-28T12:53:19Z</time>
      </trkpt>
      <trkpt lat="46.13881" lon="3.44984">
        <ele>270</ele>
        <time>2018-01-28T12:53:27Z</time>
      </trkpt>
      <trkpt lat="46.13896" lon="3.44969">
        <ele>270</ele>
        <time>2018-01-28T12:53:35Z</time>
      </trkpt>
      <trkpt lat="46.13916" lon="3.44966">
        <ele>270</ele>
        <time>2018-01-28T12:53:43Z</time>
      </trkpt>
      <trkpt lat="46.13935" lon="3.44969">
        <ele>271</ele>
        <time>2018-01-28T12:53:51Z</time>
      </trkpt>
      <trkpt lat="46.13953" lon="3.44971">
        <ele>271</ele>
        <time>2018-01-28T12:53:58Z</time>
      </trkpt>
      <trkpt lat="46.13971" lon="3.44973">
        <ele>271</ele>
        <time>2018-01-28T12:54:05Z</time>
      </trkpt>
      <trkpt lat="46.1399" lon="3.44975">
        <ele>271</ele>
        <time>2018-01-28T12:54:12Z</time>
      </trkpt>
      <trkpt lat="46.14008" lon="3.44975">
        <ele>272</ele>
        <time>2018-01-28T12:54:19Z</time>
      </trkpt>
      <trkpt lat="46.14027" lon="3.44973">
        <ele>272</ele>
        <time>2018-01-28T12:54:27Z</time>
      </trkpt>
      <trkpt lat="46.14045" lon="3.44964">
        <ele>273</ele>
        <time>2018-01-28T12:54:35Z</time>
      </trkpt>
      <trkpt lat="46.14063" lon="3.44956">
        <ele>273</ele>
        <time>2018-01-28T12:54:42Z</time>
      </trkpt>
      <trkpt lat="46.14081" lon="3.44951">
        <ele>273</ele>
        <time>2018-01-28T12:54:50Z</time>
      </trkpt>
      <trkpt lat="46.14099" lon="3.44947">
        <ele>275</ele>
        <time>2018-01-28T12:54:58Z</time>
      </trkpt>
      <trkpt lat="46.14117" lon="3.44945">
        <ele>275</ele>
        <time>2018-01-28T12:55:05Z</time>
      </trkpt>
      <trkpt lat="46.14136" lon="3.44945">
        <ele>275</ele>
        <time>2018-01-28T12:55:18Z</time>
      </trkpt>
      <trkpt lat="46.14154" lon="3.44941">
        <ele>276</ele>
        <time>2018-01-28T12:55:27Z</time>
      </trkpt>
      <trkpt lat="46.14172" lon="3.44939">
        <ele>277</ele>
        <time>2018-01-28T12:55:34Z</time>
      </trkpt>
      <trkpt lat="46.1419" lon="3.44939">
        <ele>278</ele>
        <time>2018-01-28T12:55:42Z</time>
      </trkpt>
      <trkpt lat="46.1421" lon="3.44936">
        <ele>278</ele>
        <time>2018-01-28T12:55:51Z</time>
      </trkpt>
      <trkpt lat="46.1423" lon="3.44936">
        <ele>279</ele>
        <time>2018-01-28T12:56:00Z</time>
      </trkpt>
      <trkpt lat="46.14248" lon="3.44939">
        <ele>279</ele>
        <time>2018-01-28T12:56:08Z</time>
      </trkpt>
      <trkpt lat="46.14268" lon="3.44943">
        <ele>283</ele>
        <time>2018-01-28T12:56:16Z</time>
      </trkpt>
      <trkpt lat="46.14287" lon="3.44945">
        <ele>285</ele>
        <time>2018-01-28T12:56:24Z</time>
      </trkpt>
      <trkpt lat="46.14306" lon="3.44947">
        <ele>286</ele>
        <time>2018-01-28T12:56:32Z</time>
      </trkpt>
      <trkpt lat="46.14324" lon="3.44951">
        <ele>287</ele>
        <time>2018-01-28T12:56:40Z</time>
      </trkpt>
      <trkpt lat="46.14344" lon="3.4496">
        <ele>293</ele>
        <time>2018-01-28T12:56:51Z</time>
      </trkpt>
      <trkpt lat="46.14362" lon="3.44966">
        <ele>294</ele>
        <time>2018-01-28T12:57:01Z</time>
      </trkpt>
      <trkpt lat="46.1438" lon="3.44975">
        <ele>295</ele>
        <time>2018-01-28T12:57:10Z</time>
      </trkpt>
      <trkpt lat="46.14397" lon="3.44984">
        <ele>296</ele>
        <time>2018-01-28T12:57:19Z</time>
      </trkpt>
      <trkpt lat="46.14416" lon="3.44999">
        <ele>298</ele>
        <time>2018-01-28T12:57:28Z</time>
      </trkpt>
      <trkpt lat="46.14434" lon="3.44999">
        <ele>301</ele>
        <time>2018-01-28T12:57:38Z</time>
      </trkpt>
      <trkpt lat="46.14451" lon="3.45007">
        <ele>302</ele>
        <time>2018-01-28T12:57:52Z</time>
      </trkpt>
      <trkpt lat="46.14465" lon="3.45024">
        <ele>303</ele>
        <time>2018-01-28T12:58:08Z</time>
      </trkpt>
      <trkpt lat="46.14478" lon="3.45044">
        <ele>303</ele>
        <time>2018-01-28T12:58:22Z</time>
      </trkpt>
      <trkpt lat="46.1449" lon="3.45065">
        <ele>304</ele>
        <time>2018-01-28T12:58:37Z</time>
      </trkpt>
      <trkpt lat="46.145" lon="3.45089">
        <ele>307</ele>
        <time>2018-01-28T12:59:08Z</time>
      </trkpt>
      <trkpt lat="46.14511" lon="3.4511">
        <ele>308</ele>
        <time>2018-01-28T12:59:20Z</time>
      </trkpt>
      <trkpt lat="46.1453" lon="3.45108">
        <ele>309</ele>
        <time>2018-01-28T12:59:29Z</time>
      </trkpt>
      <trkpt lat="46.14548" lon="3.45097">
        <ele>310</ele>
        <time>2018-01-28T12:59:38Z</time>
      </trkpt>
      <trkpt lat="46.14565" lon="3.45087">
        <ele>311</ele>
        <time>2018-01-28T12:59:46Z</time>
      </trkpt>
      <trkpt lat="46.14581" lon="3.45074">
        <ele>313</ele>
        <time>2018-01-28T12:59:55Z</time>
      </trkpt>
      <trkpt lat="46.14596" lon="3.45054">
        <ele>318</ele>
        <time>2018-01-28T13:00:05Z</time>
      </trkpt>
      <trkpt lat="46.14611" lon="3.45039">
        <ele>319</ele>
        <time>2018-01-28T13:00:14Z</time>
      </trkpt>
      <trkpt lat="46.14628" lon="3.45027">
        <ele>320</ele>
        <time>2018-01-28T13:00:23Z</time>
      </trkpt>
      <trkpt lat="46.14647" lon="3.4502">
        <ele>322</ele>
        <time>2018-01-28T13:00:33Z</time>
      </trkpt>
      <trkpt lat="46.14667" lon="3.4502">
        <ele>323</ele>
        <time>2018-01-28T13:00:43Z</time>
      </trkpt>
      <trkpt lat="46.14685" lon="3.45022">
        <ele>327</ele>
        <time>2018-01-28T13:00:52Z</time>
      </trkpt>
      <trkpt lat="46.14704" lon="3.45024">
        <ele>327</ele>
        <time>2018-01-28T13:01:01Z</time>
      </trkpt>
      <trkpt lat="46.14723" lon="3.45029">
        <ele>328</ele>
        <time>2018-01-28T13:01:11Z</time>
      </trkpt>
      <trkpt lat="46.14742" lon="3.45033">
        <ele>328</ele>
        <time>2018-01-28T13:01:20Z</time>
      </trkpt>
      <trkpt lat="46.1476" lon="3.45037">
        <ele>330</ele>
        <time>2018-01-28T13:01:28Z</time>
      </trkpt>
      <trkpt lat="46.14776" lon="3.45022">
        <ele>330</ele>
        <time>2018-01-28T13:01:37Z</time>
      </trkpt>
      <trkpt lat="46.14779" lon="3.44996">
        <ele>334</ele>
        <time>2018-01-28T13:01:44Z</time>
      </trkpt>
      <trkpt lat="46.1478" lon="3.44966">
        <ele>335</ele>
        <time>2018-01-28T13:01:53Z</time>
      </trkpt>
      <trkpt lat="46.14785" lon="3.44941">
        <ele>336</ele>
        <time>2018-01-28T13:02:01Z</time>
      </trkpt>
      <trkpt lat="46.14792" lon="3.44917">
        <ele>337</ele>
        <time>2018-01-28T13:02:09Z</time>
      </trkpt>
      <trkpt lat="46.14805" lon="3.44896">
        <ele>342</ele>
        <time>2018-01-28T13:02:19Z</time>
      </trkpt>
      <trkpt lat="46.14815" lon="3.44872">
        <ele>344</ele>
        <time>2018-01-28T13:02:29Z</time>
      </trkpt>
      <trkpt lat="46.14822" lon="3.44846">
        <ele>347</ele>
        <time>2018-01-28T13:02:40Z</time>
      </trkpt>
      <trkpt lat="46.14831" lon="3.44823">
        <ele>350</ele>
        <time>2018-01-28T13:02:55Z</time>
      </trkpt>
      <trkpt lat="46.14847" lon="3.44808">
        <ele>353</ele>
        <time>2018-01-28T13:03:08Z</time>
      </trkpt>
      <trkpt lat="46.14865" lon="3.44806">
        <ele>354</ele>
        <time>2018-01-28T13:03:18Z</time>
      </trkpt>
      <trkpt lat="46.14884" lon="3.4481">
        <ele>354</ele>
        <time>2018-01-28T13:03:28Z</time>
      </trkpt>
      <trkpt lat="46.14904" lon="3.4481">
        <ele>354</ele>
        <time>2018-01-28T13:03:35Z</time>
      </trkpt>
      <trkpt lat="46.14922" lon="3.4481">
        <ele>358</ele>
        <time>2018-01-28T13:03:43Z</time>
      </trkpt>
      <trkpt lat="46.1494" lon="3.44808">
        <ele>359</ele>
        <time>2018-01-28T13:03:52Z</time>
      </trkpt>
      <trkpt lat="46.14958" lon="3.44803">
        <ele>360</ele>
        <time>2018-01-28T13:04:01Z</time>
      </trkpt>
      <trkpt lat="46.14978" lon="3.44799">
        <ele>361</ele>
        <time>2018-01-28T13:04:10Z</time>
      </trkpt>
      <trkpt lat="46.14996" lon="3.44797">
        <ele>361</ele>
        <time>2018-01-28T13:04:19Z</time>
      </trkpt>
      <trkpt lat="46.15014" lon="3.44795">
        <ele>365</ele>
        <time>2018-01-28T13:04:28Z</time>
      </trkpt>
      <trkpt lat="46.15034" lon="3.44795">
        <ele>365</ele>
        <time>2018-01-28T13:04:37Z</time>
      </trkpt>
      <trkpt lat="46.15053" lon="3.44793">
        <ele>366</ele>
        <time>2018-01-28T13:04:46Z</time>
      </trkpt>
      <trkpt lat="46.15072" lon="3.44793">
        <ele>366</ele>
        <time>2018-01-28T13:04:55Z</time>
      </trkpt>
      <trkpt lat="46.1509" lon="3.44795">
        <ele>370</ele>
        <time>2018-01-28T13:05:02Z</time>
      </trkpt>
      <trkpt lat="46.15111" lon="3.44795">
        <ele>371</ele>
        <time>2018-01-28T13:05:09Z</time>
      </trkpt>
      <trkpt lat="46.15129" lon="3.44795">
        <ele>372</ele>
        <time>2018-01-28T13:05:15Z</time>
      </trkpt>
      <trkpt lat="46.15147" lon="3.44797">
        <ele>372</ele>
        <time>2018-01-28T13:05:22Z</time>
      </trkpt>
      <trkpt lat="46.15167" lon="3.44803">
        <ele>373</ele>
        <time>2018-01-28T13:05:30Z</time>
      </trkpt>
      <trkpt lat="46.15184" lon="3.44812">
        <ele>378</ele>
        <time>2018-01-28T13:05:38Z</time>
      </trkpt>
      <trkpt lat="46.15202" lon="3.44821">
        <ele>379</ele>
        <time>2018-01-28T13:05:47Z</time>
      </trkpt>
      <trkpt lat="46.15219" lon="3.44833">
        <ele>379</ele>
        <time>2018-01-28T13:05:56Z</time>
      </trkpt>
      <trkpt lat="46.15237" lon="3.44842">
        <ele>381</ele>
        <time>2018-01-28T13:06:04Z</time>
      </trkpt>
      <trkpt lat="46.15256" lon="3.44848">
        <ele>386</ele>
        <time>2018-01-28T13:06:11Z</time>
      </trkpt>
      <trkpt lat="46.15276" lon="3.44857">
        <ele>387</ele>
        <time>2018-01-28T13:06:19Z</time>
      </trkpt>
      <trkpt lat="46.15294" lon="3.44861">
        <ele>388</ele>
        <time>2018-01-28T13:06:27Z</time>
      </trkpt>
      <trkpt lat="46.15313" lon="3.44863">
        <ele>389</ele>
        <time>2018-01-28T13:06:35Z</time>
      </trkpt>
      <trkpt lat="46.15331" lon="3.44859">
        <ele>389</ele>
        <time>2018-01-28T13:06:44Z</time>
      </trkpt>
      <trkpt lat="46.15351" lon="3.44853">
        <ele>390</ele>
        <time>2018-01-28T13:06:53Z</time>
      </trkpt>
      <trkpt lat="46.15369" lon="3.44848">
        <ele>390</ele>
        <time>2018-01-28T13:07:01Z</time>
      </trkpt>
      <trkpt lat="46.15388" lon="3.44851">
        <ele>389</ele>
        <time>2018-01-28T13:07:10Z</time>
      </trkpt>
      <trkpt lat="46.15405" lon="3.44859">
        <ele>389</ele>
        <time>2018-01-28T13:07:19Z</time>
      </trkpt>
      <trkpt lat="46.15423" lon="3.44868">
        <ele>383</ele>
        <time>2018-01-28T13:07:26Z</time>
      </trkpt>
      <trkpt lat="46.1544" lon="3.44881">
        <ele>383</ele>
        <time>2018-01-28T13:07:34Z</time>
      </trkpt>
      <trkpt lat="46.15455" lon="3.44898">
        <ele>382</ele>
        <time>2018-01-28T13:07:43Z</time>
      </trkpt>
      <trkpt lat="46.15469" lon="3.44917">
        <ele>385</ele>
        <time>2018-01-28T13:07:52Z</time>
      </trkpt>
      <trkpt lat="46.15484" lon="3.44934">
        <ele>383</ele>
        <time>2018-01-28T13:08:01Z</time>
      </trkpt>
      <trkpt lat="46.15501" lon="3.44951">
        <ele>375</ele>
        <time>2018-01-28T13:08:09Z</time>
      </trkpt>
      <trkpt lat="46.15517" lon="3.44964">
        <ele>375</ele>
        <time>2018-01-28T13:08:16Z</time>
      </trkpt>
      <trkpt lat="46.15537" lon="3.44966">
        <ele>374</ele>
        <time>2018-01-28T13:08:24Z</time>
      </trkpt>
      <trkpt lat="46.15554" lon="3.44956">
        <ele>373</ele>
        <time>2018-01-28T13:08:31Z</time>
      </trkpt>
      <trkpt lat="46.15571" lon="3.44945">
        <ele>372</ele>
        <time>2018-01-28T13:08:39Z</time>
      </trkpt>
      <trkpt lat="46.15587" lon="3.44932">
        <ele>371</ele>
        <time>2018-01-28T13:08:47Z</time>
      </trkpt>
      <trkpt lat="46.15604" lon="3.44919">
        <ele>372</ele>
        <time>2018-01-28T13:08:58Z</time>
      </trkpt>
      <trkpt lat="46.15618" lon="3.449">
        <ele>375</ele>
        <time>2018-01-28T13:09:09Z</time>
      </trkpt>
      <trkpt lat="46.15627" lon="3.44876">
        <ele>376</ele>
        <time>2018-01-28T13:09:19Z</time>
      </trkpt>
      <trkpt lat="46.15635" lon="3.44853">
        <ele>377</ele>
        <time>2018-01-28T13:09:28Z</time>
      </trkpt>
      <trkpt lat="46.15652" lon="3.44838">
        <ele>380</ele>
        <time>2018-01-28T13:09:37Z</time>
      </trkpt>
      <trkpt lat="46.15671" lon="3.44829">
        <ele>384</ele>
        <time>2018-01-28T13:09:47Z</time>
      </trkpt>
      <trkpt lat="46.15689" lon="3.44821">
        <ele>386</ele>
        <time>2018-01-28T13:09:56Z</time>
      </trkpt>
      <trkpt lat="46.15707" lon="3.44814">
        <ele>387</ele>
        <time>2018-01-28T13:10:05Z</time>
      </trkpt>
      <trkpt lat="46.15727" lon="3.4481">
        <ele>388</ele>
        <time>2018-01-28T13:10:14Z</time>
      </trkpt>
      <trkpt lat="46.15746" lon="3.44806">
        <ele>389</ele>
        <time>2018-01-28T13:10:23Z</time>
      </trkpt>
      <trkpt lat="46.15765" lon="3.44797">
        <ele>393</ele>
        <time>2018-01-28T13:10:32Z</time>
      </trkpt>
      <trkpt lat="46.15783" lon="3.44788">
        <ele>394</ele>
        <time>2018-01-28T13:10:40Z</time>
      </trkpt>
      <trkpt lat="46.15801" lon="3.44775">
        <ele>394</ele>
        <time>2018-01-28T13:10:47Z</time>
      </trkpt>
      <trkpt lat="46.15818" lon="3.44765">
        <ele>395</ele>
        <time>2018-01-28T13:10:54Z</time>
      </trkpt>
      <trkpt lat="46.15837" lon="3.44752">
        <ele>395</ele>
        <time>2018-01-28T13:11:02Z</time>
      </trkpt>
      <trkpt lat="46.15855" lon="3.44741">
        <ele>395</ele>
        <time>2018-01-28T13:11:10Z</time>
      </trkpt>
      <trkpt lat="46.15875" lon="3.4473">
        <ele>395</ele>
        <time>2018-01-28T13:11:18Z</time>
      </trkpt>
      <trkpt lat="46.15894" lon="3.4472">
        <ele>395</ele>
        <time>2018-01-28T13:11:26Z</time>
      </trkpt>
      <trkpt lat="46.15912" lon="3.44711">
        <ele>395</ele>
        <time>2018-01-28T13:11:33Z</time>
      </trkpt>
      <trkpt lat="46.1593" lon="3.44709">
        <ele>396</ele>
        <time>2018-01-28T13:11:40Z</time>
      </trkpt>
      <trkpt lat="46.15949" lon="3.44705">
        <ele>396</ele>
        <time>2018-01-28T13:11:47Z</time>
      </trkpt>
      <trkpt lat="46.15967" lon="3.447">
        <ele>396</ele>
        <time>2018-01-28T13:11:54Z</time>
      </trkpt>
      <trkpt lat="46.15985" lon="3.44696">
        <ele>396</ele>
        <time>2018-01-28T13:12:01Z</time>
      </trkpt>
      <trkpt lat="46.16003" lon="3.44692">
        <ele>395</ele>
        <time>2018-01-28T13:12:08Z</time>
      </trkpt>
      <trkpt lat="46.16023" lon="3.44688">
        <ele>395</ele>
        <time>2018-01-28T13:12:15Z</time>
      </trkpt>
      <trkpt lat="46.16041" lon="3.44685">
        <ele>395</ele>
        <time>2018-01-28T13:12:22Z</time>
      </trkpt>
      <trkpt lat="46.16059" lon="3.44688">
        <ele>395</ele>
        <time>2018-01-28T13:12:29Z</time>
      </trkpt>
      <trkpt lat="46.16077" lon="3.4469">
        <ele>395</ele>
        <time>2018-01-28T13:12:36Z</time>
      </trkpt>
      <trkpt lat="46.16096" lon="3.44694">
        <ele>393</ele>
        <time>2018-01-28T13:12:49Z</time>
      </trkpt>
      <trkpt lat="46.16114" lon="3.447">
        <ele>393</ele>
        <time>2018-01-28T13:13:02Z</time>
      </trkpt>
      <trkpt lat="46.16132" lon="3.44705">
        <ele>392</ele>
        <time>2018-01-28T13:13:16Z</time>
      </trkpt>
      <trkpt lat="46.16146" lon="3.44685">
        <ele>391</ele>
        <time>2018-01-28T13:13:25Z</time>
      </trkpt>
      <trkpt lat="46.16159" lon="3.44666">
        <ele>389</ele>
        <time>2018-01-28T13:13:32Z</time>
      </trkpt>
      <trkpt lat="46.16173" lon="3.44647">
        <ele>388</ele>
        <time>2018-01-28T13:13:39Z</time>
      </trkpt>
      <trkpt lat="46.16187" lon="3.44625">
        <ele>388</ele>
        <time>2018-01-28T13:13:46Z</time>
      </trkpt>
      <trkpt lat="46.16205" lon="3.44617">
        <ele>388</ele>
        <time>2018-01-28T13:13:53Z</time>
      </trkpt>
      <trkpt lat="46.16222" lon="3.44608">
        <ele>388</ele>
        <time>2018-01-28T13:14:00Z</time>
      </trkpt>
      <trkpt lat="46.16241" lon="3.44604">
        <ele>388</ele>
        <time>2018-01-28T13:14:07Z</time>
      </trkpt>
      <trkpt lat="46.1626" lon="3.44597">
        <ele>388</ele>
        <time>2018-01-28T13:14:15Z</time>
      </trkpt>
      <trkpt lat="46.16279" lon="3.44593">
        <ele>388</ele>
        <time>2018-01-28T13:14:23Z</time>
      </trkpt>
      <trkpt lat="46.16297" lon="3.44587">
        <ele>388</ele>
        <time>2018-01-28T13:14:30Z</time>
      </trkpt>
      <trkpt lat="46.16316" lon="3.4458">
        <ele>387</ele>
        <time>2018-01-28T13:14:37Z</time>
      </trkpt>
      <trkpt lat="46.16334" lon="3.44576">
        <ele>387</ele>
        <time>2018-01-28T13:14:44Z</time>
      </trkpt>
      <trkpt lat="46.16353" lon="3.44574">
        <ele>386</ele>
        <time>2018-01-28T13:16:53Z</time>
      </trkpt>
      <trkpt lat="46.16373" lon="3.4458">
        <ele>386</ele>
        <time>2018-01-28T13:17:00Z</time>
      </trkpt>
      <trkpt lat="46.16389" lon="3.44593">
        <ele>387</ele>
        <time>2018-01-28T13:17:07Z</time>
      </trkpt>
      <trkpt lat="46.16404" lon="3.44608">
        <ele>387</ele>
        <time>2018-01-28T13:17:14Z</time>
      </trkpt>
      <trkpt lat="46.1642" lon="3.44621">
        <ele>385</ele>
        <time>2018-01-28T13:17:21Z</time>
      </trkpt>
      <trkpt lat="46.16437" lon="3.44632">
        <ele>385</ele>
        <time>2018-01-28T13:17:28Z</time>
      </trkpt>
      <trkpt lat="46.16455" lon="3.44636">
        <ele>385</ele>
        <time>2018-01-28T13:17:35Z</time>
      </trkpt>
      <trkpt lat="46.16473" lon="3.44638">
        <ele>384</ele>
        <time>2018-01-28T13:17:42Z</time>
      </trkpt>
      <trkpt lat="46.16493" lon="3.44638">
        <ele>384</ele>
        <time>2018-01-28T13:17:49Z</time>
      </trkpt>
      <trkpt lat="46.16513" lon="3.44636">
        <ele>380</ele>
        <time>2018-01-28T13:17:57Z</time>
      </trkpt>
      <trkpt lat="46.16531" lon="3.44636">
        <ele>380</ele>
        <time>2018-01-28T13:18:04Z</time>
      </trkpt>
      <trkpt lat="46.16551" lon="3.44636">
        <ele>379</ele>
        <time>2018-01-28T13:18:11Z</time>
      </trkpt>
      <trkpt lat="46.16569" lon="3.4464">
        <ele>378</ele>
        <time>2018-01-28T13:18:18Z</time>
      </trkpt>
      <trkpt lat="46.16588" lon="3.44647">
        <ele>374</ele>
        <time>2018-01-28T13:18:26Z</time>
      </trkpt>
      <trkpt lat="46.16605" lon="3.44655">
        <ele>373</ele>
        <time>2018-01-28T13:18:34Z</time>
      </trkpt>
      <trkpt lat="46.16621" lon="3.4467">
        <ele>372</ele>
        <time>2018-01-28T13:18:43Z</time>
      </trkpt>
      <trkpt lat="46.16635" lon="3.44688">
        <ele>371</ele>
        <time>2018-01-28T13:18:54Z</time>
      </trkpt>
      <trkpt lat="46.1665" lon="3.44707">
        <ele>370</ele>
        <time>2018-01-28T13:19:03Z</time>
      </trkpt>
      <trkpt lat="46.16665" lon="3.44726">
        <ele>369</ele>
        <time>2018-01-28T13:19:09Z</time>
      </trkpt>
      <trkpt lat="46.16683" lon="3.44739">
        <ele>365</ele>
        <time>2018-01-28T13:19:16Z</time>
      </trkpt>
      <trkpt lat="46.16701" lon="3.4475">
        <ele>365</ele>
        <time>2018-01-28T13:19:24Z</time>
      </trkpt>
      <trkpt lat="46.16719" lon="3.44741">
        <ele>364</ele>
        <time>2018-01-28T13:19:34Z</time>
      </trkpt>
      <trkpt lat="46.16732" lon="3.4472">
        <ele>364</ele>
        <time>2018-01-28T13:19:42Z</time>
      </trkpt>
      <trkpt lat="46.16745" lon="3.44696">
        <ele>362</ele>
        <time>2018-01-28T13:19:50Z</time>
      </trkpt>
      <trkpt lat="46.16757" lon="3.44672">
        <ele>360</ele>
        <time>2018-01-28T13:19:58Z</time>
      </trkpt>
      <trkpt lat="46.16764" lon="3.44645">
        <ele>358</ele>
        <time>2018-01-28T13:20:07Z</time>
      </trkpt>
      <trkpt lat="46.16767" lon="3.44619">
        <ele>357</ele>
        <time>2018-01-28T13:20:14Z</time>
      </trkpt>
      <trkpt lat="46.16778" lon="3.44597">
        <ele>357</ele>
        <time>2018-01-28T13:20:21Z</time>
      </trkpt>
      <trkpt lat="46.16791" lon="3.44576">
        <ele>356</ele>
        <time>2018-01-28T13:20:29Z</time>
      </trkpt>
      <trkpt lat="46.16803" lon="3.44554">
        <ele>357</ele>
        <time>2018-01-28T13:20:37Z</time>
      </trkpt>
      <trkpt lat="46.16822" lon="3.44552">
        <ele>356</ele>
        <time>2018-01-28T13:20:47Z</time>
      </trkpt>
      <trkpt lat="46.16838" lon="3.44565">
        <ele>357</ele>
        <time>2018-01-28T13:20:55Z</time>
      </trkpt>
      <trkpt lat="46.16852" lon="3.44548">
        <ele>358</ele>
        <time>2018-01-28T13:21:06Z</time>
      </trkpt>
      <trkpt lat="46.16856" lon="3.44522">
        <ele>358</ele>
        <time>2018-01-28T13:21:15Z</time>
      </trkpt>
      <trkpt lat="46.16866" lon="3.44499">
        <ele>357</ele>
        <time>2018-01-28T13:21:22Z</time>
      </trkpt>
      <trkpt lat="46.1688" lon="3.44477">
        <ele>357</ele>
        <time>2018-01-28T13:21:29Z</time>
      </trkpt>
      <trkpt lat="46.16893" lon="3.44458">
        <ele>357</ele>
        <time>2018-01-28T13:21:35Z</time>
      </trkpt>
      <trkpt lat="46.16908" lon="3.44436">
        <ele>356</ele>
        <time>2018-01-28T13:21:42Z</time>
      </trkpt>
      <trkpt lat="46.16923" lon="3.44417">
        <ele>356</ele>
        <time>2018-01-28T13:21:49Z</time>
      </trkpt>
      <trkpt lat="46.16937" lon="3.444">
        <ele>356</ele>
        <time>2018-01-28T13:21:59Z</time>
      </trkpt>
      <trkpt lat="46.16951" lon="3.44381">
        <ele>356</ele>
        <time>2018-01-28T13:22:07Z</time>
      </trkpt>
      <trkpt lat="46.16965" lon="3.44364">
        <ele>355</ele>
        <time>2018-01-28T13:22:14Z</time>
      </trkpt>
      <trkpt lat="46.16979" lon="3.44344">
        <ele>354</ele>
        <time>2018-01-28T13:22:21Z</time>
      </trkpt>
      <trkpt lat="46.16995" lon="3.44325">
        <ele>351</ele>
        <time>2018-01-28T13:22:29Z</time>
      </trkpt>
      <trkpt lat="46.17009" lon="3.44306">
        <ele>349</ele>
        <time>2018-01-28T13:22:37Z</time>
      </trkpt>
      <trkpt lat="46.17021" lon="3.44284">
        <ele>348</ele>
        <time>2018-01-28T13:22:45Z</time>
      </trkpt>
      <trkpt lat="46.17033" lon="3.44263">
        <ele>348</ele>
        <time>2018-01-28T13:22:53Z</time>
      </trkpt>
      <trkpt lat="46.17044" lon="3.44241">
        <ele>344</ele>
        <time>2018-01-28T13:23:00Z</time>
      </trkpt>
      <trkpt lat="46.17055" lon="3.4422">
        <ele>344</ele>
        <time>2018-01-28T13:23:06Z</time>
      </trkpt>
      <trkpt lat="46.17065" lon="3.44196">
        <ele>343</ele>
        <time>2018-01-28T13:23:12Z</time>
      </trkpt>
      <trkpt lat="46.17076" lon="3.44175">
        <ele>340</ele>
        <time>2018-01-28T13:23:19Z</time>
      </trkpt>
      <trkpt lat="46.1709" lon="3.44155">
        <ele>337</ele>
        <time>2018-01-28T13:23:26Z</time>
      </trkpt>
      <trkpt lat="46.17107" lon="3.44145">
        <ele>336</ele>
        <time>2018-01-28T13:23:34Z</time>
      </trkpt>
      <trkpt lat="46.17126" lon="3.44145">
        <ele>336</ele>
        <time>2018-01-28T13:23:41Z</time>
      </trkpt>
      <trkpt lat="46.17144" lon="3.44149">
        <ele>336</ele>
        <time>2018-01-28T13:23:48Z</time>
      </trkpt>
      <trkpt lat="46.17163" lon="3.44142">
        <ele>336</ele>
        <time>2018-01-28T13:23:56Z</time>
      </trkpt>
      <trkpt lat="46.1718" lon="3.44132">
        <ele>334</ele>
        <time>2018-01-28T13:24:04Z</time>
      </trkpt>
      <trkpt lat="46.172" lon="3.44127">
        <ele>333</ele>
        <time>2018-01-28T13:24:14Z</time>
      </trkpt>
      <trkpt lat="46.17218" lon="3.44121">
        <ele>333</ele>
        <time>2018-01-28T13:24:22Z</time>
      </trkpt>
      <trkpt lat="46.17234" lon="3.44102">
        <ele>331</ele>
        <time>2018-01-28T13:24:32Z</time>
      </trkpt>
      <trkpt lat="46.17237" lon="3.44072">
        <ele>328</ele>
        <time>2018-01-28T13:24:38Z</time>
      </trkpt>
      <trkpt lat="46.17239" lon="3.44044">
        <ele>328</ele>
        <time>2018-01-28T13:24:45Z</time>
      </trkpt>
      <trkpt lat="46.17246" lon="3.44016">
        <ele>327</ele>
        <time>2018-01-28T13:24:53Z</time>
      </trkpt>
      <trkpt lat="46.17263" lon="3.44005">
        <ele>327</ele>
        <time>2018-01-28T13:25:06Z</time>
      </trkpt>
      <trkpt lat="46.17282" lon="3.44003">
        <ele>328</ele>
        <time>2018-01-28T13:25:17Z</time>
      </trkpt>
      <trkpt lat="46.17298" lon="3.4399">
        <ele>325</ele>
        <time>2018-01-28T13:25:27Z</time>
      </trkpt>
      <trkpt lat="46.1731" lon="3.43969">
        <ele>325</ele>
        <time>2018-01-28T13:25:34Z</time>
      </trkpt>
      <trkpt lat="46.17316" lon="3.43943">
        <ele>324</ele>
        <time>2018-01-28T13:25:42Z</time>
      </trkpt>
      <trkpt lat="46.17323" lon="3.43919">
        <ele>322</ele>
        <time>2018-01-28T13:25:50Z</time>
      </trkpt>
      <trkpt lat="46.17332" lon="3.43894">
        <ele>322</ele>
        <time>2018-01-28T13:25:57Z</time>
      </trkpt>
      <trkpt lat="46.1734" lon="3.43868">
        <ele>321</ele>
        <time>2018-01-28T13:26:04Z</time>
      </trkpt>
      <trkpt lat="46.17343" lon="3.43842">
        <ele>320</ele>
        <time>2018-01-28T13:26:16Z</time>
      </trkpt>
      <trkpt lat="46.17351" lon="3.43818">
        <ele>319</ele>
        <time>2018-01-28T13:26:40Z</time>
      </trkpt>
      <trkpt lat="46.17368" lon="3.4381">
        <ele>319</ele>
        <time>2018-01-28T13:26:53Z</time>
      </trkpt>
      <trkpt lat="46.17387" lon="3.43803">
        <ele>319</ele>
        <time>2018-01-28T13:27:04Z</time>
      </trkpt>
      <trkpt lat="46.17406" lon="3.43797">
        <ele>320</ele>
        <time>2018-01-28T13:27:15Z</time>
      </trkpt>
      <trkpt lat="46.17416" lon="3.43776">
        <ele>319</ele>
        <time>2018-01-28T13:27:25Z</time>
      </trkpt>
      <trkpt lat="46.17426" lon="3.43752">
        <ele>322</ele>
        <time>2018-01-28T13:27:34Z</time>
      </trkpt>
      <trkpt lat="46.17437" lon="3.43728">
        <ele>326</ele>
        <time>2018-01-28T13:27:44Z</time>
      </trkpt>
      <trkpt lat="46.17444" lon="3.43705">
        <ele>328</ele>
        <time>2018-01-28T13:27:53Z</time>
      </trkpt>
      <trkpt lat="46.17452" lon="3.43681">
        <ele>328</ele>
        <time>2018-01-28T13:28:01Z</time>
      </trkpt>
      <trkpt lat="46.17458" lon="3.43655">
        <ele>332</ele>
        <time>2018-01-28T13:28:10Z</time>
      </trkpt>
      <trkpt lat="46.17459" lon="3.43627">
        <ele>333</ele>
        <time>2018-01-28T13:28:20Z</time>
      </trkpt>
      <trkpt lat="46.17461" lon="3.43597">
        <ele>334</ele>
        <time>2018-01-28T13:28:33Z</time>
      </trkpt>
      <trkpt lat="46.17463" lon="3.4357">
        <ele>337</ele>
        <time>2018-01-28T13:28:44Z</time>
      </trkpt>
      <trkpt lat="46.17463" lon="3.4354">
        <ele>337</ele>
        <time>2018-01-28T13:28:54Z</time>
      </trkpt>
      <trkpt lat="46.17457" lon="3.43512">
        <ele>337</ele>
        <time>2018-01-28T13:29:01Z</time>
      </trkpt>
      <trkpt lat="46.17449" lon="3.43488">
        <ele>337</ele>
        <time>2018-01-28T13:29:08Z</time>
      </trkpt>
      <trkpt lat="46.17438" lon="3.43464">
        <ele>336</ele>
        <time>2018-01-28T13:29:16Z</time>
      </trkpt>
      <trkpt lat="46.17424" lon="3.43447">
        <ele>337</ele>
        <time>2018-01-28T13:29:24Z</time>
      </trkpt>
      <trkpt lat="46.17409" lon="3.4343">
        <ele>335</ele>
        <time>2018-01-28T13:29:33Z</time>
      </trkpt>
      <trkpt lat="46.17392" lon="3.43415">
        <ele>334</ele>
        <time>2018-01-28T13:29:40Z</time>
      </trkpt>
      <trkpt lat="46.17376" lon="3.43402">
        <ele>333</ele>
        <time>2018-01-28T13:29:46Z</time>
      </trkpt>
      <trkpt lat="46.17358" lon="3.43389">
        <ele>332</ele>
        <time>2018-01-28T13:29:52Z</time>
      </trkpt>
      <trkpt lat="46.17341" lon="3.43376">
        <ele>332</ele>
        <time>2018-01-28T13:29:59Z</time>
      </trkpt>
      <trkpt lat="46.17325" lon="3.43364">
        <ele>329</ele>
        <time>2018-01-28T13:30:05Z</time>
      </trkpt>
      <trkpt lat="46.17309" lon="3.43346">
        <ele>329</ele>
        <time>2018-01-28T13:30:12Z</time>
      </trkpt>
      <trkpt lat="46.17293" lon="3.43331">
        <ele>328</ele>
        <time>2018-01-28T13:30:19Z</time>
      </trkpt>
      <trkpt lat="46.17278" lon="3.43316">
        <ele>327</ele>
        <time>2018-01-28T13:30:25Z</time>
      </trkpt>
      <trkpt lat="46.17261" lon="3.43301">
        <ele>327</ele>
        <time>2018-01-28T13:30:32Z</time>
      </trkpt>
      <trkpt lat="46.17246" lon="3.43286">
        <ele>326</ele>
        <time>2018-01-28T13:30:39Z</time>
      </trkpt>
      <trkpt lat="46.17232" lon="3.43269">
        <ele>326</ele>
        <time>2018-01-28T13:30:46Z</time>
      </trkpt>
      <trkpt lat="46.17218" lon="3.43252">
        <ele>326</ele>
        <time>2018-01-28T13:30:53Z</time>
      </trkpt>
      <trkpt lat="46.17202" lon="3.43235">
        <ele>324</ele>
        <time>2018-01-28T13:31:00Z</time>
      </trkpt>
      <trkpt lat="46.17186" lon="3.43222">
        <ele>324</ele>
        <time>2018-01-28T13:31:07Z</time>
      </trkpt>
      <trkpt lat="46.17169" lon="3.43207">
        <ele>324</ele>
        <time>2018-01-28T13:31:15Z</time>
      </trkpt>
      <trkpt lat="46.1715" lon="3.43194">
        <ele>323</ele>
        <time>2018-01-28T13:31:23Z</time>
      </trkpt>
      <trkpt lat="46.17133" lon="3.43181">
        <ele>322</ele>
        <time>2018-01-28T13:31:31Z</time>
      </trkpt>
      <trkpt lat="46.17116" lon="3.43166">
        <ele>320</ele>
        <time>2018-01-28T13:31:39Z</time>
      </trkpt>
      <trkpt lat="46.17101" lon="3.43149">
        <ele>319</ele>
        <time>2018-01-28T13:31:46Z</time>
      </trkpt>
      <trkpt lat="46.17086" lon="3.43134">
        <ele>319</ele>
        <time>2018-01-28T13:31:53Z</time>
      </trkpt>
      <trkpt lat="46.17069" lon="3.43121">
        <ele>314</ele>
        <time>2018-01-28T13:32:01Z</time>
      </trkpt>
    </trkseg>
  </trk>
</gpx>